[[{"header":{"parameterUnit":"m.s-1","parameterCategory":1,"la1":30.6,"la2":28.766,"lo1":-90.7593,"lo2":-88.6598,"dy":0.0162,"dx":0.0183,"nx":116,"ny":114,"refTime":"2024-03-08T06:00:00:Z","depth":0,"parameterNumber":2,"parameterNumberName":"U-component_of_WINDS"},"data":[0.0,0.0,0.0,0.0,0.0,0.0,0.0,0.0,0.0,0.0,0.0,0.0,0.0,0.0,0.0,0.0,0.0,0.0,0.0,0.0,0.0,0.0,0.0,0.0,0.0,0.0,0.0,0.0,0.0,0.0,0.0,0.0,0.0,0.0,0.0,0.0,0.0,0.0,0.0,0.0,0.0,0.0,0.0,0.0,0.0,0.0,0.0,0.0,0.0,0.0,0.0,0.0,0.0,0.0,0.0,0.0,0.0,0.0,0.0,0.0,0.0,0.0,0.0,0.0,0.0,0.0,0.0,0.0,0.0,0.0,0.0,0.0,0.0,0.0,0.0,0.0,0.0,0.0,0.0,0.0,0.0,0.0,0.0,0.0,0.0,0.0,0.0,0.0,0.0,0.0,0.0,0.0,0.0,0.0,0.0,0.0,0.0,0.0,0.0,0.0,0.0,0.0,0.0,0.0,0.0,0.0,0.0,0.0,0.0,0.0,0.0,0.0,0.0,0.0,0.0,0.0,0.0,0.0,0.0,0.0,0.0,0.0,0.0,0.0,0.0,0.0,0.0,0.0,0.0,0.0,0.0,0.0,0.0,0.0,0.0,0.0,0.0,0.0,0.0,0.0,0.0,0.0,0.0,0.0,0.0,0.0,0.0,0.0,0.0,0.0,0.0,0.0,0.0,0.0,0.0,0.0,0.0,0.0,0.0,0.0,0.0,0.0,0.0,0.0,0.0,0.0,0.0,0.0,0.0,0.0,0.0,0.0,0.0,0.0,0.0,0.0,0.0,0.0,0.0,0.0,0.0,0.0,0.0,0.0,0.0,0.0,0.0,0.0,0.0,0.0,0.0,0.0,0.0,0.0,0.0,0.0,0.0,0.0,0.0,0.0,0.0,0.0,0.0,0.0,0.0,0.0,0.0,0.0,0.0,0.0,0.0,0.0,0.0,0.0,0.0,0.0,0.0,0.0,0.0,0.0,0.0,0.0,0.0,0.0,0.0,0.0,0.0,0.0,0.0,0.0,0.0,0.0,0.0,0.0,0.0,0.0,0.0,0.0,0.0,0.0,0.0,0.0,0.0,0.0,0.0,0.0,0.0,0.0,0.0,0.0,0.0,0.0,0.0,0.0,0.0,0.0,0.0,0.0,0.0,0.0,0.0,0.0,0.0,0.0,0.0,0.0,0.0,0.0,0.0,0.0,0.0,0.0,0.0,0.0,0.0,0.0,0.0,0.0,0.0,0.0,0.0,0.0,0.0,0.0,0.0,0.0,0.0,0.0,0.0,0.0,0.0,0.0,0.0,0.0,0.0,0.0,0.0,0.0,0.0,0.0,0.0,0.0,0.0,0.0,0.0,0.0,0.0,0.0,0.0,0.0,0.0,0.0,0.0,0.0,0.0,0.0,0.0,0.0,0.0,0.0,0.0,0.0,0.0,0.0,0.0,0.0,0.0,0.0,0.0,0.0,0.0,0.0,0.0,0.0,0.0,0.0,0.0,0.0,0.0,0.0,0.0,0.0,0.0,0.0,0.0,0.0,0.0,0.0,0.0,0.0,0.0,0.0,0.0,0.0,0.0,0.0,0.0,0.0,0.0,0.0,0.0,0.0,0.0,0.0,0.0,0.0,0.0,0.0,0.0,0.0,0.0,0.0,0.0,0.0,0.0,0.0,0.0,0.0,0.0,0.0,0.0,0.0,0.0,0.0,0.0,0.0,0.0,0.0,0.0,0.0,0.0,0.0,0.0,0.0,0.0,0.0,0.0,0.0,0.0,0.0,0.0,0.0,0.0,0.0,0.0,0.0,0.0,0.0,0.0,0.0,0.0,0.0,0.0,0.0,0.0,0.0,0.0,0.0,0.0,0.0,0.0,0.0,0.0,0.0,0.0,0.0,0.0,0.0,0.0,0.0,0.0,0.0,0.0,0.0,0.0,0.0,0.0,0.0,0.0,0.0,0.0,0.0,0.0,0.0,0.0,0.0,0.0,0.0,0.0,0.0,0.0,0.0,0.0,0.0,0.0,0.0,0.0,0.0,0.0,0.0,0.0,0.0,0.0,0.0,0.0,0.0,0.0,0.0,0.0,0.0,0.0,0.0,0.0,0.0,0.0,0.0,0.0,0.0,0.0,0.0,0.0,0.0,0.0,0.0,0.0,0.0,0.0,0.0,0.0,0.0,0.0,0.0,0.0,0.0,0.0,0.0,0.0,0.0,0.0,0.0,0.0,0.0,0.0,0.0,0.0,0.0,0.0,0.0,0.0,0.0,0.0,0.0,0.0,0.0,0.0,0.0,0.0,0.0,0.0,0.0,0.0,0.0,0.0,0.0,0.0,0.0,0.0,0.0,0.0,0.0,0.0,0.0,0.0,0.0,0.0,0.0,0.0,0.0,0.0,0.0,0.0,0.0,0.0,0.0,0.0,0.0,0.0,0.0,0.0,0.0,0.0,0.0,0.0,0.0,0.0,0.0,0.0,0.0,0.0,0.0,0.0,0.0,0.0,0.0,0.0,0.0,0.0,0.0,0.0,0.0,0.0,0.0,0.0,0.0,0.0,0.0,0.0,0.0,0.0,0.0,0.0,0.0,0.0,0.0,0.0,0.0,0.0,0.0,0.0,0.0,0.0,0.0,0.0,0.0,0.0,0.0,0.0,0.0,0.0,0.0,0.0,0.0,0.0,0.0,0.0,0.0,0.0,0.0,0.0,0.0,0.0,0.0,0.0,0.0,0.0,0.0,0.0,0.0,0.0,0.0,0.0,0.0,0.0,0.0,0.0,0.0,0.0,0.0,0.0,0.0,0.0,0.0,0.0,0.0,0.0,0.0,0.0,0.0,0.0,0.0,0.0,0.0,0.0,0.0,0.0,0.0,0.0,0.0,0.0,0.0,0.0,0.0,0.0,0.0,0.0,0.0,0.0,0.0,0.0,0.0,0.0,0.0,0.0,0.0,0.0,0.0,0.0,0.0,0.0,0.0,0.0,0.0,0.0,0.0,0.0,0.0,0.0,0.0,0.0,0.0,0.0,0.0,0.0,0.0,0.0,0.0,0.0,0.0,0.0,0.0,0.0,0.0,0.0,0.0,0.0,0.0,0.0,0.0,0.0,0.0,0.0,0.0,0.0,0.0,0.0,0.0,0.0,0.0,0.0,0.0,0.0,0.0,0.0,0.0,0.0,0.0,0.0,0.0,0.0,0.0,0.0,0.0,0.0,0.0,0.0,0.0,0.0,0.0,0.0,0.0,0.0,0.0,0.0,0.0,0.0,0.0,0.0,0.0,0.0,0.0,0.0,0.0,0.0,0.0,0.0,0.0,0.0,0.0,0.0,0.0,0.0,0.0,0.0,0.0,0.0,0.0,0.0,0.0,0.0,0.0,0.0,0.0,0.0,0.0,0.0,0.0,0.0,0.0,0.0,0.0,0.0,0.0,0.0,0.0,0.0,0.0,0.0,0.0,0.0,0.0,0.0,0.0,0.0,0.0,0.0,0.0,0.0,0.0,0.0,0.0,0.0,0.0,0.0,0.0,0.0,0.0,0.0,0.0,0.0,0.0,0.0,0.0,0.0,0.0,0.0,0.0,0.0,0.0,0.0,0.0,0.0,0.0,0.0,0.0,0.0,0.0,0.0,0.0,0.0,0.0,0.0,0.0,0.0,0.0,0.0,0.0,0.0,0.0,0.0,0.0,0.0,0.0,0.0,0.0,0.0,0.0,0.0,0.0,0.0,0.0,0.0,0.0,0.0,0.0,0.0,0.0,0.0,0.0,0.0,0.0,0.0,0.0,0.0,0.0,0.0,0.0,0.0,0.0,0.0,0.0,0.0,0.0,0.0,0.0,0.0,0.0,0.0,0.0,0.0,0.0,0.0,0.0,0.0,0.0,0.0,0.0,0.0,0.0,0.0,0.0,0.0,0.0,0.0,0.0,0.0,0.0,0.0,0.0,0.0,0.0,0.0,0.0,0.0,0.0,0.0,0.0,0.0,0.0,0.0,0.0,0.0,0.0,0.0,0.0,0.0,0.0,0.0,0.0,0.0,0.0,0.0,0.0,0.0,0.0,0.0,0.0,0.0,0.0,0.0,0.0,0.0,0.0,0.0,0.0,0.0,0.0,0.0,0.0,0.0,0.0,0.0,0.0,0.0,0.0,0.0,0.0,0.0,0.0,0.0,0.0,0.0,0.0,0.0,0.0,0.0,0.0,0.0,0.0,0.0,0.0,0.0,0.0,0.0,0.0,0.0,0.0,0.0,0.0,0.0,0.0,0.0,0.0,0.0,0.0,0.0,0.0,0.0,0.0,0.0,0.0,0.0,0.0,0.0,0.0,0.0,0.0,0.0,0.0,0.0,0.0,0.0,0.0,0.0,0.0,0.0,0.0,0.0,0.0,0.0,0.0,0.0,0.0,0.0,0.0,0.0,0.0,0.0,0.0,0.0,0.0,0.0,0.0,0.0,0.0,0.0,0.0,0.0,0.0,0.0,0.0,0.0,0.0,0.0,0.0,0.0,0.0,0.0,0.0,0.0,0.0,0.0,0.0,0.0,0.0,0.0,0.0,0.0,0.0,0.0,0.0,0.0,0.0,0.0,0.0,0.0,0.0,0.0,0.0,0.0,0.0,0.0,0.0,0.0,0.0,0.0,0.0,0.0,0.0,0.0,0.0,0.0,0.0,0.0,0.0,0.0,0.0,0.0,0.0,0.0,0.0,0.0,0.0,0.0,0.0,0.0,0.0,0.0,0.0,0.0,0.0,0.0,0.0,0.0,0.0,0.0,0.0,0.0,0.0,0.0,0.0,0.0,0.0,0.0,0.0,0.0,0.0,0.0,0.0,0.0,0.0,0.0,0.0,0.0,0.0,0.0,0.0,0.0,0.0,0.0,0.0,0.0,0.0,0.0,0.0,0.0,0.0,0.0,0.0,0.0,0.0,0.0,0.0,0.0,0.0,0.0,0.0,0.0,0.0,0.0,0.0,0.0,0.0,0.0,0.0,0.0,0.0,0.0,0.0,0.0,0.0,0.0,0.0,0.0,0.0,0.0,0.0,0.0,0.0,0.0,0.0,0.0,0.0,0.0,0.0,0.0,0.0,0.0,0.0,0.0,0.0,0.0,0.0,0.0,0.0,0.0,0.0,0.0,0.0,0.0,0.0,0.0,0.0,0.0,0.0,0.0,0.0,0.0,0.0,0.0,0.0,0.0,0.0,0.0,0.0,0.0,0.0,0.0,0.0,0.0,0.0,0.0,0.0,0.0,0.0,0.0,0.0,0.0,0.0,0.0,0.0,0.0,0.0,0.0,0.0,0.0,0.0,0.0,0.0,0.0,0.0,0.0,0.0,0.0,0.0,0.0,0.0,0.0,0.0,0.0,0.0,0.0,0.0,0.0,0.0,0.0,0.0,0.0,0.0,0.0,0.0,0.0,0.0,0.0,0.0,0.0,0.0,0.0,0.0,0.0,0.0,0.0,0.0,0.0,0.0,0.0,0.0,0.0,0.0,0.0,0.0,0.0,0.0,0.0,0.0,0.0,0.0,0.0,0.0,0.0,0.0,0.0,0.0,0.0,0.0,0.0,0.0,0.0,0.0,0.0,0.0,0.0,0.0,0.0,0.0,0.0,0.0,0.0,0.0,0.0,0.0,0.0,0.0,0.0,0.0,0.0,0.0,0.0,0.0,0.0,0.0,0.0,0.0,0.0,0.0,0.0,0.0,0.0,0.0,0.0,0.0,0.0,0.0,0.0,0.0,0.0,0.0,0.0,0.0,0.0,0.0,0.0,0.0,0.0,0.0,0.0,0.0,0.0,0.0,0.0,0.0,0.0,0.0,0.0,0.0,0.0,0.0,0.0,0.0,0.0,0.0,0.0,0.0,0.0,0.0,0.0,0.0,0.0,0.0,0.0,0.0,0.0,0.0,0.0,0.0,0.0,0.0,0.0,0.0,0.0,0.0,0.0,0.0,0.0,0.0,0.0,0.0,0.0,0.0,0.0,0.0,0.0,0.0,0.0,0.0,0.0,0.0,0.0,0.0,0.0,0.0,0.0,0.0,0.0,0.0,0.0,0.0,0.0,0.0,0.0,0.0,0.0,0.0,0.0,0.0,0.0,0.0,0.0,0.0,0.0,0.0,-2.5198,0.0,0.0,0.0,0.0,0.0,0.0,0.0,0.0,0.0,0.0,0.0,0.0,0.0,0.0,0.0,0.0,0.0,0.0,0.0,0.0,0.0,0.0,0.0,0.0,0.0,0.0,0.0,-2.0743,-2.089,-2.1086,-2.1486,0.0,0.0,0.0,0.0,0.0,0.0,-2.2512,-2.2512,-2.2512,-2.2512,-2.2512,-2.3391,-2.4006,0.0,0.0,0.0,0.0,0.0,0.0,0.0,0.0,0.0,0.0,0.0,0.0,0.0,0.0,0.0,0.0,0.0,0.0,0.0,0.0,0.0,0.0,0.0,0.0,0.0,0.0,0.0,0.0,0.0,0.0,0.0,0.0,0.0,0.0,0.0,0.0,0.0,0.0,0.0,0.0,0.0,0.0,0.0,0.0,0.0,0.0,0.0,0.0,0.0,0.0,0.0,0.0,0.0,0.0,0.0,0.0,0.0,0.0,0.0,0.0,0.0,0.0,0.0,0.0,0.0,0.0,0.0,0.0,0.0,0.0,0.0,0.0,-2.4721,0.0,0.0,0.0,0.0,0.0,0.0,0.0,0.0,0.0,0.0,0.0,0.0,0.0,0.0,0.0,0.0,0.0,0.0,0.0,0.0,0.0,0.0,0.0,-1.8405,-1.8405,-1.8471,-1.878,-1.9148,-1.9494,-2.0271,-2.0895,-2.1286,-2.18,-2.2062,-2.2062,-2.2062,-2.2062,-2.2062,-2.2186,-2.2247,-2.2233,-2.2498,0.0,0.0,0.0,0.0,0.0,0.0,0.0,0.0,0.0,0.0,0.0,0.0,0.0,0.0,0.0,0.0,0.0,0.0,0.0,0.0,0.0,0.0,0.0,0.0,0.0,0.0,0.0,0.0,0.0,0.0,0.0,0.0,0.0,0.0,0.0,0.0,0.0,0.0,0.0,0.0,0.0,0.0,0.0,0.0,0.0,0.0,0.0,0.0,0.0,0.0,0.0,0.0,0.0,0.0,0.0,0.0,0.0,0.0,0.0,0.0,0.0,0.0,0.0,0.0,0.0,0.0,-2.4632,-2.4227,-2.3799,-2.3621,-2.3084,-2.2381,-2.2981,-2.3389,-2.3691,0.0,0.0,0.0,0.0,0.0,0.0,0.0,0.0,0.0,0.0,0.0,0.0,0.0,0.0,0.0,0.0,0.0,0.0,0.0,0.0,0.0,0.0,-1.7981,-1.8143,-1.8286,-1.8759,-1.9072,-1.9215,-1.974,-2.0058,-2.0103,-2.0217,-2.0261,-2.0261,-2.0261,-2.0261,-2.0261,-2.0946,-2.1302,-2.1289,-2.2603,-2.3252,-2.3349,-2.2983,0.0,0.0,0.0,0.0,0.0,0.0,0.0,0.0,0.0,0.0,0.0,0.0,0.0,0.0,0.0,0.0,0.0,0.0,0.0,0.0,0.0,0.0,0.0,0.0,0.0,0.0,0.0,0.0,0.0,0.0,0.0,0.0,0.0,0.0,0.0,0.0,0.0,0.0,0.0,0.0,0.0,0.0,0.0,-2.3814,-2.3912,0.0,0.0,0.0,0.0,0.0,0.0,0.0,0.0,0.0,0.0,0.0,0.0,0.0,0.0,-2.733,-2.6841,-2.6591,-2.6485,-2.4786,-2.3978,-2.3856,-2.2876,-2.2342,-2.2203,-2.1355,0.0,-2.2058,-2.2443,0.0,0.0,0.0,0.0,0.0,0.0,0.0,0.0,0.0,0.0,0.0,0.0,0.0,0.0,0.0,0.0,0.0,0.0,0.0,0.0,0.0,-1.5878,-1.6018,-1.6087,-1.6618,-1.7284,-1.7992,-1.8447,-1.8996,-1.9679,-1.9866,-1.9925,-1.9925,-1.9925,-1.9925,-1.9925,-2.0272,-2.0457,-2.0445,-2.1101,-2.1614,-2.1957,-2.1694,-2.2417,-2.3843,-2.4149,0.0,0.0,0.0,0.0,0.0,0.0,0.0,0.0,0.0,0.0,0.0,0.0,0.0,0.0,0.0,0.0,0.0,0.0,0.0,0.0,0.0,0.0,0.0,0.0,0.0,0.0,0.0,0.0,0.0,0.0,0.0,0.0,0.0,0.0,0.0,0.0,0.0,0.0,0.0,-2.3898,-2.4042,-2.3992,-2.4631,-2.5218,0.0,0.0,0.0,0.0,0.0,0.0,0.0,0.0,0.0,-2.6312,-2.6285,-2.5937,-2.5328,-2.5048,-2.4789,-2.4436,-2.3576,-2.3073,-2.2804,-2.2005,-2.1549,-2.1334,-2.0501,-2.0333,-2.0657,-2.128,-2.1771,-2.2175,0.0,0.0,0.0,0.0,0.0,-2.1758,0.0,0.0,0.0,0.0,0.0,0.0,0.0,0.0,0.0,0.0,0.0,0.0,-1.4004,-1.4276,-1.444,-1.4432,-1.5038,-1.5762,-1.6621,-1.711,-1.7874,-1.9021,-1.9205,-1.9338,-1.9542,-1.9338,-1.9266,-1.9338,-1.9569,-1.9761,-2.0024,-2.0203,-2.057,-2.1052,-2.1052,-2.2137,-2.3848,-2.4054,-2.424,0.0,0.0,0.0,0.0,0.0,0.0,0.0,0.0,0.0,0.0,0.0,0.0,0.0,0.0,0.0,0.0,0.0,0.0,0.0,0.0,0.0,0.0,0.0,0.0,0.0,0.0,0.0,0.0,0.0,0.0,0.0,0.0,0.0,0.0,0.0,0.0,0.0,0.0,-2.374,-2.3909,-2.3857,-2.4217,-2.4762,0.0,0.0,0.0,0.0,0.0,0.0,-2.5742,-2.5632,-2.5602,-2.5739,-2.526,-2.4611,-2.3761,-2.3761,-2.3548,-2.3055,-2.2923,-2.2694,-2.2354,-2.1689,-2.123,-2.0949,-2.0039,-1.975,-1.996,-2.036,-2.0881,-2.1417,-2.1438,-2.1459,-2.1459,-2.1148,-2.089,-2.0531,0.0,0.0,0.0,0.0,0.0,0.0,0.0,0.0,0.0,0.0,0.0,-1.3781,-1.3979,-1.432,-1.4467,-1.4433,-1.4982,-1.5408,-1.539,-1.6023,-1.672,-1.7474,-1.7542,-1.7823,-1.8546,-1.7891,-1.761,-1.7842,-1.8558,-1.9413,-2.032,-2.1158,-2.1534,-2.1534,-2.1534,-2.2067,-2.2902,-2.3755,-2.4381,-2.4927,0.0,0.0,0.0,0.0,0.0,0.0,0.0,0.0,0.0,0.0,0.0,0.0,0.0,0.0,0.0,0.0,0.0,0.0,0.0,0.0,0.0,0.0,0.0,0.0,0.0,0.0,0.0,0.0,0.0,0.0,0.0,0.0,0.0,0.0,0.0,0.0,0.0,0.0,0.0,-2.3166,-2.3528,0.0,0.0,0.0,0.0,-2.5542,-2.5326,-2.5231,-2.5204,-2.4801,-2.46,-2.457,-2.457,-2.45,-2.4473,-2.4473,-2.446,-2.4376,-2.3761,-2.344,-2.3371,-2.2269,-2.1763,-2.167,-2.0036,-1.9653,-2.0146,-1.992,-2.0245,-2.0845,-2.0845,-2.0904,-2.0899,-2.0382,-1.9544,-1.8696,0.0,0.0,0.0,0.0,0.0,0.0,0.0,0.0,-1.115,-1.1411,-1.1474,-1.1825,-1.2572,-1.247,-1.2589,-1.3072,-1.352,-1.3993,-1.4418,-1.4956,-1.5517,-1.6271,-1.6567,-1.6793,-1.7079,-1.6862,-1.6715,-1.6793,-1.7101,-1.7366,-1.7707,-1.8516,-1.918,-1.976,-2.0257,-2.0882,-2.1715,-2.2297,-2.2874,-2.3467,-2.3852,-2.4182,0.0,0.0,0.0,0.0,0.0,0.0,0.0,0.0,0.0,0.0,0.0,0.0,0.0,0.0,0.0,0.0,0.0,0.0,0.0,0.0,0.0,0.0,0.0,0.0,0.0,0.0,0.0,0.0,0.0,0.0,0.0,0.0,0.0,0.0,0.0,0.0,0.0,-2.3242,-2.311,0.0,-2.4079,-2.4328,-2.4302,-2.4,-2.4231,-2.4244,-2.3884,-2.3702,-2.361,-2.361,-2.3207,-2.2992,-2.2992,-2.2992,-2.2992,-2.3053,-2.2792,-2.2705,-2.2799,-2.2027,-2.1476,-2.1124,-2.0133,-1.9435,-1.8997,-1.8855,-1.9078,-1.9515,-1.9451,-1.927,-1.8919,-1.8614,-1.8251,-1.7938,0.0,0.0,0.0,0.0,0.0,0.0,0.0,0.0,-0.9503,-0.9874,-0.9926,-1.0311,-1.1184,-1.1106,-1.1124,-1.1637,-1.1952,-1.2358,-1.3091,-1.3448,-1.4091,-1.5076,-1.5608,-1.5757,-1.5479,-1.5548,-1.5678,-1.5816,-1.5816,-1.5956,-1.6298,-1.6784,-1.7316,-1.79,-1.8402,-1.9079,-1.9857,-2.0106,-2.0939,-2.2237,-2.2347,-2.2665,-2.3088,0.0,0.0,0.0,0.0,0.0,0.0,0.0,0.0,0.0,0.0,0.0,0.0,0.0,0.0,0.0,0.0,0.0,0.0,0.0,0.0,0.0,0.0,0.0,0.0,0.0,0.0,0.0,0.0,0.0,0.0,0.0,0.0,0.0,0.0,0.0,-2.151,-2.2384,-2.2176,-2.22,-2.2977,-2.3075,-2.298,-2.2628,-2.298,-2.304,-2.2628,-2.2628,-2.2628,-2.2628,-2.2235,-2.2011,-2.2011,-2.1788,-2.1663,-2.1737,-2.1526,-2.1451,-2.1628,-2.1225,-2.0877,-2.0522,-1.9776,-1.913,-1.8618,-1.8112,-1.808,-1.8267,-1.8302,-1.8015,-1.7523,-1.7368,-1.7202,-1.6989,0.0,0.0,0.0,0.0,0.0,0.0,0.0,-0.8102,-0.831,-0.8643,-0.9038,-0.954,-0.9902,-1.0268,-1.0335,-1.0179,-1.0329,-1.0703,-1.131,-1.1533,-1.2331,-1.3795,-1.453,-1.449,-1.38,-1.3947,-1.426,-1.4752,-1.4752,-1.5251,-1.6158,-1.6237,-1.6237,-1.6237,-1.6306,-1.6715,-1.7335,-1.7335,-1.8859,-2.125,-2.1502,-2.1553,-2.1616,0.0,0.0,0.0,0.0,0.0,0.0,0.0,0.0,0.0,0.0,0.0,0.0,0.0,0.0,0.0,0.0,0.0,0.0,0.0,0.0,0.0,0.0,0.0,0.0,0.0,0.0,0.0,0.0,0.0,0.0,0.0,0.0,0.0,-2.0222,-2.0467,-2.0403,-2.0467,-2.0482,-2.076,-2.1346,-2.1565,-2.1635,-2.1635,-2.1635,-2.1635,-2.1635,-2.1635,-2.1635,-2.1635,-2.1635,-2.1635,-2.1635,-2.0933,-2.0666,-2.0828,-2.0139,-1.9868,-2.0096,-2.0096,-2.0096,-2.0009,-1.8912,-1.8701,-1.9122,-1.7782,-1.7155,-1.72,-1.7444,-1.7246,-1.6765,-1.6775,-1.64,-1.5856,0.0,0.0,0.0,0.0,0.0,0.0,0.0,-0.7246,-0.7747,-0.8031,-0.8084,-0.8434,-0.9409,-0.903,-0.8925,-0.9359,-0.9416,-0.9567,-0.9685,-0.9888,-1.0378,-1.1077,-1.1384,0.0,-1.1236,-1.1367,-1.1586,-1.1736,-1.2271,-1.2785,-1.3201,-1.4314,-1.5046,-1.5321,-1.5869,-1.6289,-1.6576,-1.6576,-1.7051,-1.7842,-1.9727,-2.0782,-2.1279,0.0,0.0,0.0,0.0,0.0,0.0,0.0,0.0,0.0,0.0,0.0,0.0,0.0,0.0,0.0,0.0,0.0,0.0,0.0,0.0,0.0,0.0,0.0,0.0,0.0,0.0,0.0,0.0,0.0,0.0,0.0,0.0,-1.8007,-1.9267,-1.8992,-1.8859,-1.9333,-1.942,-1.9552,-1.9857,-1.9955,-2.0031,-2.0074,-2.0074,-2.0074,-2.0074,-2.0074,-2.0074,-2.0074,-2.0074,-2.0074,-2.0074,-1.9933,-1.9803,-1.9879,-1.9672,-1.9607,-1.9672,-1.9672,-1.942,-1.89,-1.8578,-1.8081,-1.7465,-1.709,-1.6568,-1.6066,-1.6487,-1.6312,-1.5748,-1.5594,-1.5245,-1.4845,0.0,0.0,0.0,0.0,0.0,0.0,0.0,-0.6501,-0.6791,-0.6667,-0.6663,-0.6814,-0.721,-0.6839,-0.6725,-0.7072,-0.7372,-0.7728,-0.8045,-0.8816,-0.9405,-0.9684,0.0,-0.9927,-1.0035,-1.0285,-1.0472,-1.065,-1.1117,-1.1413,-1.1552,-1.2325,-1.2931,-1.3368,-1.3996,-1.4641,-1.5226,-1.5446,-1.5737,-1.6158,-1.7784,-1.8649,-1.9093,-1.9291,-1.9357,-1.9422,-1.9564,-1.964,-1.964,-1.964,0.0,0.0,0.0,0.0,0.0,0.0,0.0,0.0,0.0,0.0,0.0,0.0,0.0,0.0,0.0,0.0,0.0,0.0,0.0,0.0,0.0,0.0,0.0,0.0,-1.725,-1.7204,-1.7996,-1.7734,-1.756,-1.7959,-1.8365,-1.8714,-1.8975,-1.9256,-1.9521,-1.9766,-1.9776,-1.9776,-1.9776,-1.9776,-1.9776,-1.9776,-1.9776,-1.9776,-1.9776,-1.9328,-1.9168,-1.9225,-1.8771,-1.8556,-1.8633,-1.8633,-1.8442,0.0,-1.8046,-1.7716,-1.7024,-1.6568,-1.6075,0.0,0.0,0.0,0.0,0.0,-1.4291,-1.3828,0.0,0.0,0.0,0.0,0.0,0.0,0.0,-0.5593,-0.5523,-0.4994,-0.5007,-0.4916,-0.4373,-0.4295,-0.429,-0.4278,-0.4876,-0.5473,-0.6169,-0.7691,-0.8519,-0.8669,-0.8725,-0.8929,-0.9275,-0.9681,-0.9996,-1.0366,-1.0528,-1.0606,-1.0679,-1.0526,-1.0732,-1.1121,-1.1596,-1.2452,-1.3397,-1.3962,-1.4593,-1.5305,-1.5508,-1.5869,-1.6298,-1.6298,-1.6306,-1.6376,-1.6724,-1.6862,-1.6862,-1.6862,0.0,0.0,0.0,0.0,0.0,0.0,0.0,0.0,0.0,0.0,0.0,0.0,0.0,0.0,0.0,0.0,0.0,0.0,0.0,0.0,0.0,0.0,0.0,0.0,-1.6821,-1.6377,-1.6709,-1.667,-1.665,-1.6605,-1.7361,-1.8006,-1.845,-1.9033,-1.9525,-1.9838,-1.9869,-1.9869,-1.9869,0.0,0.0,0.0,0.0,-1.994,-1.994,-1.9019,-1.856,-1.8742,-1.7697,-1.732,-1.7467,-1.7351,-1.7323,-1.7254,-1.7176,-1.7176,-1.7079,-1.6011,-1.5571,-1.5449,-1.5386,-1.5079,-1.4666,-1.4034,-1.3425,0.0,0.0,0.0,0.0,0.0,0.0,0.0,0.0,-0.3633,-0.3645,-0.3724,-0.3738,-0.3828,-0.3908,-0.3908,-0.3878,-0.3654,-0.3785,-0.393,-0.4119,-0.4571,-0.4975,-0.5332,-0.5202,-0.5533,-0.6336,-0.677,-0.726,-0.7706,-0.8927,-0.9575,-0.9732,-1.0402,-1.0773,-1.1005,-1.1039,-1.1177,-1.1389,-1.1633,-1.2124,-1.2771,-1.3084,-1.4371,-1.6079,-1.6228,-1.6306,-1.6298,-1.6376,-1.6446,-1.6446,-1.6446,-1.6446,-1.6515,-1.6446,0.0,0.0,0.0,0.0,0.0,0.0,0.0,0.0,0.0,0.0,0.0,0.0,0.0,0.0,0.0,0.0,0.0,0.0,0.0,0.0,-1.5019,-1.5423,-1.5786,-1.5851,-1.6563,-1.7011,-1.6838,-1.7009,-1.7243,-1.7658,-1.7842,-1.7944,-1.8017,-1.8017,-1.8017,-1.8017,-1.8017,0.0,-1.8017,-1.8017,-1.8091,-1.823,-1.8092,-1.8055,-1.8211,0.0,0.0,-1.7447,-1.6545,-1.6035,-1.5895,-1.5384,-1.51,-1.4942,-1.4814,-1.455,-1.4082,-1.3761,-1.3385,-1.3,-1.2818,-1.2458,-1.2042,0.0,0.0,0.0,0.0,0.0,0.0,0.0,-0.3124,-0.2968,-0.266,-0.266,-0.2504,-0.2271,-0.2271,-0.2339,-0.2235,-0.2633,-0.3077,-0.3495,-0.3585,-0.3834,-0.4206,-0.4211,-0.442,-0.5012,-0.5521,-0.5954,-0.6207,-0.7213,-0.7712,-0.7875,-0.8526,-0.8973,-0.9299,-0.9917,-1.0269,-1.0496,-1.0846,-1.1248,-1.155,-1.1947,-1.2844,-1.3918,-1.4656,-1.4903,-1.4927,-1.5314,-1.5371,-1.5404,-1.5585,-1.5806,-1.588,-1.5724,-1.5936,-1.6409,0.0,0.0,0.0,0.0,0.0,0.0,0.0,0.0,0.0,0.0,0.0,0.0,0.0,0.0,-1.5245,-1.5072,0.0,-1.4244,-1.4179,-1.4438,-1.4706,-1.502,-1.5374,-1.5891,-1.6933,-1.7137,-1.7138,-1.7141,-1.7098,-1.7012,-1.6789,-1.6719,-1.6719,-1.6719,-1.6719,-1.6719,-1.6719,-1.6719,-1.6797,-1.6868,-1.6693,-1.6679,-1.6757,-1.6313,-1.613,-1.6121,-1.5454,-1.5065,-1.4912,-1.4521,-1.4227,-1.4155,-1.3875,-1.3258,-1.2452,-1.2341,-1.2123,-1.1955,-1.1955,-1.1488,-1.0926,0.0,0.0,0.0,0.0,0.0,0.0,0.0,-0.2421,-0.2189,-0.1488,-0.1489,-0.1333,-0.0707,-0.0707,-0.0864,-0.0864,-0.1507,-0.2272,-0.2997,-0.3101,-0.3233,-0.3661,-0.364,-0.3814,-0.413,-0.4651,-0.5048,-0.5137,-0.5742,-0.6088,-0.6088,-0.6662,-0.7031,-0.7446,-0.84,-0.9119,-0.9606,-1.0126,-1.0509,-1.075,-1.1232,-1.1473,-1.1671,-1.2714,-1.3297,-1.3556,-1.4103,-1.4343,-1.4547,-1.4819,-1.515,-1.5312,-1.4987,-1.5435,-1.6057,-1.6198,-1.6513,0.0,0.0,0.0,0.0,0.0,0.0,0.0,0.0,0.0,-1.4903,-1.4321,-1.4358,-1.4372,-1.4036,-1.3831,-1.3667,-1.3667,-1.3642,-1.3735,-1.4211,-1.4125,-1.4761,-1.6475,-1.6894,-1.6842,-1.6484,-1.6437,-1.6308,-1.5913,-1.5846,-1.5846,-1.5846,-1.5846,-1.5846,-1.5846,-1.5846,-1.5928,-1.5928,-1.5582,-1.5453,-1.5526,-1.5121,-1.4892,-1.4877,-1.4395,-1.4134,-1.4111,-1.3719,-1.3498,-1.3433,-1.2631,-1.1773,-1.093,-1.0713,-1.0695,-1.0708,-1.0943,-1.0503,-0.986,0.0,0.0,0.0,0.0,0.0,0.0,0.0,0.0,-0.0157,0.047,0.0,-0.0471,-0.0628,-0.0628,-0.0628,-0.0628,-0.0919,-0.1055,-0.1205,-0.1382,-0.1712,-0.2115,-0.183,-0.2066,-0.2858,-0.3265,-0.3653,-0.4101,-0.5159,-0.5775,-0.5775,-0.6213,-0.6471,-0.6555,-0.6599,-0.6885,-0.7562,-0.7828,-0.866,-0.9715,-1.0115,-1.0595,-1.1146,-1.1726,-1.251,-1.3393,-1.3498,-1.3917,-1.4499,-1.4535,-1.4621,-1.4628,-1.4543,-1.4621,-1.4829,-1.551,0.0,-1.5145,-1.6435,-1.6098,-1.5187,-1.4532,-1.4275,-1.4198,0.0,0.0,-1.4733,-1.465,-1.4092,-1.3522,-1.349,-1.2826,-1.2248,-1.2248,-1.288,-1.3452,-1.3477,-1.4122,-1.4684,-1.4932,-1.5087,-1.5212,-1.5554,-1.5591,-1.5516,-1.547,-1.547,-1.547,-1.547,-1.547,-1.547,-1.547,-1.547,-1.5545,-1.5696,-1.5659,-1.5801,-1.5942,-1.5534,-1.5302,-1.528,-1.3985,-1.3348,-1.3092,-1.212,-1.17,-1.1626,-1.064,-1.0029,-0.9707,-0.8803,-0.8356,-0.8245,-0.9264,-0.9565,-0.938,0.0,0.0,0.0,0.0,0.0,0.0,0.0,0.0,0.0,0.1957,0.1723,0.141,0.1253,0.1096,0.1018,0.0861,0.0766,0.0608,0.0386,0.0308,0.0,-0.0407,-0.0252,-0.0345,-0.0707,-0.1517,-0.206,-0.2239,-0.3487,-0.4111,-0.4111,-0.4914,-0.5361,-0.5359,-0.6016,-0.6433,-0.6779,-0.7321,-0.7889,-0.8398,-0.9257,-0.9766,-1.01,-1.0516,-1.1271,-1.2088,-1.2845,-1.3279,0.0,0.0,-1.3872,-1.3872,-1.3872,-1.3872,-1.3892,-1.4262,-1.4124,0.0,-1.4608,-1.4671,-1.4348,0.0,-1.3444,-1.3081,-1.2553,-1.2917,-1.3197,-1.2778,-1.2443,-1.2192,-1.2192,-1.186,-1.1613,0.0,-1.1946,-1.2192,-1.2363,-1.2705,-1.3039,-1.3124,-1.3187,-1.3413,-1.4196,-1.421,-1.4041,-1.347,-1.3385,-1.3385,-1.3385,-1.3385,-1.3385,-1.3385,-1.3385,-1.3464,-1.3542,-1.3542,-1.362,-1.3698,-1.3497,-1.3438,-1.3342,-1.2113,-1.105,-1.0213,-0.9682,-0.9442,-0.9442,-0.9064,-0.8836,-0.8685,-0.8232,-0.8031,-0.7992,-0.8289,-0.8313,-0.8127,0.0,0.0,0.0,0.0,0.0,0.0,0.0,0.0,0.0,0.0,0.3049,0.2817,0.2582,0.2425,0.2189,0.2111,0.2,0.0,0.0,0.1473,0.1345,0.1089,0.0929,0.0862,0.0896,-0.009,-0.0628,-0.0628,-0.1612,-0.2239,-0.2419,-0.34,-0.3935,-0.4202,-0.5003,-0.5628,-0.5894,-0.6511,-0.6868,-0.7312,-0.8109,-0.864,-0.8815,-0.9336,-0.9946,-1.0702,-1.1893,-1.2498,0.0,0.0,-1.3039,-1.3039,-1.313,-1.3215,-1.3215,-1.3392,-1.3489,-1.3496,-1.2973,-1.3345,0.0,-1.2979,-1.2601,-1.2151,-1.145,-1.1735,-1.1946,-1.1435,-1.1262,-1.1262,-1.1262,-1.1262,-1.1262,-1.1262,-1.1262,-1.1348,-1.1527,-1.1613,-1.1613,-1.1785,-1.1785,-1.2032,-1.2778,-1.2948,-1.2705,-1.2043,-1.2043,-1.2043,-1.2043,-1.2043,-1.2043,-1.2043,-1.2043,-1.1866,-1.1596,-1.1596,-1.1505,-1.1246,-1.1246,-1.1246,-1.1235,-1.0219,-0.9215,-0.8186,-0.8134,-0.8051,-0.7999,-0.777,-0.7621,-0.7544,-0.7314,-0.7242,-0.7226,-0.6938,-0.7004,-0.7064,0.0,0.0,0.0,0.0,0.0,0.0,0.0,0.0,0.0,0.0,0.0,0.0,0.0,0.2582,0.2503,0.2503,0.2267,0.0,0.0,0.1917,0.1798,0.1927,0.154,0.1312,0.1341,0.0896,0.0628,0.0628,0.0179,-0.0448,-0.1166,-0.1612,-0.2238,-0.2956,-0.2956,-0.358,-0.4648,-0.4648,-0.5359,-0.6428,-0.6428,-0.6959,-0.7577,-0.8109,-0.8727,-0.9519,-1.0631,0.0,0.0,0.0,-1.2072,-1.2157,-1.2589,-1.276,0.0,-1.33,-1.3685,-1.3711,-1.1877,0.0,-1.3126,-1.1705,-1.1348,-1.1348,-1.1348,-1.1348,-1.1348,-1.1262,-1.1262,-1.1262,-1.1262,-1.1262,-1.1262,-1.1262,-1.1262,-1.1262,-1.1354,-1.1354,-1.1354,-1.1348,-1.1348,-1.1348,0.0,-1.178,-1.2043,-1.2043,-1.2043,-1.2043,-1.2043,-1.2043,-1.2043,-1.2043,-1.2043,-1.1591,-1.0611,-1.0611,-1.0173,-0.9296,-0.9296,-0.9296,-0.9291,-0.9016,-0.8634,-0.819,-0.8186,-0.8082,-0.7761,-0.6923,-0.6468,-0.6163,-0.5401,-0.5093,-0.5093,-0.4851,-0.553,-0.6504,0.0,0.0,0.0,0.0,0.0,0.0,0.0,0.0,0.0,0.0,0.0,0.0,0.0,0.0,0.0,0.0,0.0,0.0,0.0,0.3547,0.3441,0.328,0.3185,0.3083,0.3152,0.2311,0.1881,0.1881,0.0896,0.0358,0.009,-0.0358,-0.0716,-0.0984,-0.179,-0.2416,-0.2773,-0.3757,-0.4559,-0.527,-0.5711,-0.6245,-0.6782,-0.6959,-0.7136,-0.7489,0.0,0.0,0.0,-1.0631,-1.0631,-1.0717,-1.089,-1.089,-1.0977,-1.1068,-1.1348,-1.1537,-1.084,0.0,-1.1905,-1.1402,-1.1289,-1.1267,-1.1278,-1.1273,-1.1262,-1.1262,-1.1262,-1.1262,-1.1262,-1.1262,-1.1262,-1.1262,-1.1262,-1.1089,-1.0472,-1.0386,-1.012,-0.9506,-0.9419,0.0,0.0,0.0,0.0,-1.0641,-1.0028,-0.968,-0.968,-0.968,-0.968,-0.968,-0.968,-0.9501,-0.9235,-0.9235,-0.9056,-0.8707,-0.8707,-0.8444,-0.7826,-0.7662,-0.719,-0.6418,-0.6325,-0.6202,-0.5836,-0.5521,-0.5235,-0.5004,-0.4696,-0.4621,-0.4621,-0.454,-0.4748,-0.5089,0.0,0.0,0.0,0.0,0.0,0.0,0.0,0.0,0.0,0.0,0.0,0.0,0.0,0.0,0.0,0.0,0.0,0.0,0.0,0.0,0.5436,0.5159,0.5105,0.5047,0.516,0.4084,0.3576,0.3576,0.2506,0.1792,0.1344,0.1074,0.0626,0.0179,-0.0537,-0.1164,-0.1612,-0.2508,-0.3312,-0.4024,-0.4467,-0.5001,-0.5539,-0.5539,-0.5628,0.0,0.0,0.0,0.0,-0.9253,-0.9519,-0.9519,-0.9694,-0.9864,-1.0038,-1.0038,-1.0043,-1.013,-1.0226,-1.0304,-1.0477,-1.1152,-1.085,-1.0453,-1.0748,-1.0926,-1.1008,-1.0997,-1.1084,-1.1084,-1.1262,-1.0997,-1.0819,-1.1262,-1.0646,-1.0115,-0.985,-0.9501,-0.9065,-0.8356,-0.8269,-0.8273,0.0,0.0,0.0,-0.9331,-0.8807,-0.8544,-0.8544,-0.8452,-0.8364,-0.8364,-0.8273,-0.8093,-0.7746,-0.7746,-0.757,-0.7217,-0.7217,-0.6956,-0.6337,-0.634,-0.5933,-0.5287,-0.5212,-0.5032,-0.4846,-0.4806,-0.4663,-0.4437,-0.4084,-0.3915,-0.3915,-0.3522,-0.3366,-0.3444,0.0,0.0,0.0,0.0,0.0,0.0,0.0,0.0,0.0,0.0,0.0,0.0,0.0,0.0,0.0,0.0,0.0,0.0,0.0,0.0,0.0,0.7413,0.707,0.6963,0.7109,0.6062,0.5447,0.5447,0.4741,0.376,0.2597,0.2597,0.1971,0.0807,0.0807,0.009,-0.0987,-0.1076,-0.1792,-0.2868,-0.2868,-0.3224,-0.3849,-0.3849,0.0,0.0,0.0,0.0,0.0,-0.7848,-0.848,-0.8564,-0.8999,-0.9428,-0.9777,-0.9777,-0.9589,-0.9405,-0.9772,-0.9218,-0.9035,-1.0702,-0.9864,-0.8848,-0.9767,-1.0135,-1.0313,-1.0463,-1.0463,-1.0636,0.0,0.0,-0.9845,-1.0911,-0.9497,-0.844,-0.9318,-0.8707,-0.8002,0.0,0.0,0.0,0.0,0.0,0.0,-0.8189,0.0,-0.8277,-0.8277,-0.8185,-0.8002,-0.8002,-0.7819,-0.72,-0.6325,-0.6328,-0.5888,-0.501,-0.501,-0.501,-0.501,-0.501,-0.487,-0.4697,-0.4697,-0.4637,-0.4534,-0.4435,-0.4311,-0.4216,-0.3326,-0.2981,-0.2901,-0.1881,-0.1568,-0.1724,0.0,0.0,0.0,0.0,0.0,0.0,0.0,0.0,0.0,0.0,0.0,0.0,0.0,0.0,0.0,0.0,0.0,0.0,0.0,0.0,0.0,0.0,0.0,0.0,0.0,0.0,0.0,0.5891,0.5359,0.465,0.3851,0.3496,0.3138,0.278,0.1884,0.1076,0.0179,-0.0359,-0.1256,-0.2422,0.0,-0.2689,-0.3135,0.0,0.0,0.0,0.0,0.0,0.0,0.0,0.0,0.0,0.0,-0.7224,-0.7309,-0.7309,-0.7492,-0.7764,-0.7856,-0.8208,-0.8748,-0.9143,-0.8928,-0.8627,-0.8924,-0.8819,-0.8707,-0.8703,-0.879,-0.879,0.0,0.0,0.0,-0.8698,-0.8257,0.0,-0.7291,-0.7031,0.0,-0.58,0.0,-0.5714,-0.5802,-0.5539,0.0,0.0,-0.5894,-0.5894,-0.5894,-0.5805,-0.5802,-0.5802,-0.5714,-0.5625,-0.5361,-0.5361,-0.5275,-0.501,-0.501,-0.501,-0.501,-0.501,-0.4639,-0.3907,-0.3907,-0.3332,-0.2492,-0.2392,-0.228,-0.1993,-0.1786,-0.1689,-0.1605,-0.1262,-0.1097,-0.1019,0.0,0.0,0.0,0.0,0.0,0.0,0.0,0.0,0.0,0.0,0.0,0.0,0.0,0.0,0.0,0.0,0.0,0.0,0.0,0.0,0.0,0.0,0.0,0.0,0.0,0.0,0.0,0.0,0.0,0.0,0.5097,0.43,0.3765,0.3587,0.2691,0.1705,0.0718,0.0269,0.0,0.0,0.0,0.0,0.0,0.0,0.0,0.0,0.0,0.0,0.0,0.0,0.0,-0.5802,-0.6068,-0.616,-0.634,-0.6612,0.0,-0.6795,-0.6795,-0.7241,-0.7507,-0.6881,-0.6684,-0.6851,-0.7499,-0.7492,-0.7386,-0.7376,-0.7197,0.0,-0.7453,0.0,0.0,0.0,0.0,0.0,-0.6239,-0.5891,-0.5468,0.0,-0.4718,0.0,-0.4961,-0.4874,-0.4874,0.0,-0.497,-0.501,-0.501,-0.4966,-0.4901,-0.4901,-0.4809,-0.4698,-0.4654,-0.4654,-0.4476,-0.4117,-0.4117,-0.3758,-0.3307,-0.3307,-0.2935,-0.2382,0.0,-0.1943,-0.13,-0.1213,-0.1119,-0.0935,-0.0499,-0.033,-0.0246,0.0241,0.0398,0.0477,0.0,0.0,0.0,0.0,0.0,0.0,0.0,0.0,0.0,0.0,0.0,0.0,0.0,0.0,0.0,0.0,0.0,0.0,0.0,0.0,0.0,0.0,0.0,0.0,0.0,0.0,0.0,0.0,0.0,0.0,0.0,0.0,0.0,0.0,0.0,0.0,0.0,0.0,0.0,0.0,0.0,0.0,0.0,0.0,0.0,0.0,0.0,0.0,0.0,0.0,-0.3578,-0.4821,-0.5265,-0.5622,-0.5894,-0.6529,-0.6438,-0.6166,-0.6163,-0.6166,-0.5805,-0.463,-0.4271,-0.463,-0.5802,-0.6163,-0.616,-0.6142,0.0,-0.5797,-0.6596,-0.626,-0.6269,-0.7231,0.0,-0.4924,-0.5714,-0.5188,-0.4604,-0.4424,-0.4434,-0.4562,-0.484,-0.4569,-0.4474,-0.466,-0.4601,-0.46,-0.4961,-0.4869,-0.4734,-0.4547,-0.436,-0.4137,-0.3882,-0.3871,-0.3416,-0.2608,-0.2601,-0.2059,-0.1074,-0.1074,-0.0886,-0.061,0.0,0.0,-0.0435,-0.0261,-0.0261,-0.0174,0.0681,0.1013,0.1094,0.181,0.204,0.2035,0.0,0.0,0.0,0.0,0.0,0.0,0.0,0.0,0.0,0.0,0.6338,0.6338,0.0,0.0,0.0,0.0,0.0,0.0,0.0,0.0,0.0,0.0,0.0,0.0,0.0,0.0,0.0,0.0,0.0,0.0,0.0,0.0,0.0,0.0,0.0,0.0,0.0,0.0,0.0,0.0,0.0,0.0,0.0,0.0,0.0,0.0,0.0,0.0,0.0,0.0,-0.2419,-0.3314,-0.3582,-0.376,-0.3941,-0.4574,-0.4755,-0.4663,-0.4656,-0.4659,-0.4572,-0.4385,-0.4293,-0.4383,-0.4565,-0.4654,0.0,0.0,-0.4806,-0.4956,-0.4954,-0.4959,-0.5052,-0.4954,0.0,0.0,0.0,0.0,-0.4332,0.0,0.0,0.0,0.0,0.0,0.0,0.0,0.0,-0.273,-0.4618,-0.4635,-0.4261,-0.3311,-0.3311,-0.2645,-0.1506,-0.1574,-0.1377,-0.101,-0.1082,-0.0984,-0.0805,-0.0805,-0.0357,0.0445,0.0,0.0,0.1695,0.1695,0.1695,0.1691,0.183,0.19,0.1896,0.2192,0.2341,0.2339,0.0,0.0,0.0,0.0,0.0,0.0,0.0,0.6338,0.6338,0.6338,0.6338,0.6338,0.6338,0.6338,0.649,0.0,0.0,0.0,0.0,0.0,0.0,0.0,0.0,0.0,0.0,0.0,0.0,0.0,0.0,0.0,0.0,0.0,0.0,0.0,0.0,0.0,0.0,0.0,0.0,0.0,0.0,0.0,0.0,0.0,0.0,0.0,0.0,0.0,0.0,0.0,-0.1704,-0.2241,-0.269,-0.2601,-0.2601,-0.3948,-0.4342,-0.4104,-0.3095,-0.358,-0.4252,-0.3928,-0.4101,-0.4272,-0.4316,0.0,0.0,0.0,-0.4462,-0.4528,-0.4623,0.0,0.0,0.0,0.0,0.0,0.0,0.0,0.0,0.0,0.0,0.0,0.0,0.0,0.0,0.0,0.0,-0.1554,-0.2571,-0.2592,-0.2315,-0.1832,-0.1832,-0.144,-0.0666,-0.0754,-0.0469,0.0187,0.0092,0.0455,0.1001,0.099,0.1247,0.1764,0.1873,0.0,0.2475,0.2592,0.2603,0.2601,0.2486,0.2477,0.2557,0.2589,0.2737,0.2989,0.0,0.0,0.0,0.0,0.0,0.0,0.0,0.6338,0.6338,0.6338,0.6338,0.6338,0.6338,0.6338,0.6338,0.0,0.0,0.0,0.0,0.0,0.0,0.0,0.0,0.0,0.0,0.0,0.0,0.0,0.0,0.0,0.0,0.0,0.0,0.0,0.0,0.0,0.0,0.0,0.0,0.0,0.0,0.0,0.0,0.0,0.0,0.0,0.0,0.0,0.0,0.0,-0.1436,-0.1525,-0.2064,-0.1794,-0.1706,-0.3247,-0.3656,-0.3427,-0.2043,-0.273,-0.361,-0.327,-0.3539,-0.3896,-0.3741,-0.391,0.0,0.0,-0.4338,-0.4493,-0.4778,0.0,-0.4577,0.0,0.0,0.0,0.0,0.0,0.0,0.0,0.0,0.0,0.0,0.0,0.0,0.0,0.0,0.0,-0.0868,-0.0781,-0.059,-0.0394,-0.0394,-0.0195,0.0193,0.0192,0.0574,0.134,0.1313,0.1768,0.2701,0.2645,0.2686,0.2823,0.2858,0.0,0.0,0.2854,0.2963,0.3053,0.3053,0.3142,0.3224,0.3171,0.3324,0.3664,0.0,0.0,0.0,0.0,0.0,0.0,0.0,0.6338,0.6338,0.6338,0.6338,0.6338,0.6338,0.6338,0.6338,0.0,0.0,0.0,0.0,0.0,0.0,0.0,0.0,0.0,0.0,0.0,0.0,0.0,0.0,0.0,0.0,0.0,0.0,0.0,0.0,0.0,0.0,0.0,0.0,0.0,0.0,0.0,0.0,0.0,0.0,0.0,0.0,0.0,0.0,0.0,0.0,-0.1436,-0.1436,-0.1436,-0.144,-0.1743,0.0,0.0,-0.2268,-0.2093,-0.2002,-0.2471,-0.2659,-0.2468,-0.1894,0.0,0.0,-0.4452,-0.462,-0.4683,-0.4783,-0.4789,0.0,0.0,0.0,-0.3419,0.0,0.0,0.0,0.0,0.0,0.0,0.0,0.0,0.0,0.0,0.0,0.0,-0.0701,-0.0802,-0.0301,0.0603,0.0704,0.1206,0.251,0.2467,0.2543,0.2934,0.2878,0.2945,0.304,0.2978,0.2947,0.2939,0.0,0.0,0.0,0.2872,0.3141,0.3499,0.3499,0.3765,0.4208,0.42,0.4196,0.4285,0.0,0.0,0.0,0.0,0.0,0.0,0.6338,0.6338,0.6338,0.6338,0.6338,0.6338,0.6338,0.6338,0.6338,0.6338,0.0,0.0,0.0,0.0,0.0,0.0,0.0,0.0,0.0,0.0,0.0,0.0,0.0,0.0,0.0,0.0,0.0,0.0,0.0,0.0,0.0,0.0,0.0,0.0,0.0,0.0,0.0,0.0,0.0,0.0,0.0,0.0,0.0,0.0,0.0,0.0,-0.1436,-0.1436,0.0,0.0,-0.1479,-0.1605,-0.1902,-0.1747,-0.1674,-0.1947,-0.1941,-0.1935,-0.2103,0.0,-0.2858,-0.4292,-0.4164,-0.3629,-0.2941,-0.3365,-0.3778,0.0,0.0,0.0,0.0,0.0,0.0,0.0,0.0,0.0,0.0,0.0,0.0,0.0,0.0,0.0,0.1612,0.1612,0.1814,0.2219,0.2219,0.2522,0.3029,0.3304,0.3491,0.369,0.391,0.4068,0.4064,0.3989,0.4047,0.4045,0.0,0.0,0.0,0.3837,0.3899,0.4032,0.4032,0.4121,0.4387,0.483,0.5184,0.545,0.0,0.0,0.0,0.0,0.0,0.6338,0.6338,0.6338,0.6338,0.6338,0.6338,0.6338,0.6338,0.6338,0.6338,0.6338,0.6257,0.0,0.0,0.0,0.0,0.0,0.0,0.0,0.0,0.0,0.0,0.0,0.0,0.0,0.0,0.0,0.0,0.0,0.0,0.0,0.0,0.0,0.0,0.0,0.0,0.0,0.0,0.0,0.0,0.0,0.0,0.0,0.0,0.0,0.0,0.0,0.0,0.0,0.0,0.0,-0.1485,-0.1528,-0.1633,-0.1577,-0.1611,-0.159,-0.1585,-0.1678,0.0,0.0,-0.2037,-0.3396,-0.3433,-0.2967,-0.2175,-0.1999,-0.2107,-0.2377,0.0,-0.1262,-0.1228,0.0,0.0,0.0,0.0,0.0,0.0,0.0,0.0,0.0,0.0,0.0,0.0,0.3632,0.3632,0.343,0.3632,0.3632,0.3632,0.4033,0.4234,0.4232,0.4571,0.4738,0.4736,0.4745,0.4706,0.4703,0.0,0.0,0.0,0.457,0.4623,0.4652,0.4652,0.4831,0.528,0.5695,0.6215,0.6834,0.0,0.0,0.0,0.0,0.0,0.0,0.6338,0.6338,0.6338,0.6338,0.6338,0.6338,0.6338,0.6338,0.6338,0.6338,0.6022,0.0,0.0,0.0,0.0,0.0,0.0,0.0,0.0,0.0,0.0,0.2502,0.2057,0.0,0.0,0.0,0.0,0.0,0.0,0.0,0.0,0.0,0.0,0.0,0.0,0.0,0.0,0.0,0.0,0.0,0.0,0.0,0.0,0.0,0.0,0.0,0.0,-0.1436,-0.1441,0.0,-0.1408,-0.1437,-0.1563,-0.1594,-0.1617,-0.1616,-0.1616,-0.1616,0.0,0.0,-0.1612,-0.1612,-0.2421,-0.323,-0.323,-0.1007,0.0302,-0.0905,0.0396,0.0,0.1665,0.0,0.0,0.0,0.0,0.0,0.0,0.0,0.0,0.0,0.0,0.0,0.0,0.4734,0.4533,0.4033,0.4535,0.4734,0.4734,0.4834,0.4834,0.4834,0.4832,0.4832,0.483,0.4738,0.4698,0.0,0.0,0.0,0.0,0.4668,0.495,0.5422,0.5422,0.6175,0.7286,0.7047,0.7447,0.8332,0.0,0.0,0.0,0.0,0.0,0.0,0.0,0.6338,0.6338,0.6338,0.6338,0.6338,0.6338,0.6338,0.6338,0.6338,0.6022,0.0,0.0,0.0,0.0,0.0,0.0,0.0,0.0,0.0,0.2865,0.2057,0.1879,0.1432,0.0806,0.0,0.0,0.0,0.0,0.0,0.0,0.0,0.0,0.0,0.0,0.0,0.0,0.0,0.0,0.0,0.0,0.0,0.0,0.0,0.0,0.0,0.0,0.0,0.0,-0.1266,-0.1486,-0.1433,-0.1538,-0.1578,-0.1617,-0.1617,-0.1617,-0.1617,-0.1617,0.0,-0.0404,0.0,-0.0202,-0.0403,0.0,0.0504,0.0806,0.0705,0.0902,0.0,0.0,0.0,0.0,0.0,0.0,0.0,0.0,0.0,0.0,0.0,0.0,0.0,0.0,0.5135,0.5135,0.4533,0.4734,0.4834,0.4834,0.5133,0.5334,0.5336,0.5737,0.5934,0.5934,0.5899,0.0,0.0,0.0,0.0,0.0,0.6393,0.6631,0.6744,0.7299,0.7768,0.8135,0.8548,0.8898,0.9259,0.0,0.0,0.0,0.0,0.0,0.0,0.0,0.5318,0.5318,0.5318,0.5318,0.5318,0.5318,0.524,0.5237,0.5237,0.4924,0.0,0.0,0.0,0.0,0.0,0.0,0.0,0.0,0.2239,0.1791,0.0896,0.0717,0.0358,-0.0448,-0.0628,-0.0897,0.0,0.0,0.0,0.0,0.0,0.0,0.0,0.0,0.0,-0.1256,0.0,0.0,0.0,0.0,0.0,0.0,0.0,0.0,0.0,0.0,0.0,0.0,0.0,-0.0554,-0.0762,-0.1335,-0.1079,-0.0707,-0.0909,-0.0808,-0.0707,0.0,0.0,0.1312,0.1512,0.1511,0.1511,0.1612,0.1712,0.1913,0.2016,0.2216,0.0,0.0,0.0,0.0,0.0,0.0,0.0,0.0,0.0,0.0,0.0,0.0,0.0,0.0,0.5734,0.5734,0.5434,0.5434,0.5434,0.5434,0.5734,0.5934,0.5934,0.6237,0.6415,0.6374,0.6668,0.0,0.0,0.0,0.0,0.0,0.7531,0.7855,0.7959,0.8419,0.8979,0.9435,0.9732,1.0122,1.0546,0.0,0.0,0.0,0.0,0.0,0.0,0.0,0.383,0.383,0.3752,0.3752,0.3752,0.3752,0.3517,0.3359,0.3359,0.0,0.0,0.0,0.0,0.0,0.0,0.0,0.0,0.0,0.1075,0.0448,-0.0718,-0.0987,-0.1076,-0.1076,-0.1345,-0.1256,-0.1076,-0.1345,0.0,0.0,0.0,0.0,0.0,-0.1166,-0.1076,0.0,0.0,0.0,0.0,0.0,0.0,0.0,0.0,0.0,0.0,0.0,0.0,0.0,0.0,0.0,0.0,0.0,-0.0294,0.0808,0.0404,0.0706,0.0907,0.0504,0.0,0.0,0.2922,0.2819,0.2618,0.1912,0.2816,0.3521,0.302,0.4028,0.0,0.0,0.0,0.0,0.0,0.0,0.0,0.0,0.0,0.0,0.0,0.0,0.0,0.0,0.6537,0.6534,0.6534,0.6534,0.6537,0.6437,0.6437,0.6431,0.6423,0.6523,0.6462,0.6449,0.7121,0.0,0.0,0.0,0.0,0.0,0.8333,0.861,0.9068,0.9068,0.9815,1.0905,1.07,1.1207,1.2011,0.0,0.0,0.0,0.0,0.0,0.0,0.0,0.0,0.0,0.0,0.3517,0.3437,0.3281,0.3202,0.3202,0.0,0.0,0.0,0.0,0.0,0.0,0.0,0.0,0.0,0.0,0.009,-0.0269,-0.0718,-0.0987,-0.1076,-0.1076,-0.1345,-0.1256,-0.1076,-0.1345,-0.1436,0.0,0.0,0.0,0.0,-0.1076,-0.0987,0.0,0.0,0.0,0.0,-0.0269,-0.018,0.0,0.0,0.0,0.0,0.0,0.0,0.0,0.0,0.1474,0.1428,0.0476,0.0,0.2321,0.343,0.3732,0.3831,0.0,0.0,0.0,0.0,0.0,0.4228,0.4126,0.4329,0.4431,0.4331,0.4632,0.4834,0.0,0.0,0.0,0.0,0.0,0.0,0.0,0.0,0.0,0.0,0.0,0.0,0.0,0.7928,0.8226,0.8226,0.8226,0.763,0.6437,0.7033,0.7282,0.7085,0.7758,0.7873,0.7732,0.7921,0.0,0.0,0.0,0.0,0.9343,0.9908,1.0278,1.0371,1.1017,1.1482,1.1666,1.1699,1.1807,1.2032,0.0,0.0,0.0,0.0,0.0,0.0,0.0,0.0,0.0,0.0,0.0,0.2035,0.1957,0.1879,0.0,0.0,0.0,0.0,0.0,0.0,0.0,0.0,0.0,0.0,0.0,-0.0359,-0.0628,-0.0718,-0.1076,-0.1256,-0.1256,-0.1345,-0.1345,-0.1256,-0.1345,-0.1345,0.0,0.0,0.0,0.0,-0.0807,0.0,0.0,0.0,0.0,0.0,-0.009,0.0269,0.0,0.0628,0.1524,0.2773,0.0,0.0,0.0,0.0,0.2783,0.2954,0.327,0.3153,0.3123,0.4029,0.4535,0.4839,0.4834,0.0,0.0,0.0,0.0,0.5133,0.5133,0.5336,0.5436,0.5236,0.5336,0.0,0.0,0.0,0.0,0.0,0.0,0.0,0.0,0.0,0.0,0.0,0.0,0.0,0.0,0.9008,0.9501,0.9501,0.9501,0.8909,0.7531,0.7858,0.8077,0.8183,0.8493,0.8746,0.8762,0.9129,0.0,0.0,0.0,0.0,1.0442,1.0811,1.1174,1.1347,1.1798,1.2154,1.2337,1.2337,1.2411,1.2518,0.0,0.0,0.0,0.0,0.0,0.0,0.0,0.0,0.0,0.0,0.0,0.0,0.0,0.0,0.0,0.0,0.0,0.0,0.0,0.0,0.0,0.0,0.0,0.0,-0.009,-0.0449,-0.0718,-0.0718,-0.1166,-0.1345,-0.1345,-0.1345,-0.1345,-0.1436,-0.1345,-0.1256,0.0,0.0,0.0,0.0,-0.0448,0.0,0.0,0.0,0.0,0.0,0.0,0.0,0.0,0.1614,0.2777,0.43,0.43,0.0,0.0,0.0,0.0,0.0,0.5756,0.5163,0.4022,0.4022,0.4528,0.5035,0.5035,0.0,0.0,0.0,0.0,0.0,0.0,0.0,0.0,0.0,0.0,0.0,0.0,0.0,0.0,0.0,0.0,0.0,0.0,0.0,0.0,0.0,0.0,0.0,0.0,1.0079,1.0765,1.0765,1.0765,1.0284,0.9414,0.9162,0.9152,0.9473,0.9418,0.9505,0.9732,1.0365,1.0627,0.0,0.0,0.0,1.1499,1.1499,1.1757,1.21,1.21,1.2357,1.2705,1.2705,1.2856,1.3067,0.0,0.0,0.0,0.0,0.0,0.0,0.0,0.0,0.0,0.0,0.0,0.0,0.0,0.0,0.0,0.0,0.0,0.0,0.0,0.0,0.0,0.0,0.0,-0.009,-0.0359,-0.0538,-0.0718,-0.0718,-0.0987,-0.1166,-0.1166,-0.1166,-0.1256,-0.1436,-0.1256,-0.1166,-0.1076,0.0,0.0,-0.0448,-0.0448,0.0,0.0,0.0,0.0,0.0,0.0,0.0,0.0,0.2419,0.3403,0.43,0.43,0.0,0.0,0.0,0.0,0.0,0.4968,0.5457,0.5932,0.5932,0.6034,0.6137,0.6137,0.0,0.0,0.0,0.0,0.0,0.0,0.0,0.0,0.0,0.0,0.0,0.0,0.0,0.0,0.0,0.0,0.0,0.0,0.0,0.0,0.0,0.0,0.0,0.0,0.0,1.2462,1.2462,1.2462,1.2365,1.217,1.1439,1.0943,1.0681,1.1216,1.1351,1.1024,1.1116,1.1359,0.0,0.0,1.21,1.2534,1.2534,1.2534,1.2619,1.2619,1.2619,1.2705,1.2705,1.2729,1.2801,0.0,0.0,0.0,0.0,0.0,0.0,0.0,0.0,0.0,0.0,0.0,0.0,0.0,0.0,0.0,0.0,0.0,0.0,0.0,0.0,0.0,0.0,0.0,-0.009,-0.0359,-0.0448,-0.0628,-0.0718,-0.0807,-0.0897,-0.0897,-0.0897,-0.0897,-0.0987,-0.0897,-0.0807,-0.0718,-0.0628,-0.0359,-0.018,0.0,0.0,0.0,0.0,0.0,0.0,0.0,0.0,0.0,0.0,0.43,0.5015,0.5015,0.0,0.0,0.0,0.0,0.0,0.5635,0.5996,0.6437,0.6539,0.6639,0.6639,0.6639,0.0,0.0,0.0,0.0,0.0,0.0,0.0,0.0,0.0,0.0,0.0,0.0,0.0,0.0,0.0,0.0,0.0,0.0,0.0,0.0,0.0,0.0,0.0,0.0,0.0,1.3486,1.3624,1.3624,1.3624,1.3624,1.3227,1.2751,1.2122,1.2281,1.2473,1.2514,1.2376,1.2406,1.2574,0.0,1.2534,1.2705,1.2705,1.2705,1.2705,1.2705,1.2705,1.2705,1.2875,1.2881,1.2985,0.0,0.0,0.0,0.0,0.0,0.0,0.0,0.0,0.0,0.0,0.0,0.0,0.0,0.0,0.0,0.0,0.0,0.0,0.0,0.0,0.0,0.0,0.0,-0.009,-0.0359,-0.0359,-0.0448,-0.0628,-0.0628,-0.0628,-0.0628,-0.0718,-0.0718,-0.0718,-0.0628,-0.0538,-0.0359,-0.0359,-0.018,0.0,0.0,0.0,0.0,0.0,0.0,0.0,0.0,0.0,0.0,0.0,0.0,0.0,0.0,0.0,0.0,0.6048,0.6173,0.6293,0.6404,0.6437,0.6437,0.6742,0.0,0.6845,0.6842,0.0,0.0,0.0,0.0,0.0,0.0,0.0,0.0,0.0,0.0,0.0,0.0,0.0,0.0,0.0,0.0,0.0,0.0,0.0,0.0,0.0,0.0,0.0,0.0,0.0,1.4087,1.4292,1.4298,1.4298,1.4298,1.4298,1.3969,1.3333,1.3142,1.3203,1.3507,1.3308,1.3218,1.32,1.2988,1.2898,1.2898,1.2898,1.2898,1.2898,1.2898,1.2898,1.2984,1.3244,1.3416,1.3416,0.0,0.0,0.0,0.0,0.0,0.0,0.0,0.0,0.0,0.0,0.0,0.0,0.0,0.0,0.0,0.0,0.0,0.0,0.0,0.0,0.0,0.0,0.0,-0.009,-0.0359,-0.0359,-0.0448,-0.0448,-0.0448,-0.0448,-0.0448,-0.0628,-0.0718,-0.0718,-0.0538,-0.0448,-0.0359,-0.009,0.0,0.0,0.0,0.0,0.0,0.0,0.0,0.0,0.0,0.0,0.0,0.0,0.0,0.0,0.0,0.0,0.5926,0.6048,0.6173,0.6293,0.6404,0.6437,0.6437,0.6742,0.6845,0.0,0.7138,0.7138,0.0,0.0,0.0,0.0,0.0,0.0,0.0,0.0,0.0,0.0,0.0,0.0,0.0,0.0,0.0,0.0,0.0,0.0,0.0,0.0,0.0,0.0,0.0,0.0,0.0,1.4298,1.4298,1.4298,1.4298,1.4298,1.4165,1.3812,1.3794,1.3749,1.3513,1.3495,1.3483,1.3483,1.3465,1.3459,1.3459,1.3459,1.3459,1.3459,1.3459,1.3549,1.3826,1.4084,1.4167,1.4257,0.0,0.0,0.0,0.0,0.0,0.0,0.0,0.0,0.0,0.0,0.0,0.0,0.0,0.0,0.0,0.0,0.0,0.0,0.0,0.0,0.0,0.0,0.0,-0.009,-0.018,-0.018,-0.0269,-0.0359,-0.0269,-0.018,-0.018,-0.0269,-0.0269,-0.0269,-0.018,-0.018,-0.018,0.0,0.0,0.0,0.0,0.0359,0.0,0.0,0.0,0.0,0.0,0.0,0.0,0.0,0.5733,0.5746,0.5817,0.592,0.604,0.6162,0.6382,0.6586,0.6628,0.6739,0.6939,0.7244,0.7347,0.0,0.0,0.0,0.0,0.0,0.0,0.0,0.0,0.0,0.0,0.0,0.0,0.0,0.0,0.0,0.0,0.0,0.0,0.0,0.0,0.0,0.0,0.0,0.0,0.0,0.0,0.0,0.0,1.4292,1.4298,1.4298,1.4298,1.4298,1.425,1.4153,1.4153,1.4099,1.3996,1.3833,1.3853,1.4032,1.3774,1.3876,1.396,1.396,1.396,1.396,1.396,1.4057,1.4147,1.4411,1.4501,1.4501,0.0,0.0,0.0,0.0,0.0,0.0,0.0,0.0,0.0,0.0,0.0,0.0,0.0,0.0,0.0,0.0,0.0,0.0,0.0,0.0,0.0,0.0,0.0,0.0,0.0,0.0,-0.009,-0.0269,-0.009,0.0,0.0,0.0,0.0,0.0,0.0,0.0,0.0,0.0,0.018,0.0449,0.0449,0.0987,0.0,0.0,0.0,0.0,0.0,0.0,0.0,0.0,0.5757,0.5801,0.588,0.6013,0.6159,0.6341,0.6645,0.6845,0.6942,0.7039,0.7238,0.0,0.0,0.0,0.0,0.0,0.0,0.0,0.0,0.0,0.0,0.0,0.0,0.0,0.0,0.0,0.0,0.0,0.0,0.0,0.0,0.0,0.0,0.0,0.0,0.0,0.0,0.0,0.0,0.0,0.0,0.0,0.0,1.4298,1.4298,1.4298,1.4298,1.4394,1.4394,1.4394,1.4292,1.4111,1.4127,1.4309,1.4223,1.4228,1.4406,1.4498,1.459,1.459,1.4675,1.4675,1.4675,1.4858,1.5133,1.5497,0.0,0.0,0.0,0.0,0.0,0.0,0.0,0.0,0.0,0.0,0.0,0.0,0.0,0.0,0.0,0.0,0.0,0.0,0.0,0.0,0.0,0.0,0.0,0.0,0.0,0.0,0.0,0.0,0.0,0.0,0.0,0.0,0.0,0.0,0.0,0.0,0.0,0.0,0.0539,0.1436,0.1436,0.1973,0.3045,0.0,0.0,0.0,0.0,0.0,0.0,0.0,0.5809,0.5904,0.5904,0.6072,0.6365,0.6654,0.6744,0.6842,0.7138,0.7238,0.7238,0.0,0.0,0.0,0.0,0.0,0.0,0.0,0.0,0.0,0.0,0.0,0.0,0.0,0.0,0.0,0.0,0.0,0.0,0.0,0.0,0.0,0.0,0.0,0.0,0.0,0.0,0.0,0.0,0.0,0.0,0.0,0.0,0.0,1.4298,1.4298,1.4394,1.4688,1.4688,1.4592,1.4298,1.4298,1.4298,1.4298,1.4592,1.4694,1.4688,1.4981,1.5083,1.5178,1.5356,1.554,1.554,1.573,1.6487,1.7326,0.0,0.0,0.0,0.0,0.0,0.0,0.0,0.0,0.0,0.0,0.0,0.0,0.0,0.0,0.0,0.0,0.0,0.0,0.0,0.0,0.0,0.0,0.0,0.0,0.0,0.0,0.0,0.0,0.0,0.0,0.0,0.0,0.0,0.0,0.0,0.0359,0.0987,0.0987,0.1524,0.2419,0.2419,0.3045,0.3941,0.0,0.0,0.0,0.0,0.0,0.0,0.0,0.0,0.0,0.6563,0.6709,0.6863,0.7051,0.7211,0.7347,0.7444,0.7643,0.0,0.7842,0.0,0.0,0.0,0.0,0.0,0.0,0.0,0.0,0.0,0.0,0.0,0.0,0.0,0.0,0.0,0.0,0.0,0.0,0.0,0.0,0.0,0.0,0.0,0.0,0.0,0.0,0.0,0.0,0.0,0.0,0.0,0.0,1.4885,1.4885,1.4885,1.4987,1.4987,1.4981,1.4885,1.4885,1.4975,1.5159,1.5255,1.535,1.5452,1.5547,1.5547,1.5642,1.5642,1.573,1.5825,1.6574,1.7044,1.7419,0.0,0.0,0.0,0.0,0.0,0.0,0.0,0.0,0.0,0.0,-0.0707,-0.0628,0.0,0.0,0.0,-0.0168,-0.0084,0.0,0.0,0.0,0.0,0.0,0.0,0.0,0.0,0.0,0.0,0.0,0.0,0.0,0.0,0.0,0.0,0.0,0.0359,0.0898,0.1436,0.1793,0.2598,0.3494,0.3494,0.403,0.4837,0.0,0.0,0.0,0.0,0.0,0.0,0.0,0.0,0.0,0.6875,0.7009,0.7131,0.7316,0.7444,0.7646,0.7746,0.8237,0.0,0.8627,0.941,0.0,0.0,0.0,0.0,0.0,0.0,0.0,0.0,0.0,0.0,0.0,0.0,0.0,0.0,0.0,0.0,0.0,0.0,0.0,0.0,0.0,0.0,0.0,0.0,0.0,0.0,0.0,0.0,0.0,0.0,0.0,1.5083,1.5083,1.5172,1.5267,1.5267,1.5267,1.5363,1.5178,1.5178,1.5356,1.5445,1.5635,1.5832,1.5832,1.5832,1.5832,1.5832,1.5832,1.5845,1.6626,1.7421,1.827,0.0,0.0,-0.1335,-0.1335,0.0,0.0,0.0,0.0,0.0,-0.1261,-0.0867,-0.0631,0.0,0.0,0.0,0.0,0.0,0.0,0.0,0.0,0.0,0.0,0.0,0.0,0.0,0.0,0.0,0.0,0.0,0.0,0.0,0.0,0.009,0.018,0.0987,0.1436,0.1614,0.2598,0.3492,0.4387,0.4387,0.5015,0.5822,0.5994,0.0,0.0,0.0,0.0,0.0,0.0,0.0,0.0,0.7093,0.7226,0.7338,0.7543,0.7743,0.7842,0.8038,0.0,0.0,0.9702,1.0583,0.0,0.0,0.0,0.0,0.0,0.0,0.0,0.0,0.0,0.0,0.0,0.0,0.0,0.0,0.0,0.0,0.0,0.0,0.0,0.0,0.0,0.0,0.0,0.0,0.0,0.0,0.0,0.0,0.0,0.0,0.0,1.5178,1.5178,1.5267,0.0,1.554,1.5635,1.5832,1.5363,1.5178,1.5178,1.5452,1.5635,1.5832,1.5832,1.5832,1.5832,1.5832,1.5845,1.5994,1.6456,1.7905,1.9676,0.0,0.0,-0.1335,-0.1335,0.0,0.0,0.0,0.0,-0.1187,-0.1048,-0.0889,-0.0813,-0.058,-0.0415,0.0,-0.0259,-0.0086,0.0,0.0,0.0,0.0,0.0,0.0,0.0,0.0,0.0,0.0,0.0,0.0,0.0,0.0,0.0,0.0359,0.1077,0.1346,0.1793,0.2599,0.3583,0.4206,0.4652,0.5455,0.5902,0.6254,0.6343,0.6343,0.0,0.0,0.0,0.0,0.0,0.0,0.0,0.7607,0.772,0.7839,0.7939,0.8528,0.9217,0.9217,0.9998,0.0,0.0,1.1658,0.0,0.0,0.0,0.0,0.0,0.0,0.0,0.0,0.0,0.0,0.0,0.0,0.0,0.0,0.0,0.0,0.0,0.0,0.0,0.0,0.0,0.0,0.0,0.0,0.0,0.0,0.0,0.0,0.0,0.0,1.5642,1.5642,1.5642,1.5642,0.0,1.573,1.573,1.5832,1.5737,1.5642,1.5642,1.573,1.573,1.5832,1.5832,1.5832,1.5832,1.5832,1.6436,1.7507,1.8426,1.9765,2.1181,0.0,0.0,0.0,0.0,0.0,0.0,0.0,0.0,-0.1209,-0.099,-0.0827,-0.0748,-0.0505,-0.0253,0.0,0.0,-0.0087,0.0,0.0,0.0,0.0,0.0,0.0,0.0,0.0,0.0,0.0,0.0,0.0,0.0,0.0,0.0,0.0897,0.1436,0.1883,0.2688,0.3758,0.4295,0.4917,0.5539,0.6077,0.6343,0.6432,0.6523,0.0,0.0,0.0,0.0,0.0,0.0,0.0,0.0,0.0,0.0,0.8038,0.8038,0.8726,0.9608,0.9608,0.0,0.0,1.2538,0.0,0.0,0.0,0.0,0.0,0.0,0.0,0.0,0.0,0.0,0.0,0.0,0.0,0.0,0.0,0.0,0.0,0.0,0.0,0.0,0.0,0.0,0.0,0.0,0.0,0.0,0.0,1.5547,1.5635,0.0,1.5737,1.5832,1.5832,1.5832,1.5832,1.5832,1.5832,1.5832,1.5832,1.5832,1.5832,1.5832,1.5832,1.5832,1.5832,1.5832,1.5832,1.5825,1.6298,1.7049,1.8001,1.92,2.0545,2.1873,0.0,0.0,0.0,0.0,0.0,0.0,0.0,0.0,0.0,-0.1014,-0.0847,-0.0594,-0.0341,-0.0085,0.0,0.0,0.0,0.0,0.0,0.0,0.0,0.0,0.0,0.0,0.0,0.0,0.0,0.0,0.0,0.0,0.0,0.0,0.0,0.1973,0.2777,0.3758,0.4739,0.4917,0.545,0.6251,0.6428,0.6532,0.6557,0.0,0.0,0.0,0.0,0.7509,0.7655,0.7773,0.0,0.0,0.0,0.0,0.8233,0.8233,0.9118,1.0096,1.0096,0.0,1.3221,1.41,1.4298,0.0,0.0,0.0,0.0,0.0,0.0,0.0,0.0,0.0,0.0,0.0,0.0,0.0,0.0,0.0,0.0,0.0,0.0,0.0,0.0,0.0,0.0,0.0,0.0,0.0,1.5832,1.5832,1.5832,1.5832,1.5832,1.5832,1.5832,1.5832,1.5832,1.5832,1.5832,1.5832,1.5832,1.5832,1.5832,1.5832,1.5832,1.5832,1.5825,1.6021,1.6015,1.6211,1.7196,1.7976,1.8674,1.9781,2.1112,2.2484,0.0,0.0,0.0,0.0,0.0,0.0,0.0,0.0,0.0,0.0,-0.0867,-0.0611,-0.0444,-0.0178,0.0,0.0,0.0,0.0,0.0,0.0,0.0,0.0,0.0,0.0,0.0,0.0,0.0,0.0,0.0,0.0,0.0,0.0,0.0,0.3941,0.0,0.0,0.4739,0.5719,0.5894,0.5625,0.6435,0.6956,0.0,0.0,0.0,0.0,0.0,0.0,0.0,0.7804,0.7899,0.0,0.0,0.0,0.941,0.941,1.0779,1.2242,0.0,0.0,1.41,0.0,1.4298,1.4394,0.0,0.0,0.0,0.0,0.0,0.0,0.0,0.0,0.0,0.0,0.0,0.0,0.0,0.0,0.0,0.0,0.0,0.0,0.0,0.0,0.0,0.0,0.0,0.0,1.5832,1.5832,1.5832,1.5832,1.5832,1.5832,1.5832,1.5832,1.5832,1.5832,1.5832,1.5832,1.5832,1.5832,1.5832,1.5832,1.5832,1.5832,1.5825,1.6763,1.7138,1.7261,1.8558,1.9922,2.1066,2.1624,2.2707,2.3872,0.0,0.0,0.0,0.0,0.0,0.0,0.0,0.0,0.0,0.0,0.0,-0.0622,-0.0448,-0.018,0.0,0.0,0.0,0.0,0.0,0.0,0.0,0.0,0.0,0.0,0.0,0.0539,0.0808,0.0,0.0,0.0,0.0,0.2506,0.2864,0.0,0.0,0.0,0.0,0.0,0.6114,0.6545,0.6998,0.7272,0.0,0.0,0.0,0.0,0.0,0.0,0.0,0.0,0.0,0.8137,0.8726,0.0,0.0,0.0,1.156,0.0,1.3613,1.4196,1.4592,0.0,1.479,1.479,0.0,0.0,0.0,0.0,0.0,0.0,0.0,0.0,0.0,0.0,0.0,0.0,0.0,0.0,0.0,0.0,0.0,0.0,0.0,0.0,0.0,0.0,0.0,1.5832,1.5832,1.5832,1.5832,1.5832,1.5832,1.5832,1.5832,1.5832,1.5832,1.5832,1.5832,1.5832,1.5832,1.5832,1.6109,1.6669,1.6669,1.6943,1.7498,1.7963,1.8256,1.8628,1.9821,2.0889,2.1916,2.2673,2.3394,2.4152,0.0,0.0,0.0,0.0,0.0,0.0,0.0,0.0,0.0,0.0,0.0,-0.0628,-0.0448,0.0,0.0,0.0,0.0,0.0,0.0,0.0,0.0,0.0,0.0,0.0,0.0,0.0897,0.0,0.0,0.0,0.0,0.3933,0.4111,0.402,0.0,0.4912,0.0,0.0,0.0,0.0,0.0,0.0,0.0,0.0,0.0,0.0,0.0,0.0,0.0,0.0,0.0,0.0,0.0,0.0,0.0,0.0,0.0,0.0,0.0,0.0,0.0,1.4783,1.4987,1.5083,1.5083,0.0,0.0,0.0,0.0,0.0,0.0,0.0,0.0,0.0,0.0,0.0,0.0,0.0,0.0,0.0,0.0,0.0,0.0,0.0,0.0,0.0,0.0,0.0,1.5832,1.5832,1.5832,1.5832,1.5832,1.5832,1.5832,1.5832,1.5832,1.5832,1.5832,1.5832,1.5832,1.5832,1.5832,1.648,1.7692,1.7419,1.7878,1.8788,1.9063,1.9458,1.9886,2.0942,2.1856,2.2549,2.3356,2.3895,2.4152,0.0,0.0,0.0,0.0,0.0,0.0,0.0,0.0,0.0,0.0,0.0,-0.0718,-0.0718,-0.0269,0.0,0.0,0.0,0.0,0.0,0.0,0.0,0.0,0.0,0.0,0.0,0.0897,0.0,0.0,0.0,0.0,0.2058,0.5181,0.6166,0.5359,0.6254,0.678,0.7002,0.0,0.0,0.0,0.0,0.7675,0.0,0.0,0.0,0.0,0.0,0.0,0.0,0.0,0.0,0.0,0.0,0.0,0.0,0.0,0.0,0.0,0.0,1.4688,0.0,1.4987,0.0,0.0,0.0,0.0,0.0,0.0,0.0,0.0,0.0,0.0,0.0,0.0,0.0,0.0,0.0,0.0,0.0,0.0,0.0,0.0,0.0,0.0,0.0,0.0,0.0,1.5832,1.5832,1.5832,1.5832,1.5832,1.5832,1.5832,1.5832,1.5832,1.5832,1.5832,1.5832,1.5832,1.5832,1.5832,1.685,1.8696,1.7692,1.7878,1.888,1.9795,2.048,2.0967,2.229,2.3076,2.3487,2.3978,2.4134,2.4152,0.0,0.0,0.0,0.0,0.0,0.0,0.0,0.0,0.0,0.0,0.0,0.0,0.0,-0.0269,0.0,0.0,0.0,0.0,0.0,0.0,0.0,0.0,0.0,0.0,0.0,0.0,0.0,0.0,0.0,0.438,0.5003,0.5628,0.6207,0.674,0.7018,0.7232,0.7289,0.7478,0.0,0.0,0.7736,0.7824,0.0,0.0,0.0,0.0,0.0,0.0,0.0,0.0,0.0,0.0,0.0,0.0,0.0,0.0,0.0,0.0,0.0,0.0,0.0,1.5452,1.5553,0.0,0.0,0.0,0.0,0.0,0.0,0.0,0.0,0.0,0.0,0.0,0.0,0.0,0.0,0.0,0.0,0.0,0.0,0.0,0.0,0.0,0.0,0.0,0.0,0.0,1.5832,1.5832,1.5832,1.5832,1.5832,1.5832,1.5832,1.5832,1.5832,1.5832,1.5832,1.6109,1.6763,1.6763,1.787,1.9704,1.9338,1.9803,2.0718,2.1087,2.157,2.2272,2.2708,2.3354,2.395,2.4097,2.4152,2.4152,0.0,0.0,0.0,0.0,0.0,0.0,0.0,0.0,0.0,0.0,0.0,0.0,0.0,0.0,0.0,0.0,0.0,0.0,0.0,0.0,0.0,0.0,0.0,0.0,0.009,0.0,0.0,0.0,0.0,0.0,0.0,0.6117,0.6545,0.7373,0.7475,0.7519,0.0,0.0,0.0,0.7889,0.0,0.7946,0.8038,0.0,0.0,0.0,0.0,0.0,0.0,0.0,0.0,0.0,0.0,0.0,0.0,0.0,0.0,0.0,0.0,0.0,0.0,0.0,0.0,0.0,0.0,0.0,0.0,0.0,0.0,0.0,0.0,0.0,0.0,0.0,0.0,0.0,0.0,0.0,0.0,0.0,0.0,0.0,0.0,0.0,0.0,0.0,0.0,0.0,1.5979,1.5885,1.5832,1.5832,1.5832,1.5832,1.5832,1.5832,1.5832,1.5832,1.6109,1.6676,1.7326,1.7699,1.8703,2.0339,2.0339,2.0808,2.1741,2.1741,2.2135,2.2758,2.2802,2.3363,2.396,2.4106,2.4251,2.4341,0.0,0.0,0.0,0.0,0.0,0.0,0.0,0.0,0.0,0.0,0.0,0.0,0.0,0.0,0.0,0.0,0.0,0.0,0.0,0.0,0.0,0.0,0.0,0.009,0.0359,0.0,0.0,0.0,0.0,0.0,0.0,0.0,0.7377,0.7397,0.7682,0.7814,0.7818,0.0,0.7902,0.8038,0.0,0.8038,0.8038,0.0,0.0,0.0,0.9316,0.9706,0.0,0.0,0.0,0.0,0.0,0.0,0.0,0.0,0.0,0.0,0.0,0.0,0.0,0.0,0.0,0.0,1.5832,0.0,0.0,0.0,0.0,0.0,0.0,0.0,0.0,0.0,0.0,0.0,0.0,0.0,0.0,0.0,0.0,0.0,0.0,0.0,0.0,0.0,0.0,1.6286,1.6286,1.6005,1.5838,1.5832,1.5832,1.5832,1.5832,1.5832,1.5825,1.5832,1.6864,1.7326,1.7419,1.8427,1.9438,2.0357,2.0357,2.0925,2.1768,2.1759,2.1988,2.2392,2.2711,2.3112,2.3611,2.4005,2.4341,2.4529,0.0,0.0,0.0,0.0,0.0,0.0,0.0,0.0,0.0,0.0,0.0,0.0,0.0,0.0,0.0,0.0,0.0,0.0,0.0,0.0,0.0,0.0,0.018,0.0359,0.0359,0.0,0.0,0.0,0.0,0.0,0.0,0.0,0.0,0.0,0.7773,0.7872,0.7977,0.7977,0.0,0.0,0.8038,0.8038,0.0,0.0,0.0,0.0,0.0,1.195,0.0,0.0,1.4004,1.449,0.0,0.0,0.0,0.0,0.0,0.0,1.5737,0.0,0.0,0.0,0.0,0.0,1.5832,1.5832,0.0,0.0,0.0,0.0,0.0,0.0,0.0,0.0,0.0,0.0,0.0,0.0,0.0,0.0,0.0,0.0,0.0,0.0,0.0,0.0,1.6627,1.6587,1.6587,1.6313,1.6052,1.5838,1.5832,1.5832,1.5832,1.5832,1.6204,1.6857,1.7138,1.8056,1.9521,1.9795,2.0585,2.178,2.178,2.2052,2.2593,2.2291,2.241,2.2729,2.3226,2.3629,2.3996,2.4304,2.443,2.4538,0.0,0.0,-0.6962,-0.634,0.0,0.0,-0.634,0.0,0.0,0.0,0.0,0.0,0.0,0.0,0.0,0.0,0.0,0.0,0.0,0.0,0.009,0.018,0.0359,0.0448,0.0718,0.0,0.0,0.0,0.0,0.0,0.0,0.0,0.0,0.0,0.7879,0.0,0.0,0.0,0.0,0.0,0.8038,0.0,0.0,0.9509,0.9998,0.0,0.0,0.0,1.3414,1.4496,1.5077,0.0,0.0,0.0,0.0,0.0,0.0,0.0,0.0,0.0,0.0,0.0,0.0,0.0,1.5832,1.5832,1.5832,0.0,0.0,0.0,0.0,0.0,0.0,0.0,0.0,0.0,0.0,0.0,0.0,0.0,0.0,0.0,0.0,0.0,0.0,1.7074,1.6961,1.6834,1.6714,1.6433,1.6192,1.6019,1.5892,1.5832,1.5832,1.6204,1.6763,1.7333,1.8149,1.9236,2.0589,2.0954,2.1633,2.2584,2.2584,2.2637,2.2942,2.2962,2.2971,2.2902,2.3391,2.3684,2.3923,2.4285,2.444,2.4529,0.0,0.0,-0.7139,-0.7139,-0.7139,-0.7139,0.0,0.0,0.0,0.0,0.0,0.0,0.0,0.0,0.0,0.0,0.0,0.0,0.0,0.0,0.018,0.0359,0.0448,0.0718,0.1256,0.2244,0.0,0.0,0.0,0.0,0.0,0.0,0.0,0.0,0.7977,0.8038,0.0,0.0,0.0,0.8038,0.8137,0.8825,0.0,0.0,1.0974,0.0,1.3221,1.3709,1.3902,1.4879,1.5363,0.0,0.0,0.0,0.0,0.0,1.5832,0.0,0.0,0.0,0.0,0.0,0.0,0.0,1.5832,1.5832,1.5832,0.0,0.0,0.0,0.0,0.0,0.0,0.0,0.0,0.0,0.0,0.0,0.0,0.0,0.0,0.0,0.0,1.7582,1.7582,1.7582,1.7341,1.7068,1.6774,1.6513,1.6359,1.6326,1.6128,1.6082,1.6116,1.7015,1.7579,1.7804,1.9553,2.0658,2.1188,2.2023,2.2621,2.3024,2.3015,2.3043,2.3211,2.3762,2.3669,2.3061,2.3455,2.3708,2.3754,2.4122,2.4449,2.4627,-0.7139,-0.7139,-0.7139,-0.7139,-0.7139,-0.7139,-0.7139,0.0,0.0,0.0,0.0,0.0,0.0,0.0,0.0,0.0,0.0,0.0,0.0,0.018,0.0359,0.0359,0.0718,0.1345,0.2239,0.3456,0.458,0.0,0.0,0.0,0.0,0.0,0.0,0.0,0.8024,0.8038,0.0,0.0,0.0,0.8432,0.9213,0.0,1.0096,1.2047,1.2926,1.3318,1.4394,1.4975,1.5153,0.0,1.5737,1.573,0.0,0.0,0.0,0.0,0.0,0.0,0.0,0.0,0.0,0.0,0.0,0.0,1.5832,1.5832,1.5832,0.0,0.0,0.0,0.0,0.0,0.0,0.0,0.0,0.0,0.0,0.0,0.0,0.0,0.0,0.0,0.0,1.7582,1.7582,1.7582,1.7528,1.7368,1.7081,1.7007,1.6867,1.6627,1.7113,1.7556,1.7898,1.8583,1.9533,2.069,2.107,2.169,2.2541,2.2907,2.3316,2.3725,2.3916,2.42,2.451,2.4683,2.4281,2.3762,2.4365,2.4613,2.4622,2.5001,2.5137,2.5137,-0.652,-0.6428,-0.6251,-0.5802,-0.5714,-0.5733,-0.5703,0.0,0.0,0.0,0.0,0.0,0.0,0.0,0.0,0.0,0.0,0.0,0.0,0.0,0.0278,0.0555,0.0833,0.1572,0.2769,0.3912,0.505,0.0,0.0,0.0,0.0,0.0,0.0,0.0,0.0,0.0,0.0,0.0,0.8137,0.8531,0.9608,0.0,1.117,1.3011,1.3992,1.4573,1.5261,1.5547,1.5635,1.5737,1.5832,0.0,0.0,1.5832,1.5832,0.0,1.5832,1.5832,0.0,0.0,0.0,1.5832,0.0,0.0,0.0,1.5832,1.5832,1.5832,0.0,0.0,0.0,0.0,0.0,0.0,0.0,0.0,0.0,0.0,0.0,0.0,0.0,0.0,0.0,1.7582,1.7582,1.7582,1.7582,1.7515,1.7375,1.7736,1.7883,1.7722,1.8505,1.8993,1.9161,2.0046,2.0811,2.1483,2.1977,2.2568,2.3149,2.333,2.3647,2.4045,2.4143,2.4361,2.4538,2.4637,2.4613,2.4453,2.4758,2.4932,2.4932,2.503,2.5137,2.5137,-0.5908,-0.5738,-0.5394,-0.4495,-0.4328,-0.4274,-0.4346,0.0,0.0,0.0,0.0,0.0,0.0,0.0,0.0,0.0,0.0,0.0,0.0,0.0,0.0381,0.0763,0.1048,0.1903,0.3327,0.4387,0.5443,0.6487,0.0,0.0,0.0,0.0,0.0,0.0,0.0,0.0,0.0,0.0,0.0,0.8528,0.0,1.0877,1.2242,1.3686,1.4758,1.554,1.573,1.5832,1.5832,1.5832,0.0,1.5832,1.5832,1.5832,0.0,0.0,0.0,0.0,0.0,0.0,0.0,0.0,0.0,1.5832,0.0,0.0,0.0,1.5832,0.0,0.0,0.0,0.0,0.0,0.0,0.0,0.0,0.0,0.0,0.0,0.0,0.0,0.0,0.0,1.7582,1.7582,1.7582,1.7582,1.7582,1.7582,1.8377,1.8847,1.8847,1.9826,2.0362,2.0435,2.1437,2.1926,2.1996,2.279,2.3354,2.3657,2.3657,2.3938,2.4251,2.435,2.435,2.4449,2.4637,2.4833,2.5039,2.503,2.5039,2.503,2.503,2.503,2.503,-0.576,-0.5716,-0.5512,-0.4501,-0.4382,-0.4344,-0.4354,0.0,0.0,0.0,0.0,0.0,0.0,0.0,0.0,0.0,0.0,0.0,0.0,0.0,0.0,0.0763,0.2093,0.3327,0.4371,0.5603,0.6623,0.7591,0.0,0.0,0.0,0.0,0.0,0.0,0.8038,0.0,0.0,0.0,0.8333,0.0,1.0096,1.1365,0.0,1.4758,1.5635,1.5737,1.5825,1.5832,1.5832,0.0,1.5832,1.5832,0.0,1.5832,0.0,0.0,0.0,0.0,0.0,0.0,0.0,0.0,1.5832,0.0,0.0,0.0,1.5832,1.5832,0.0,0.0,0.0,0.0,0.0,0.0,0.0,0.0,0.0,0.0,0.0,0.0,0.0,0.0,0.0,0.0,1.7582,1.7582,1.7582,1.7582,1.7582,1.8575,1.9169,1.9169,2.0764,2.1849,2.2189,2.2957,2.3453,2.3916,2.4015,2.4042,2.4088,2.4267,2.4393,2.444,2.4735,2.4941,2.5137,2.5235,2.5342,2.5635,2.5342,2.544,2.5635,2.5635,2.5635,2.5635,-0.5031,-0.4537,-0.3852,-0.2819,-0.2745,-0.2676,0.0,0.0,0.0,0.0,0.0,0.0,0.0,0.0,0.0,0.0,0.0,0.0296,0.0,0.0,0.0,0.0,0.2166,0.344,0.4714,0.5839,0.6857,0.7943,0.8007,0.0,0.0,0.0,0.0,0.0,0.8137,0.0,0.8038,0.0,0.0,0.0,0.0,0.0,0.0,1.4286,1.5255,1.5832,1.5832,1.5832,1.5832,0.0,1.5832,0.0,0.0,0.0,0.0,0.0,0.0,0.0,0.0,0.0,0.0,0.0,0.0,0.0,0.0,0.0,1.5879,0.0,0.0,0.0,0.0,0.0,0.0,0.0,0.0,0.0,0.0,0.0,0.0,0.0,0.0,0.0,0.0,0.0,0.0,0.0,0.0,1.7582,1.7582,1.9235,2.0158,2.0158,2.2155,2.3368,2.3438,2.3781,2.3987,2.4152,2.4152,2.4251,2.4341,2.444,2.4529,2.4735,2.4833,2.4932,2.5039,2.5039,2.5235,2.544,2.5333,2.544,2.5742,2.5742,2.5742,2.5742,-0.4043,0.0,0.0,0.0,0.0,0.0,0.0,0.0,0.0,0.0,0.0,0.0,0.0,0.0,0.0,0.0,0.0303,0.0404,0.0,0.0,0.1111,0.0,0.0,0.0,0.0,0.6331,0.7238,0.8038,0.8038,0.0,0.0,0.0,0.0,0.0,0.0,0.8134,0.8038,0.0,0.0,0.8825,1.0002,1.1365,1.2829,1.419,1.5159,1.5832,1.5832,1.5832,1.5832,1.5832,1.5832,0.0,1.5832,0.0,0.0,0.0,0.0,0.0,1.5832,0.0,0.0,0.0,0.0,0.0,0.0,0.0,0.0,0.0,0.0,0.0,0.0,0.0,0.0,0.0,0.0,0.0,0.0,0.0,0.0,0.0,0.0,0.0,0.0,0.0,0.0,0.0,0.0,0.0,1.7694,1.9857,2.0987,2.0987,2.3129,2.4251,2.4251,2.4251,2.435,2.435,2.435,2.444,2.4637,2.4637,2.4735,2.4932,2.4932,2.4932,2.5039,2.5039,2.5137,2.544,2.544,2.5538,2.5742,2.5742,2.5742,2.5742,-0.2941,-0.2834,0.0,0.0,0.0,0.0,0.0,0.0,0.0,0.0,0.0,0.0,0.0,0.0,0.0,0.0,0.0,0.0707,0.0404,0.0,0.1918,0.0,0.0,0.5227,0.0,0.0,0.7939,0.8038,0.0,0.0,0.0,0.0,0.0,0.0,0.0,0.8038,0.8038,0.8531,0.8627,0.8531,0.9327,1.089,1.2926,0.0,1.5737,1.5832,1.5832,0.0,0.0,1.5832,1.5832,0.0,0.0,0.0,0.0,0.0,0.0,0.0,0.0,0.0,0.0,1.5832,0.0,0.0,0.0,0.0,1.6339,0.0,0.0,0.0,0.0,0.0,0.0,0.0,0.0,0.0,0.0,0.0,0.0,0.0,0.0,0.0,0.0,0.0,0.0,0.0,0.0,0.0,1.8016,2.0063,2.1285,2.1285,2.3229,2.4251,2.4538,2.4538,2.4637,2.4833,2.4833,2.4833,2.4932,2.4932,2.4932,2.4932,2.4932,2.5039,2.5333,2.5333,2.544,2.5645,2.5645,2.5732,2.5742,2.5742,2.5742,2.5742,-0.2796,0.0,0.0,0.0,0.0,0.0,0.0,-0.0303,0.0,0.0,0.0,0.0,0.0,0.0,0.0101,0.0,0.0,0.0808,0.0707,0.1917,0.0,0.0,0.0,0.6032,0.0,0.0,0.0,0.0,0.0,0.0,0.0,0.0,0.0,0.0,0.0,0.8432,0.0,0.0,0.0,0.0,0.0,1.2052,1.2829,0.0,0.0,1.5832,1.5832,1.5832,0.0,1.5832,1.5832,1.5832,1.5832,1.5832,1.5832,1.5832,1.5832,0.0,0.0,0.0,1.5832,1.5832,0.0,0.0,0.0,0.0,0.0,0.0,0.0,0.0,0.0,0.0,0.0,0.0,0.0,0.0,0.0,0.0,0.0,0.0,0.0,0.0,0.0,0.0,0.0,0.0,0.0,0.0,0.0,2.0475,2.1591,2.2391,2.3719,2.4538,2.4735,2.4735,2.4833,2.4932,2.4932,2.503,2.5137,2.5137,2.5235,2.544,2.544,2.544,2.5538,2.5538,2.5635,2.5742,2.5742,2.5742,2.5742,2.5742,2.5742,2.5742,-0.2016,0.0,0.0,0.0,0.0,0.0,0.0,0.0,0.0,0.0,0.0,0.0,0.0,0.0,0.0202,0.0,0.0707,0.1111,0.1513,0.2621,0.0,0.4024,0.5532,0.0,0.0,0.0,0.0,0.0,0.0,0.8038,0.0,0.0,0.0,0.0,0.0,0.0,0.8432,0.0,0.9331,0.0,0.0,1.2339,0.0,0.0,1.428,1.5832,0.0,1.5832,1.5832,1.5832,1.5832,1.5832,1.5832,1.5832,1.5832,1.5832,1.5832,1.5832,1.5832,1.5905,0.0,1.5985,1.6206,0.0,1.656,0.0,0.0,0.0,0.0,0.0,0.0,0.0,0.0,0.0,0.0,0.0,0.0,1.7582,0.0,0.0,0.0,0.0,0.0,0.0,0.0,0.0,0.0,0.0,0.0,0.0,2.2299,2.3003,2.4016,2.4627,2.5039,2.5039,2.5128,2.5137,2.5137,2.5137,2.5333,2.5333,2.543,2.5538,2.5635,2.5742,2.5742,2.5742,2.5742,2.5742,2.5742,2.5742,2.5742,2.5742,2.5742,2.5742,-0.0606,-0.0606,0.0,0.0,-0.0505,0.0,0.0,0.0,0.0,0.0,0.0,0.0,0.0,0.0202,0.0404,0.0404,0.0909,0.0,0.2719,0.3122,0.0,0.0,0.6437,0.6936,0.7939,0.0,0.0,0.0,0.0,0.0,0.0,0.0,0.0,0.0,0.8333,0.0,0.8432,0.9034,0.9236,0.943,1.0788,1.1853,1.2926,1.4004,0.0,1.5832,1.5832,1.5832,1.5832,1.5832,1.5832,1.5832,1.5832,1.5832,1.5832,1.5832,1.5832,1.5832,1.5845,1.6059,1.6279,1.6293,0.0,0.0,0.0,0.0,1.7248,0.0,0.0,0.0,0.0,0.0,0.0,0.0,0.0,0.0,0.0,0.0,0.0,0.0,0.0,0.0,0.0,0.0,0.0,0.0,0.0,0.0,0.0,0.0,2.3329,2.3429,2.4134,2.4833,2.5333,2.5333,2.544,2.5635,2.544,2.5333,2.5333,2.5333,2.5333,2.5333,2.5635,2.5742,2.5742,2.5742,2.5742,2.5742,2.5742,2.5742,2.5742,2.5742,2.5742,2.5742,-0.0505,-0.0303,-0.0202,0.0,-0.0101,-0.0101,0.0,0.0,0.0,0.0,0.0,0.0,0.0,0.0202,0.0505,0.0707,0.1715,0.0,0.0,0.0,0.0,0.6337,0.7135,0.7739,0.8038,0.8038,0.0,0.8038,0.0,0.0,0.8038,0.0,0.0,0.0,0.0,0.0,0.8726,0.9229,0.9916,1.0788,1.1853,1.2926,0.0,0.0,1.554,1.5832,1.5832,1.5832,1.5832,1.5832,1.5832,1.5832,1.5832,1.5832,1.5832,1.5832,1.5832,1.5879,1.6099,1.6213,1.6326,1.654,1.682,1.7054,0.0,0.0,0.0,0.0,0.0,0.0,0.0,0.0,0.0,0.0,0.0,0.0,0.0,0.0,0.0,0.0,0.0,0.0,0.0,0.0,0.0,0.0,0.0,0.0,0.0,0.0,0.0,2.4735,2.5039,2.5235,2.5635,2.5635,2.5538,2.544,2.5538,2.5538,2.5342,2.5538,2.5635,2.5635,2.5635,2.5742,2.5742,2.5742,2.5742,2.5742,2.5742,2.5742,2.5742,2.5742,2.5742,2.5742,-0.0202,-0.0101,0.0,0.0,0.0,0.0,0.0,0.0,0.0,0.0,0.0,0.0,0.0202,0.0807,0.1412,0.1613,0.2919,0.0,0.4528,0.0,0.0,0.7039,0.764,0.8038,0.8038,0.8038,0.0,0.8038,0.0,0.0,0.8038,0.0,0.0,0.0,0.0,0.8726,0.0,0.9327,0.9916,1.0592,1.215,0.0,0.0,1.5248,1.5832,1.5832,1.5832,1.5832,1.5832,1.5832,1.5832,1.5832,1.5832,1.5832,1.5852,1.5985,1.6019,1.6086,1.6386,1.6553,1.6693,1.686,1.7121,1.7335,1.7335,1.7462,1.7582,0.0,0.0,0.0,0.0,0.0,0.0,0.0,0.0,0.0,0.0,0.0,0.0,0.0,0.0,0.0,0.0,0.0,0.0,0.0,0.0,0.0,0.0,0.0,0.0,2.5235,2.5333,2.544,2.5742,2.5742,2.5635,2.544,2.5538,2.544,2.5342,2.544,2.5538,2.5538,2.5645,2.5742,2.5742,2.5742,2.5625,2.543,2.5234,2.5156,2.5156,2.5156,2.5283,2.542,0.0,0.0,0.0,0.0,0.0,0.0,0.0,0.0101,0.0,0.0,0.0,0.0303,0.0606,0.1813,0.2717,0.302,0.0,0.5427,0.6334,0.6537,0.7036,0.7942,0.8038,0.8038,0.8038,0.8038,0.0,0.0,0.0,0.0,0.0,0.0,0.0,0.0,0.0,0.0,0.0,0.9351,0.9661,0.0,1.2031,1.2921,1.3213,1.5159,1.5945,1.5945,1.5945,1.5892,1.5832,1.5832,1.5852,1.5885,1.5885,1.5912,1.5992,1.6253,1.6333,1.6393,1.6687,1.6954,1.7161,1.7194,1.7395,1.7582,1.7582,1.7582,1.7582,1.7582,1.7582,1.7582,0.0,0.0,0.0,0.0,0.0,0.0,0.0,0.0,0.0,0.0,0.0,0.0,0.0,0.0,0.0,0.0,0.0,0.0,0.0,0.0,0.0,2.5333,2.5333,0.0,2.5742,0.0,2.5635,2.5645,2.544,2.5333,2.5333,2.5333,2.5333,2.5342,2.5635,2.5703,2.5644,2.5644,2.5381,2.4941,2.456,2.4414,2.4414,2.4355,2.457,2.4853,0.0,0.0,0.0,0.0,0.0,0.0303,0.1211,0.0606,0.0,0.0,0.1008,0.1712,0.1712,0.3118,0.4019,0.4121,0.5327,0.0,0.0,0.0,0.0,0.8038,0.8038,0.8038,0.8038,0.8038,0.8038,0.0,0.0,0.0,0.0,0.0,0.0,0.0,0.0,0.0,0.9141,0.938,0.0,1.1253,1.2734,1.3825,1.4731,1.605,1.6553,1.6553,1.6553,1.6239,1.5832,1.5832,1.5992,1.6192,1.6192,1.6359,1.656,1.6613,1.6627,1.6693,1.6987,1.7108,1.7208,1.7442,1.7549,1.7582,1.7582,1.7582,1.7582,1.7582,1.7582,1.7582,1.7582,0.0,0.0,0.0,0.0,0.0,0.0,0.0,0.0,0.0,0.0,0.0,0.0,0.0,0.0,0.0,0.0,0.0,0.0,0.0,0.0,0.0,0.0,0.0,0.0,0.0,0.0,2.5333,2.5538,2.5538,2.5342,2.5538,2.5635,2.5635,2.5635,2.5527,2.5185,2.5185,2.4932,2.4521,2.4443,2.4414,2.4375,2.4033,2.3945,2.4053,0.0,0.0,0.0,0.0,0.0,0.0,0.0,0.1411,0.0,0.1813,0.2415,0.2917,0.3217,0.4422,0.5325,0.5427,0.6534,0.7238,0.7238,0.7811,0.816,0.816,0.8228,0.0,0.8269,0.8269,0.8269,0.8269,0.0,0.0,0.0,0.0,0.0,0.0,0.0,0.8809,0.0,0.0,0.0,1.0852,1.2074,1.2828,1.3443,1.4564,1.4969,1.4969,1.5582,1.5613,1.549,1.6084,1.638,1.65,1.65,1.6593,1.6734,1.6894,1.6934,1.7001,1.7295,1.7375,1.7408,1.7549,1.7582,1.7582,1.7582,1.7582,1.7582,1.7582,1.7582,1.7582,1.7582,1.7582,0.0,0.0,0.0,0.0,0.0,0.0,0.0,0.0,0.0,0.0,0.0,0.0,0.0,0.0,0.0,0.0,0.0,0.0,0.0,0.0,0.0,0.0,0.0,0.0,0.0,2.5538,2.5635,2.5635,2.5538,2.5635,2.5742,2.5723,2.5488,2.5273,2.5029,2.459,2.4277,2.4062,2.3838,2.376,2.376,2.3779,2.3789,2.3789,0.0,0.0,0.0,0.0,0.0817,0.0,0.2244,0.275,0.2943,0.3323,0.382,0.4221,0.472,0.5727,0.6542,0.6776,0.7585,0.8102,0.8133,0.8248,0.8316,0.8316,0.8421,0.8482,0.8482,0.8482,0.8482,0.0,0.0,0.0,0.0,0.0,0.0,0.0,0.0,0.0,0.0,0.0,0.9902,1.0326,1.1403,1.1836,1.2045,1.3381,1.3892,1.4001,1.5131,1.5546,1.5648,1.6583,1.6854,1.68,1.68,1.684,1.6934,1.7174,1.7241,1.7288,1.7522,1.7582,1.7582,1.7582,1.7582,1.7582,1.7582,1.7582,1.7582,1.7582,1.7582,1.7582,1.7582,1.7582,0.0,0.0,0.0,0.0,0.0,0.0,0.0,0.0,0.0,0.0,0.0,0.0,0.0,0.0,0.0,0.0,0.0,0.0,0.0,0.0,0.0,2.5742,2.5742,0.0,2.5742,0.0,2.5742,2.5742,2.5742,2.5742,2.5684,2.5576,2.5225,2.4961,2.4736,2.3965,2.3652,2.3623,2.3379,2.3271,2.333,2.376,2.3926,2.3877,0.0,0.0,0.0,0.0,0.0,0.0,0.0,0.4968,0.4906,0.2829,0.4422,0.5829,0.5827,0.7033,0.7895,0.8133,0.8248,0.8303,0.8431,0.8455,0.8462,0.8462,0.8476,0.8482,0.8482,0.8482,0.8482,0.0,0.0,0.0,0.0,0.0,0.0,0.0,0.0,0.0,0.0,0.98,1.0079,1.0527,1.1859,1.2361,1.2572,1.4826,1.5677,1.5789,1.6963,1.739,1.739,1.7502,1.7321,1.7108,1.7108,1.7288,1.7508,1.7535,1.7542,1.7549,1.7575,1.7582,1.7582,1.7582,1.7582,1.7582,1.7582,1.7582,1.7582,1.7582,1.7582,1.7582,1.7582,1.7582,1.7582,0.0,0.0,0.0,0.0,0.0,0.0,0.0,0.0,0.0,0.0,0.0,0.0,0.0,0.0,0.0,0.0,0.0,0.0,2.5742,0.0,2.5742,2.5742,2.5742,0.0,2.5742,2.5742,2.5742,2.5742,2.5742,2.5518,2.5127,2.5088,2.4629,2.3867,2.3398,2.3203,2.3232,2.3594,2.373,2.3779,2.4199,2.4355,2.4355,0.0,0.0,0.0,0.0,0.0,0.0,0.0,0.6049,0.6015,0.5203,0.6336,0.727,0.7473,0.7991,0.833,0.8391,0.8397,0.8421,0.8479,0.8567,0.8618,0.8618,0.8706,0.8757,0.8757,0.8757,0.8757,0.0,0.0,0.0,0.0,0.0,0.0,0.0,0.0,0.899,0.941,0.9581,0.9934,1.0486,1.1629,1.2309,1.263,1.4245,1.4781,1.4995,1.618,1.6611,1.6717,1.7364,1.7508,1.7408,1.7408,1.7488,1.7582,1.7582,1.7582,1.7582,1.7582,1.7582,1.7582,1.7582,1.7582,1.7582,1.7582,1.7582,1.7582,1.7582,1.7582,1.7582,1.7582,1.7582,1.7582,0.0,0.0,0.0,0.0,0.0,0.0,0.0,0.0,0.0,0.0,0.0,0.0,0.0,0.0,0.0,0.0,0.0,0.0,2.5742,0.0,2.5742,2.5742,2.5742,2.5742,2.5742,2.5742,2.5742,2.5723,2.5459,2.4961,2.4297,2.4297,2.3955,2.3408,2.3496,2.3525,2.3574,2.3994,2.417,2.4219,2.4648,2.4805,2.4844,0.2036,0.0,0.3451,0.0,0.5388,0.5495,0.647,0.7003,0.7324,0.7434,0.7974,0.8372,0.8492,0.8482,0.8499,0.8547,0.855,0.8567,0.8615,0.8716,0.8777,0.8777,0.8879,0.0,0.894,0.894,0.894,0.894,0.8828,0.0,0.0,0.0,0.0,0.0,0.8886,0.9054,0.9379,0.9489,1.0033,1.0903,1.166,1.2413,1.3063,1.4245,1.4674,1.4781,1.5962,1.6399,1.6505,1.7364,1.7582,1.7582,1.7582,1.7582,1.7582,1.7582,1.7582,1.7582,1.7582,1.7582,1.7582,1.7582,1.7582,1.7582,1.7582,1.7582,1.7582,1.7582,1.7582,1.7582,1.7582,1.7582,1.7582,1.7582,0.0,0.0,0.0,0.0,0.0,0.0,0.0,2.1794,2.3302,0.0,0.0,0.0,0.0,0.0,0.0,0.0,0.0,0.0,0.0,0.0,0.0,2.5742,2.5742,2.5742,2.5742,2.5742,2.5723,2.5137,2.4551,2.3965,2.3838,2.3682,2.3545,2.3848,2.3975,2.4014,2.4443,2.4609,2.4668,2.5098,2.5264,2.5332,0.2182,0.3425,0.4578,0.4908,0.5913,0.6808,0.7035,0.8152,0.8823,0.8823,0.8933,0.8818,0.8516,0.8482,0.8543,0.8696,0.8706,0.8771,0.8923,0.8933,0.8937,0.0,0.0,0.894,0.894,0.894,0.894,0.894,0.0,0.0,0.8937,0.0,0.8933,0.8937,0.9268,0.9375,0.9379,0.9706,1.0684,1.1982,1.1982,1.2842,1.4239,1.5429,1.5861,1.6074,1.7153,1.7582,1.7582,1.7582,1.7582,1.7582,1.7582,1.7582,1.7582,1.7582,1.7582,1.7582,1.7582,1.7582,1.7582,1.7582,1.7582,1.7582,1.7582,1.7582,1.7582,1.7582,1.7582,1.7582,1.7582,1.7582,1.7582,1.7582,0.0,0.0,0.0,0.0,0.0,0.0,2.1582,2.2802,2.4726,0.0,0.0,0.0,0.0,0.0,0.0,0.0,0.0,2.5742,2.5742,0.0,2.5742,2.5742,2.5742,2.5742,2.5742,2.5742,2.5713,2.4824,2.4414,2.4385,2.3975,2.4023,2.4394,2.4404,2.4414,2.4453,2.4893,2.5059,2.5117,2.5566,2.5732,2.5791,0.4543,0.5341,0.6139,0.7368,0.7931,0.8266,0.8269,0.8605,0.894,0.894,0.894,0.8903,0.8804,0.8794,0.8811,0.0,0.8866,0.8886,0.0,0.894,0.894,0.894,0.894,0.894,0.894,0.894,0.894,0.894,0.0,0.0,0.0,0.894,0.894,0.894,0.9051,0.9482,1.0351,1.057,1.1546,1.296,1.3917,1.4669,1.5429,1.6611,1.7041,1.7153,1.7477,1.7582,1.7582,1.7582,1.7582,1.7582,1.7582,1.7582,1.7582,1.7582,1.7582,1.7582,1.7582,1.7582,1.7582,1.7582,1.7582,1.7582,1.7582,1.7582,1.7582,1.7582,1.7582,1.7582,1.7582,1.7582,1.7582,1.7582,1.7582,0.0,0.0,0.0,0.0,0.0,0.0,2.1285,0.0,2.4016,0.0,0.0,0.0,0.0,0.0,0.0,0.0,0.0,2.5742,0.0,2.5742,2.5742,2.5742,2.5742,2.5742,2.5576,2.5273,2.499,2.4697,2.4414,2.4277,2.4287,2.4443,2.4736,2.4863,2.4902,2.5352,2.5703,2.5986,2.6133,2.6367,2.6631,0.5915,0.6808,0.7593,0.8712,0.894,0.894,0.894,0.894,0.894,0.894,0.894,0.894,0.894,0.894,0.0,0.894,0.894,0.894,0.894,0.894,0.894,0.894,0.894,0.894,0.894,0.0,0.0,0.894,0.894,0.894,0.894,0.894,0.894,0.8937,0.9372,1.0025,1.0781,1.1428,1.2625,1.404,1.4995,1.5849,1.6611,1.7364,1.7582,1.7582,1.7582,1.7582,1.7582,1.7582,1.7582,1.7582,1.7582,1.7582,1.7582,1.7582,1.7582,1.7582,1.7582,1.7582,1.7582,1.7582,1.7582,1.7582,1.7582,1.7582,1.7582,1.7582,1.7582,1.7582,1.7582,1.7582,1.7582,1.7582,1.7582,1.7582,1.7582,0.0,0.0,0.0,0.0,0.0,0.0,2.3719,0.0,0.0,0.0,0.0,0.0,0.0,0.0,2.5742,2.5742,0.0,2.5742,2.5742,2.5742,2.5742,2.5742,2.5508,2.5068,2.5068,2.4922,2.4658,2.4658,2.4853,2.5176,2.5449,2.5654,2.583,2.6103,2.6387,2.6621,2.6621,2.6787,2.7041,0.6473,0.7706,0.0,0.0,0.894,0.0,0.894,0.894,0.8944,0.8954,0.8954,0.8957,0.8967,0.8967,0.8967,0.8967,0.0,0.0,0.0,0.894,0.894,0.894,0.894,0.8944,0.8954,0.8954,0.8957,0.8967,0.8967,0.8967,0.8967,0.9078,0.9078,0.9078,1.0386,1.0924,1.1143,1.2441,1.3856,1.5279,1.5476,1.6449,1.7642,1.7642,1.7635,1.7615,1.7615,1.7602,1.7582,1.7582,1.7582,1.7582,1.7582,1.7582,1.7582,1.7582,1.7582,1.7582,1.7582,1.7582,1.7582,1.7582,1.7582,1.7582,1.7582,1.7582,1.7582,1.7582,1.7582,1.7582,1.7582,1.7582,1.7582,1.7582,1.7582,1.7582,1.7582,0.0,0.0,0.0,0.0,0.0,0.0,2.4214,2.5235,0.0,0.0,0.0,0.0,0.0,2.5742,2.5742,2.5742,2.5742,2.5742,2.5742,2.5742,2.5742,2.5762,2.5557,2.5156,2.5185,2.5205,2.5205,2.5205,2.5674,2.6435,2.6435,2.666,2.7012,2.7012,2.7031,2.706,2.706,2.708,2.7158,0.0,0.0,0.8709,0.8826,0.894,0.894,0.894,0.894,0.8977,0.9089,0.9103,0.9147,0.9266,0.9276,0.9276,0.9276,0.9069,0.894,0.894,0.894,0.894,0.894,0.894,0.8991,0.91,0.9103,0.9161,0.9276,0.9276,0.9276,0.9276,1.0296,1.0744,1.0744,1.2094,1.3213,1.4335,1.4893,1.6022,1.7378,1.7708,1.7934,1.8277,1.8277,1.8136,1.7936,1.7936,1.7782,1.7582,1.7582,1.7582,1.7582,1.7582,1.7582,1.7582,1.7582,1.7582,1.7582,1.7582,1.7582,1.7582,1.7582,1.7582,1.7582,1.7582,1.7582,1.7582,1.7582,1.7582,1.7582,1.7582,1.7582,1.7582,1.7582,1.7582,1.7582,1.7582,1.7582,0.0,0.0,1.925,2.0483,2.1582,2.3111,2.443,0.0,0.0,0.0,0.0,2.5742,2.5742,2.5742,2.5742,2.5742,2.5742,2.5742,2.5742,2.5742,2.6074,2.6182,2.6084,2.6406,2.6553,2.6553,2.6553,2.667,2.6865,2.6865,2.6924,2.7012,2.7012,2.7217,2.751,2.751,2.7715,2.8008,0.8555,0.8794,0.8911,0.914,0.914,0.914,0.914,0.914,0.9167,0.9249,0.9256,0.9289,0.9371,0.9381,0.9381,0.9381,0.9235,0.914,0.914,0.914,0.914,0.914,0.914,0.9178,0.9256,0.9256,0.93,0.9381,0.9381,0.9381,0.9381,1.0066,1.0409,1.0524,1.2456,1.3818,1.4611,1.6204,1.7346,1.8144,1.838,1.849,1.849,1.849,1.839,1.825,1.825,1.8136,1.7996,1.7996,1.7909,1.7796,1.7796,1.7695,1.7582,1.7582,1.7582,1.7582,1.7582,1.7582,1.7582,1.7582,1.7582,1.7582,1.7582,1.7582,1.7582,1.7582,1.7582,1.7582,1.7582,1.7702,1.7796,1.7796,1.7909,1.7996,1.7996,1.7996,0.0,1.7809,1.9364,2.0654,2.12,2.3111,2.4529,2.5235,0.0,0.0,2.6035,2.6211,2.6143,2.5752,2.5742,2.583,2.6035,2.623,2.6318,2.6328,2.6562,2.667,2.668,2.6914,2.7012,2.7012,2.7012,2.7129,2.7314,2.7314,2.7422,2.7598,2.7598,2.7744,2.7949,2.7949,2.8096,2.8291,0.901,0.9149,0.9381,0.9381,0.9381,0.9381,0.9381,0.9381,0.9391,0.9412,0.9415,0.9422,0.9445,0.9449,0.9449,0.9449,0.9449,0.9429,0.9384,0.9381,0.9381,0.9381,0.9381,0.9391,0.9415,0.9439,0.9449,0.9449,0.9449,0.9449,0.9449,0.9679,0.9909,1.0255,1.2772,1.4033,1.4489,1.7122,1.8276,1.8276,1.8512,1.8624,1.8624,1.8624,1.8597,1.8557,1.8557,1.8524,1.849,1.849,1.8323,1.8116,1.8116,1.7929,1.7722,1.7722,1.7722,1.7702,1.7609,1.7582,1.7582,1.7582,1.7582,1.7582,1.7582,1.7582,1.7582,1.7582,1.7615,1.7655,1.7655,1.7903,1.8116,1.8116,1.8323,1.849,1.849,0.0,1.8507,1.8354,2.0111,2.1458,2.1677,2.379,2.522,2.5427,2.6071,2.6484,0.0,2.6816,2.668,2.5957,2.5928,2.6103,2.6484,2.6836,2.7012,2.7012,2.708,2.7119,2.7119,2.7178,2.7207,2.7207,2.7207,2.7422,2.7764,2.7764,2.7969,2.8291,2.8291,2.8291,2.8291,2.8291,2.8291,2.8291,0.9262,0.9381,0.9381,0.9381,0.9381,0.9381,0.9381,0.9381,0.9429,0.9557,0.9574,0.9618,0.9741,0.9751,0.9751,0.9751,0.9751,0.9646,0.9398,0.9381,0.9381,0.9381,0.9381,0.9442,0.9571,0.969,0.9751,0.9751,0.9751,0.9751,0.9754,1.0831,1.2017,1.3433,1.4964,1.65,1.8037,1.8622,1.8981,1.9225,1.9232,1.9232,1.9232,1.9232,1.9078,1.8858,1.8858,1.8698,1.849,1.849,1.8464,1.8424,1.8424,1.839,1.835,1.835,1.835,1.8237,1.7722,1.7582,1.7582,1.7582,1.7582,1.7582,1.7582,1.7582,1.7582,1.7582,1.7796,1.7976,1.7976,1.8217,1.8424,1.8424,1.8464,1.849,1.849,0.0,1.8906,1.9823,2.1087,2.2233,2.3241,2.4927,2.5983,2.6085,2.656,2.6914,2.6914,2.6982,2.6953,2.6826,2.6816,2.6846,2.6914,2.6982,2.7012,2.7021,2.7393,2.7568,2.7578,2.793,2.8096,2.8096,2.8096,2.8135,2.8193,2.8193,2.8232,2.8291,2.8291,2.8291,2.8291,2.8291,2.8291,2.8291,0.9602,0.9618,0.9618,0.9618,0.9618,0.9618,0.9618,0.9618,0.9642,0.9713,0.9724,0.9747,0.9815,0.9822,0.9822,0.9822,0.9822,0.9764,0.9629,0.9618,0.9618,0.9618,0.9618,0.9649,0.9724,0.9788,0.9822,0.9822,0.9822,1.0179,1.1137,1.174,1.2817,1.448,1.5902,1.7085,1.7923,1.8765,1.9243,1.9366,1.9366,1.9366,1.9366,1.9366,1.9279,1.9165,1.9165,1.9078,1.8965,1.8965,1.8851,1.8724,1.8724,1.8617,1.849,1.849,1.849,1.843,1.815,1.807,1.807,1.807,1.807,1.807,1.807,1.807,1.807,1.807,1.819,1.829,1.829,1.8524,1.8724,1.8724,1.8858,0.0,0.0,1.9511,2.0117,2.0494,2.2196,2.3516,2.4062,2.5533,2.649,2.6593,2.7124,2.7363,2.7363,2.7578,2.7705,2.7705,2.748,2.7363,2.7363,2.7588,2.7705,2.7705,2.791,2.7998,2.8008,2.8203,2.8291,2.8291,2.8291,2.8291,2.8291,2.8291,2.8291,2.8291,2.8291,2.8291,2.8291,2.8291,2.8291,2.8291,0.9798,0.9822,0.9822,0.9822,0.9822,0.9822,0.9822,0.9822,0.9822,0.9822,0.9822,0.9822,0.9822,0.9822,0.9822,0.9822,0.9822,0.9822,0.9822,0.9822,0.9822,0.9822,0.9822,0.9822,0.9822,0.9822,0.994,1.0183,1.0183,1.1023,1.2577,1.2577,1.3412,1.5079,1.638,1.7091,1.7683,1.8887,1.9366,1.9366,1.9366,1.9366,1.9366,1.9366,1.9366,1.9366,1.9366,1.9366,1.9366,1.9366,1.9219,1.9025,1.9025,1.8878,1.8698,1.8698,1.8698,1.8664,1.8531,1.849,1.849,1.849,1.849,1.849,1.849,1.849,1.849,1.849,1.8544,1.8591,1.8591,1.8831,1.9025,1.9025,0.0,0.0,0.0,2.0615,2.1306,2.1607,2.3442,2.4852,2.5092,2.6238,2.6995,2.7201,2.7617,2.7812,2.7812,2.8115,2.8291,2.8291,2.7978,2.7812,2.7812,2.8135,2.8291,2.8291,2.8291,2.8291,2.8291,2.8291,2.8291,2.8291,2.8291,2.8291,2.8291,2.8291,2.8291,2.8291,2.8291,2.8291,2.8291,2.8291,2.8291,2.8291,0.9819,0.9822,0.9822,0.9822,0.9822,0.9822,0.9822,0.9822,0.9822,0.9822,0.9822,0.9822,0.9822,0.9822,0.9822,0.9822,0.9822,0.9822,0.9822,0.9822,0.9822,0.9822,0.9822,0.9822,0.9822,0.9822,1.0425,1.1511,1.1511,1.223,1.3545,1.3545,1.4614,1.6391,1.6509,1.7578,1.9243,1.9366,1.9366,1.9366,1.9366,1.9366,1.9366,1.9366,1.9366,1.9366,1.9366,1.9366,1.9366,1.9366,1.9352,1.9332,1.9332,1.9319,1.9299,1.9299,1.9299,1.9185,1.8637,1.849,1.849,1.849,1.849,1.849,1.849,1.849,1.849,1.849,1.8704,1.8891,1.8891,1.9132,1.9332,1.9332,0.0,0.0,2.0952,2.1174,2.207,2.4292,2.4939,2.5581,2.668,2.7435,2.7756,2.7863,2.8116,2.8252,2.8252,2.8271,2.8291,2.8291,2.8262,2.8252,2.8252,2.8281,2.8291,2.8291,2.8291,2.8291,2.8291,2.8291,2.8291,2.8291,2.8291,2.8291,2.8291,2.8291,2.8291,2.8291,2.8291,2.8291,2.8291,2.8291,2.8291,2.8291,0.9822,0.9822,0.9822,0.9822,0.9822,0.9822,0.9822,0.9822,0.9822,0.9822,0.9822,0.9822,0.9822,0.9822,0.9822,0.9822,0.9822,0.9822,0.9822,0.9822,0.9822,0.9822,0.9822,0.9822,0.9822,1.0547,1.1269,1.1752,1.259,1.366,1.5079,1.5322,1.6391,1.8046,1.8169,1.8771,1.9366,1.9366,1.9366,1.9366,1.9366,1.9366,1.9366,1.9366,1.9366,1.9366,1.9366,1.9366,1.9366,1.9366,1.9366,1.9366,1.9366,1.9366,1.9366,1.9366,1.9366,1.9319,1.9092,1.9038,1.9038,1.9038,1.9038,1.9038,1.9038,1.9038,1.9038,1.9038,1.9125,1.9199,1.9199,1.9292,1.9366,1.9366,0.0,2.0723,2.1174,2.2531,2.3871,2.4872,2.5972,2.6862,2.752,2.796,2.8184,2.8184,2.8291,2.8291,2.8291,2.8291,2.8291,2.8291,2.8291,2.8291,2.8291,2.8291,2.8291,2.8291,2.8291,2.8291,2.8291,2.8291,2.8291,2.8291,2.8291,2.8291,2.8291,2.8291,2.8291,2.8291,2.8291,2.8291,2.8291,2.8291,2.8291,2.8291,0.9822,0.9822,0.9822,0.9822,0.9822,0.9822,0.9822,0.9822,0.9822,0.9822,0.9822,0.9822,0.9822,0.9822,0.9822,0.9822,0.9822,0.9822,0.9822,0.9822,0.9822,0.9822,0.9822,0.994,1.0425,1.1269,1.2109,1.2946,1.3904,1.509,1.6509,1.6756,1.7584,1.8765,1.912,1.9249,1.9366,1.9366,1.9366,1.9366,1.9366,1.9366,1.9366,1.9366,1.9366,1.9366,1.9366,1.9366,1.9366,1.9366,1.9366,1.9366,1.9366,1.9366,1.9366,1.9366,1.9366,1.9366,1.9366,1.9366,1.9366,1.9366,1.9366,1.9366,1.9366,1.9366,1.9366,1.9366,1.9366,1.9366,1.9366,1.9366,1.9366,1.9366,2.0385,2.1288,2.1737,2.3544,2.5,2.5542,2.6645,2.7539,2.7745,2.8077,2.8291,2.8291,2.8291,2.8291,2.8291,2.8291,2.8291,2.8291,2.8291,2.8291,2.8291,2.8291,2.8291,2.8291,2.8291,2.8291,2.8291,2.8291,2.8291,2.8291,2.8291,2.8291,2.8291,2.8291,2.8291,2.8291,2.8291,2.8291,2.8291,2.8291,2.8291,2.8291,0.9822,0.9822,0.9822,0.9822,0.9822,0.9822,0.9822,0.9822,0.9822,0.9822,0.9822,0.9822,0.9822,0.9822,0.9822,0.9822,0.9822,0.9822,0.9822,0.9822,0.9822,0.9822,0.9822,1.0425,1.1631,1.1752,1.2946,1.5575,1.5575,1.6284,1.7485,1.7849,1.82,1.8421,1.8765,1.912,1.9366,1.9366,1.9366,1.9366,1.9366,1.9366,1.9366,1.9366,1.9366,1.9366,1.9366,1.9366,1.9366,1.9366,1.9366,1.9366,1.9366,1.9366,1.9366,1.9366,1.9366,1.9366,1.9366,1.9366,1.9366,1.9366,1.9366,1.9366,1.9366,1.9366,1.9366,1.9366,1.9366,1.9366,1.9366,1.9366,1.9366,1.9366,2.0385,2.1623,2.2862,2.3991,2.5229,2.6473,2.7008,2.7431,2.7431,2.797,2.8291,2.8291,2.8291,2.8291,2.8291,2.8291,2.8291,2.8291,2.8291,2.8291,2.8291,2.8291,2.8291,2.8291,2.8291,2.8291,2.8291,2.8291,2.8291,2.8291,2.8291,2.8291,2.8291,2.8291,2.8291,2.8291,2.8291,2.8291,2.8291,2.8291,2.8291,2.8291,0.9822,0.9822,0.9822,0.9822,0.9822,0.9822,0.9822,0.9822,0.9822,0.9822,0.9822,0.9822,0.9822,0.9822,0.9822,0.9822,0.9822,0.9822,0.9822,0.9822,1.0183,1.1148,1.1148,1.1269,1.1631,1.3545,1.4966,1.5913,1.6762,1.7602,1.8188,1.8415,1.8648,1.8765,1.912,1.9366,1.9366,1.9366,1.9366,1.9366,1.9366,1.9366,1.9366,1.9366,1.9366,1.9366,1.9366,1.9366,1.9366,1.9366,1.9366,1.9366,1.9366,1.9366,1.9366,1.9366,1.9366,1.9366,1.9366,1.9366,1.9366,1.9366,1.9366,1.9366,1.9366,1.9366,1.9366,1.9366,1.9366,1.9366,1.9366,1.9366,1.9366,1.9366,2.0385,2.1288,2.1737,2.2757,2.376,2.43,2.5186,2.5963,2.6073,2.7295,2.8067,2.8067,2.8184,2.8291,2.8291,2.8291,2.8291,2.8291,2.8291,2.8291,2.8291,2.8291,2.8291,2.8291,2.8291,2.8291,2.8291,2.8291,2.8291,2.8291,2.8291,2.8291,2.8291,2.8291,2.8291,2.8291,2.8291,2.8291,2.8291,2.8291,2.8291,2.8291,0.9822,0.9822,0.9822,0.9822,0.9822,0.9822,0.9822,0.9822,0.9822,0.9822,0.9822,0.9822,0.9822,0.9822,0.9822,0.9822,0.9822,0.9822,0.9822,1.0304,1.0906,1.1631,1.2706,1.3181,1.3181,1.4852,1.6155,1.675,1.7719,1.8194,1.8421,1.8765,1.8874,1.8881,1.9243,1.9366,1.9366,1.9366,1.9366,1.9366,1.9366,1.9366,1.9366,1.9366,1.9366,1.9366,1.9366,1.9366,1.9366,1.9366,1.9366,1.9366,1.9366,1.9366,1.9366,1.9366,1.9366,1.9366,1.9366,1.9366,1.9366,1.9366,1.9366,1.9366,1.9366,1.9366,1.9366,1.9366,1.9366,1.9366,1.9366,1.9366,1.9366,1.9366,2.0385,2.1174,2.1174,2.2191,2.3199,2.3855,2.4744,2.5406,2.6082,2.7079,2.7745,2.7745,2.7853,2.797,2.8174,2.797,2.8077,2.8291,2.8184,2.8184,2.8291,2.8291,2.8291,2.8291,2.8291,2.8291,2.8291,2.8291,2.8291,2.8291,2.8291,2.8291,2.8291,2.8291,2.8291,2.8291,2.8291,2.8291,2.8291,2.8291,2.8291,2.8291,0.9822,0.9822,0.9822,0.9822,0.9822,0.9822,0.9822,0.9822,0.9822,0.9822,0.9822,0.9822,0.9822,0.9822,0.9822,0.9822,0.9822,0.9822,0.9943,1.1027,1.1752,1.1989,1.4381,1.5693,1.5811,1.6037,1.675,1.8083,1.8311,1.8421,1.8538,1.8765,1.8997,1.8997,1.9243,1.9366,1.9366,1.9366,1.9366,1.9366,1.9366,1.9366,1.9366,1.9366,1.9366,1.9366,1.9366,1.9366,1.9366,1.9366,1.9366,1.9366,1.9366,1.9366,1.9366,1.9366,1.9366,1.9366,1.9366,1.9366,1.9366,1.9366,1.9366,1.9366,1.9366,1.9366,1.9366,1.9366,1.9366,1.9366,1.9366,1.9366,1.9366,1.9366,2.027,2.106,2.106,2.1964,2.3087,2.4334,2.4753,2.5525,2.6654,2.7098,2.7314,2.7431,2.7431,2.753,2.7853,2.7539,2.7647,2.8184,2.796,2.796,2.8291,2.8291,2.8291,2.8291,2.8291,2.8291,2.8291,2.8291,2.8291,2.8291,2.8291,2.8291,2.8291,2.8291,2.8291,2.8291,2.8291,2.8291,2.8291,2.8291,2.8291,2.8291,0.9822,0.9822,0.9822,0.9822,0.9822,0.9822,0.9822,0.9822,0.9822,0.9822,0.9822,0.9822,0.9822,0.9822,0.9822,0.9822,0.9822,1.0183,1.1269,1.1511,1.259,1.4619,1.5332,1.6172,1.7491,1.7485,1.7837,1.8305,1.8648,1.8887,1.9127,1.9249,1.9243,1.9243,1.9366,1.9366,1.9366,1.9366,1.9366,1.9366,1.9366,1.9366,1.9366,1.9366,1.9366,1.9366,1.9366,1.9366,1.9366,1.9366,1.9366,1.9366,1.9366,1.9366,1.9366,1.9366,1.9366,1.9366,1.9366,1.9366,1.9366,1.9366,1.9366,1.9366,1.9366,1.9366,1.9366,1.9366,1.9366,1.9366,1.9366,1.9366,1.9366,1.9366,1.9591,1.9822,1.9822,2.0046,2.0608,2.1851,2.2862,2.3983,2.511,2.6327,2.7206,2.7431,2.7431,2.7431,2.7539,2.7431,2.7431,2.7647,2.7539,2.7647,2.796,2.796,2.8067,2.8291,2.8291,2.8291,2.8291,2.8291,2.8291,2.8291,2.8291,2.8291,2.8291,2.8291,2.8291,2.8291,2.8291,2.8291,2.8291,2.8291,2.8291,2.8291,0.9822,0.9822,0.9822,0.9822,0.9822,0.9822,0.9822,0.9822,0.9822,0.9822,0.9822,0.9822,0.9822,0.9822,1.0061,1.0664,1.0668,1.1265,1.259,1.3186,1.4143,1.5575,1.629,1.7132,1.7966,1.8311,1.8538,1.8648,1.9004,1.9243,1.9366,1.9366,1.9366,1.9366,1.9366,1.9366,1.9366,1.9366,1.9366,1.9366,1.9366,1.9366,1.9366,1.9366,1.9366,1.9366,1.9366,1.9366,1.9366,1.9366,1.9366,1.9366,1.9366,1.9366,1.9366,1.9366,1.9366,1.9366,1.9366,1.9366,1.9366,1.9366,1.9366,1.9366,1.9366,1.9366,1.9366,1.9366,1.9366,1.9366,1.9366,1.9366,1.9366,1.9366,1.9366,1.9366,1.9366,1.9938,2.0723,2.1964,2.3087,2.4334,2.5569,2.6345,2.6899,2.7008,2.7008,2.7116,2.7206,2.7116,2.7116,2.7431,2.7314,2.7314,2.7638,2.7638,2.7755,2.7862,2.8184,2.8291,2.8291,2.8291,2.8291,2.8291,2.8291,2.796,2.752,2.8067,2.796,2.752,2.8067,2.8291,2.8291,2.8291,2.8291,2.8291,0.9822,0.9822,0.9822,0.9822,0.9822,0.9822,0.9822,0.9822,0.9822,0.9822,0.9822,0.9822,0.9822,0.994,1.0543,1.1631,1.1872,1.259,1.3904,1.4976,1.5693,1.6048,1.725,1.8089,1.82,1.8648,1.8874,1.8874,1.9243,1.9366,1.9366,1.9366,1.9366,1.9366,1.9366,1.9366,1.9366,1.9366,1.9366,1.9366,1.9366,1.9366,1.9366,1.9366,1.9366,1.9366,1.9366,1.9366,1.9366,1.9366,1.9366,1.9366,1.9366,1.9366,1.9366,1.9366,1.9366,1.9366,1.9366,1.9366,1.9366,1.9366,1.9366,1.9366,1.9366,1.9366,1.9366,1.9366,1.9366,1.9366,1.9366,1.9366,1.9366,1.9366,1.9366,1.9366,1.9366,2.0385,2.1623,2.2531,2.3991,2.5229,2.6245,2.6473,2.6591,2.6591,2.6591,2.6691,2.689,2.6691,2.68,2.7215,2.7107,2.7098,2.7323,2.7314,2.7314,2.7431,2.7862,2.8184,2.8184,2.8291,2.8291,2.8291,2.8067,2.7413,2.6527,2.7628,2.7295,2.63,2.7736,2.8184,2.8067,2.8184,2.8291,2.8291,0.9822,0.9822,0.9822,0.9822,0.9822,0.9822,0.9822,0.9822,0.9822,0.9822,0.9822,0.9822,0.9822,1.0785,1.1511,1.1631,1.2706,1.4023,1.5213,1.5456,1.6172,1.7608,1.7849,1.8194,1.8765,1.8881,1.8874,1.8874,1.9243,1.9366,1.9366,1.9366,1.9366,1.9366,1.9366,1.9366,1.9366,1.9366,1.9366,1.9366,1.9366,1.9366,1.9366,1.9366,1.9366,1.9366,1.9366,1.9366,1.9366,1.9366,1.9366,1.9366,1.9366,1.9366,1.9366,1.9366,1.9366,1.9366,1.9366,1.9366,1.9366,1.9366,1.9366,1.9366,1.9366,1.9366,1.9366,1.9366,1.9366,1.9366,1.9366,1.9366,1.9366,1.9366,1.9366,1.9366,1.9366,2.0385,2.1288,2.1402,2.3432,2.4889,2.5008,2.6017,2.6591,2.6591,2.6591,2.6591,2.6691,2.6591,2.6591,2.6691,2.6691,2.6791,2.7098,2.7098,2.7206,2.7431,2.7431,2.7638,2.796,2.8184,2.8291,2.8291,2.7187,2.6636,2.6527,2.6636,2.6073,2.5177,2.7403,2.7628,2.6862,2.796,2.8291,2.8291,0.9822,0.9822,0.9822,0.9822,0.9822,0.9822,0.9822,0.9822,0.9822,0.9822,0.9822,0.9822,0.9822,1.0906,1.235,1.378,1.4381,1.5332,1.6891,1.6891,1.7361,1.8194,1.8428,1.8655,1.8874,1.912,1.912,1.912,1.9366,1.9366,1.9366,1.9366,1.9366,1.9366,1.9366,1.9366,1.9366,1.9366,1.9366,1.9366,1.9366,1.9366,1.9366,1.9366,1.9366,1.9366,1.9366,1.9366,1.9366,1.9366,1.9366,1.9366,1.9366,1.9366,1.9366,1.9366,1.9366,1.9366,1.9366,1.9366,1.9366,1.9366,1.9366,1.9366,1.9366,1.9366,1.9366,1.9366,1.9366,1.9366,1.9366,1.9366,1.9366,1.9366,1.9366,1.9366,1.9366,2.0385,2.1402,2.2078,2.3768,2.4556,2.388,2.4898,2.534,2.4667,2.5229,2.5348,2.4667,2.5229,2.534,2.4556,2.4556,2.4659,2.4761,2.4761,2.4872,2.4982,2.5075,2.6073,2.7638,2.7755,2.7862,2.796,2.6744,2.6309,2.6418,2.5735,2.5177,2.4837,2.6626,2.7403,2.752,2.7305,2.7446,2.7535]},{"header":{"parameterUnit":"m.s-1","parameterCategory":1,"la1":30.6,"la2":28.766,"lo1":-90.7593,"lo2":-88.6598,"dy":0.0162,"dx":0.0183,"nx":116,"ny":114,"refTime":"2024-03-08T06:00:00:Z","depth":0,"parameterNumber":3,"parameterNumberName":"V-component_of_WINDS"},"data":[0.0,0.0,0.0,0.0,0.0,0.0,0.0,0.0,0.0,0.0,0.0,0.0,0.0,0.0,0.0,0.0,0.0,0.0,0.0,0.0,0.0,0.0,0.0,0.0,0.0,0.0,0.0,0.0,0.0,0.0,0.0,0.0,0.0,0.0,0.0,0.0,0.0,0.0,0.0,0.0,0.0,0.0,0.0,0.0,0.0,0.0,0.0,0.0,0.0,0.0,0.0,0.0,0.0,0.0,0.0,0.0,0.0,0.0,0.0,0.0,0.0,0.0,0.0,0.0,0.0,0.0,0.0,0.0,0.0,0.0,0.0,0.0,0.0,0.0,0.0,0.0,0.0,0.0,0.0,0.0,0.0,0.0,0.0,0.0,0.0,0.0,0.0,0.0,0.0,0.0,0.0,0.0,0.0,0.0,0.0,0.0,0.0,0.0,0.0,0.0,0.0,0.0,0.0,0.0,0.0,0.0,0.0,0.0,0.0,0.0,0.0,0.0,0.0,0.0,0.0,0.0,0.0,0.0,0.0,0.0,0.0,0.0,0.0,0.0,0.0,0.0,0.0,0.0,0.0,0.0,0.0,0.0,0.0,0.0,0.0,0.0,0.0,0.0,0.0,0.0,0.0,0.0,0.0,0.0,0.0,0.0,0.0,0.0,0.0,0.0,0.0,0.0,0.0,0.0,0.0,0.0,0.0,0.0,0.0,0.0,0.0,0.0,0.0,0.0,0.0,0.0,0.0,0.0,0.0,0.0,0.0,0.0,0.0,0.0,0.0,0.0,0.0,0.0,0.0,0.0,0.0,0.0,0.0,0.0,0.0,0.0,0.0,0.0,0.0,0.0,0.0,0.0,0.0,0.0,0.0,0.0,0.0,0.0,0.0,0.0,0.0,0.0,0.0,0.0,0.0,0.0,0.0,0.0,0.0,0.0,0.0,0.0,0.0,0.0,0.0,0.0,0.0,0.0,0.0,0.0,0.0,0.0,0.0,0.0,0.0,0.0,0.0,0.0,0.0,0.0,0.0,0.0,0.0,0.0,0.0,0.0,0.0,0.0,0.0,0.0,0.0,0.0,0.0,0.0,0.0,0.0,0.0,0.0,0.0,0.0,0.0,0.0,0.0,0.0,0.0,0.0,0.0,0.0,0.0,0.0,0.0,0.0,0.0,0.0,0.0,0.0,0.0,0.0,0.0,0.0,0.0,0.0,0.0,0.0,0.0,0.0,0.0,0.0,0.0,0.0,0.0,0.0,0.0,0.0,0.0,0.0,0.0,0.0,0.0,0.0,0.0,0.0,0.0,0.0,0.0,0.0,0.0,0.0,0.0,0.0,0.0,0.0,0.0,0.0,0.0,0.0,0.0,0.0,0.0,0.0,0.0,0.0,0.0,0.0,0.0,0.0,0.0,0.0,0.0,0.0,0.0,0.0,0.0,0.0,0.0,0.0,0.0,0.0,0.0,0.0,0.0,0.0,0.0,0.0,0.0,0.0,0.0,0.0,0.0,0.0,0.0,0.0,0.0,0.0,0.0,0.0,0.0,0.0,0.0,0.0,0.0,0.0,0.0,0.0,0.0,0.0,0.0,0.0,0.0,0.0,0.0,0.0,0.0,0.0,0.0,0.0,0.0,0.0,0.0,0.0,0.0,0.0,0.0,0.0,0.0,0.0,0.0,0.0,0.0,0.0,0.0,0.0,0.0,0.0,0.0,0.0,0.0,0.0,0.0,0.0,0.0,0.0,0.0,0.0,0.0,0.0,0.0,0.0,0.0,0.0,0.0,0.0,0.0,0.0,0.0,0.0,0.0,0.0,0.0,0.0,0.0,0.0,0.0,0.0,0.0,0.0,0.0,0.0,0.0,0.0,0.0,0.0,0.0,0.0,0.0,0.0,0.0,0.0,0.0,0.0,0.0,0.0,0.0,0.0,0.0,0.0,0.0,0.0,0.0,0.0,0.0,0.0,0.0,0.0,0.0,0.0,0.0,0.0,0.0,0.0,0.0,0.0,0.0,0.0,0.0,0.0,0.0,0.0,0.0,0.0,0.0,0.0,0.0,0.0,0.0,0.0,0.0,0.0,0.0,0.0,0.0,0.0,0.0,0.0,0.0,0.0,0.0,0.0,0.0,0.0,0.0,0.0,0.0,0.0,0.0,0.0,0.0,0.0,0.0,0.0,0.0,0.0,0.0,0.0,0.0,0.0,0.0,0.0,0.0,0.0,0.0,0.0,0.0,0.0,0.0,0.0,0.0,0.0,0.0,0.0,0.0,0.0,0.0,0.0,0.0,0.0,0.0,0.0,0.0,0.0,0.0,0.0,0.0,0.0,0.0,0.0,0.0,0.0,0.0,0.0,0.0,0.0,0.0,0.0,0.0,0.0,0.0,0.0,0.0,0.0,0.0,0.0,0.0,0.0,0.0,0.0,0.0,0.0,0.0,0.0,0.0,0.0,0.0,0.0,0.0,0.0,0.0,0.0,0.0,0.0,0.0,0.0,0.0,0.0,0.0,0.0,0.0,0.0,0.0,0.0,0.0,0.0,0.0,0.0,0.0,0.0,0.0,0.0,0.0,0.0,0.0,0.0,0.0,0.0,0.0,0.0,0.0,0.0,0.0,0.0,0.0,0.0,0.0,0.0,0.0,0.0,0.0,0.0,0.0,0.0,0.0,0.0,0.0,0.0,0.0,0.0,0.0,0.0,0.0,0.0,0.0,0.0,0.0,0.0,0.0,0.0,0.0,0.0,0.0,0.0,0.0,0.0,0.0,0.0,0.0,0.0,0.0,0.0,0.0,0.0,0.0,0.0,0.0,0.0,0.0,0.0,0.0,0.0,0.0,0.0,0.0,0.0,0.0,0.0,0.0,0.0,0.0,0.0,0.0,0.0,0.0,0.0,0.0,0.0,0.0,0.0,0.0,0.0,0.0,0.0,0.0,0.0,0.0,0.0,0.0,0.0,0.0,0.0,0.0,0.0,0.0,0.0,0.0,0.0,0.0,0.0,0.0,0.0,0.0,0.0,0.0,0.0,0.0,0.0,0.0,0.0,0.0,0.0,0.0,0.0,0.0,0.0,0.0,0.0,0.0,0.0,0.0,0.0,0.0,0.0,0.0,0.0,0.0,0.0,0.0,0.0,0.0,0.0,0.0,0.0,0.0,0.0,0.0,0.0,0.0,0.0,0.0,0.0,0.0,0.0,0.0,0.0,0.0,0.0,0.0,0.0,0.0,0.0,0.0,0.0,0.0,0.0,0.0,0.0,0.0,0.0,0.0,0.0,0.0,0.0,0.0,0.0,0.0,0.0,0.0,0.0,0.0,0.0,0.0,0.0,0.0,0.0,0.0,0.0,0.0,0.0,0.0,0.0,0.0,0.0,0.0,0.0,0.0,0.0,0.0,0.0,0.0,0.0,0.0,0.0,0.0,0.0,0.0,0.0,0.0,0.0,0.0,0.0,0.0,0.0,0.0,0.0,0.0,0.0,0.0,0.0,0.0,0.0,0.0,0.0,0.0,0.0,0.0,0.0,0.0,0.0,0.0,0.0,0.0,0.0,0.0,0.0,0.0,0.0,0.0,0.0,0.0,0.0,0.0,0.0,0.0,0.0,0.0,0.0,0.0,0.0,0.0,0.0,0.0,0.0,0.0,0.0,0.0,0.0,0.0,0.0,0.0,0.0,0.0,0.0,0.0,0.0,0.0,0.0,0.0,0.0,0.0,0.0,0.0,0.0,0.0,0.0,0.0,0.0,0.0,0.0,0.0,0.0,0.0,0.0,0.0,0.0,0.0,0.0,0.0,0.0,0.0,0.0,0.0,0.0,0.0,0.0,0.0,0.0,0.0,0.0,0.0,0.0,0.0,0.0,0.0,0.0,0.0,0.0,0.0,0.0,0.0,0.0,0.0,0.0,0.0,0.0,0.0,0.0,0.0,0.0,0.0,0.0,0.0,0.0,0.0,0.0,0.0,0.0,0.0,0.0,0.0,0.0,0.0,0.0,0.0,0.0,0.0,0.0,0.0,0.0,0.0,0.0,0.0,0.0,0.0,0.0,0.0,0.0,0.0,0.0,0.0,0.0,0.0,0.0,0.0,0.0,0.0,0.0,0.0,0.0,0.0,0.0,0.0,0.0,0.0,0.0,0.0,0.0,0.0,0.0,0.0,0.0,0.0,0.0,0.0,0.0,0.0,0.0,0.0,0.0,0.0,0.0,0.0,0.0,0.0,0.0,0.0,0.0,0.0,0.0,0.0,0.0,0.0,0.0,0.0,0.0,0.0,0.0,0.0,0.0,0.0,0.0,0.0,0.0,0.0,0.0,0.0,0.0,0.0,0.0,0.0,0.0,0.0,0.0,0.0,0.0,0.0,0.0,0.0,0.0,0.0,0.0,0.0,0.0,0.0,0.0,0.0,0.0,0.0,0.0,0.0,0.0,0.0,0.0,0.0,0.0,0.0,0.0,0.0,0.0,0.0,0.0,0.0,0.0,0.0,0.0,0.0,0.0,0.0,0.0,0.0,0.0,0.0,0.0,0.0,0.0,0.0,0.0,0.0,0.0,0.0,0.0,0.0,0.0,0.0,0.0,0.0,0.0,0.0,0.0,0.0,0.0,0.0,0.0,0.0,0.0,0.0,0.0,0.0,0.0,0.0,0.0,0.0,0.0,0.0,0.0,0.0,0.0,0.0,0.0,0.0,0.0,0.0,0.0,0.0,0.0,0.0,0.0,0.0,0.0,0.0,0.0,0.0,0.0,0.0,0.0,0.0,0.0,0.0,0.0,0.0,0.0,0.0,0.0,0.0,0.0,0.0,0.0,0.0,0.0,0.0,0.0,0.0,0.0,0.0,0.0,0.0,0.0,0.0,0.0,0.0,0.0,0.0,0.0,0.0,0.0,0.0,0.0,0.0,0.0,0.0,0.0,0.0,0.0,0.0,0.0,0.0,0.0,0.0,0.0,0.0,0.0,0.0,0.0,0.0,0.0,0.0,0.0,0.0,0.0,0.0,0.0,0.0,0.0,0.0,0.0,0.0,0.0,0.0,0.0,0.0,0.0,0.0,0.0,0.0,0.0,0.0,0.0,0.0,0.0,0.0,0.0,0.0,0.0,0.0,0.0,0.0,0.0,0.0,0.0,0.0,0.0,0.0,0.0,0.0,0.0,0.0,0.0,0.0,0.0,0.0,0.0,0.0,0.0,0.0,0.0,0.0,0.0,0.0,0.0,0.0,0.0,0.0,0.0,0.0,0.0,0.0,0.0,0.0,0.0,0.0,0.0,0.0,0.0,0.0,0.0,0.0,0.0,0.0,0.0,0.0,0.0,0.0,0.0,0.0,0.0,0.0,0.0,0.0,0.0,0.0,0.0,0.0,0.0,0.0,0.0,0.0,0.0,0.0,0.0,0.0,0.0,0.0,0.0,0.0,0.0,0.0,0.0,0.0,0.0,0.0,0.0,0.0,0.0,0.0,0.0,0.0,0.0,0.0,0.0,0.0,0.0,0.0,0.0,0.0,0.0,0.0,0.0,0.0,0.0,0.0,0.0,0.0,0.0,0.0,0.0,0.0,0.0,0.0,0.0,0.0,0.0,0.0,0.0,0.0,0.0,0.0,0.0,0.0,0.0,0.0,0.0,0.0,0.0,0.0,0.0,0.0,0.0,0.0,0.0,0.0,0.0,0.0,0.0,0.0,0.0,0.0,0.0,0.0,0.0,0.0,0.0,0.0,0.0,0.0,0.0,0.0,0.0,0.0,0.0,0.0,0.0,0.0,0.0,0.0,0.0,0.0,0.0,0.0,0.0,0.0,0.0,0.0,0.0,0.0,0.0,0.0,0.0,0.0,0.0,0.0,0.0,0.0,0.0,0.0,0.0,0.0,0.0,0.0,0.0,0.0,0.0,0.0,0.0,0.0,0.0,0.0,0.0,0.0,0.0,0.0,0.0,0.0,0.0,0.0,0.0,0.0,0.0,0.0,0.0,0.0,0.0,0.0,0.0,0.0,0.0,0.0,0.0,0.0,0.0,0.0,0.0,0.0,0.0,0.0,0.0,0.0,0.0,0.0,0.0,0.0,0.0,0.0,0.0,0.0,0.0,0.0,0.0,0.0,0.0,0.0,0.0,0.0,0.0,1.7644,0.0,0.0,0.0,0.0,0.0,0.0,0.0,0.0,0.0,0.0,0.0,0.0,0.0,0.0,0.0,0.0,0.0,0.0,0.0,0.0,0.0,0.0,0.0,0.0,0.0,0.0,0.0,2.2637,2.25,2.2317,2.196,0.0,0.0,0.0,0.0,0.0,0.0,2.0993,2.0993,2.0993,2.0993,2.0993,1.9978,1.9267,0.0,0.0,0.0,0.0,0.0,0.0,0.0,0.0,0.0,0.0,0.0,0.0,0.0,0.0,0.0,0.0,0.0,0.0,0.0,0.0,0.0,0.0,0.0,0.0,0.0,0.0,0.0,0.0,0.0,0.0,0.0,0.0,0.0,0.0,0.0,0.0,0.0,0.0,0.0,0.0,0.0,0.0,0.0,0.0,0.0,0.0,0.0,0.0,0.0,0.0,0.0,0.0,0.0,0.0,0.0,0.0,0.0,0.0,0.0,0.0,0.0,0.0,0.0,0.0,0.0,0.0,0.0,0.0,0.0,0.0,0.0,0.0,1.8209,0.0,0.0,0.0,0.0,0.0,0.0,0.0,0.0,0.0,0.0,0.0,0.0,0.0,0.0,0.0,0.0,0.0,0.0,0.0,0.0,0.0,0.0,0.0,2.4648,2.4648,2.4623,2.4585,2.4399,2.4073,2.3526,2.3105,2.2826,2.2281,2.1966,2.1966,2.1966,2.1966,2.1966,2.1897,2.1862,2.1849,2.1632,0.0,0.0,0.0,0.0,0.0,0.0,0.0,0.0,0.0,0.0,0.0,0.0,0.0,0.0,0.0,0.0,0.0,0.0,0.0,0.0,0.0,0.0,0.0,0.0,0.0,0.0,0.0,0.0,0.0,0.0,0.0,0.0,0.0,0.0,0.0,0.0,0.0,0.0,0.0,0.0,0.0,0.0,0.0,0.0,0.0,0.0,0.0,0.0,0.0,0.0,0.0,0.0,0.0,0.0,0.0,0.0,0.0,0.0,0.0,0.0,0.0,0.0,0.0,0.0,0.0,0.0,1.9072,1.9271,1.9706,1.9645,2.0155,2.0962,2.0243,1.98,1.953,0.0,0.0,0.0,0.0,0.0,0.0,0.0,0.0,0.0,0.0,0.0,0.0,0.0,0.0,0.0,0.0,0.0,0.0,0.0,0.0,0.0,0.0,2.4863,2.4745,2.4712,2.5237,2.554,2.5383,2.5843,2.614,2.6081,2.5993,2.5933,2.5933,2.5933,2.5933,2.5933,2.5409,2.5163,2.5148,2.4028,2.3455,2.3248,2.1432,0.0,0.0,0.0,0.0,0.0,0.0,0.0,0.0,0.0,0.0,0.0,0.0,0.0,0.0,0.0,0.0,0.0,0.0,0.0,0.0,0.0,0.0,0.0,0.0,0.0,0.0,0.0,0.0,0.0,0.0,0.0,0.0,0.0,0.0,0.0,0.0,0.0,0.0,0.0,0.0,0.0,0.0,0.0,2.2402,2.2298,0.0,0.0,0.0,0.0,0.0,0.0,0.0,0.0,0.0,0.0,0.0,0.0,0.0,0.0,2.0688,2.135,2.1629,2.1543,2.1263,2.112,2.1199,2.1146,2.1202,2.1348,2.2114,0.0,2.1301,2.0837,0.0,0.0,0.0,0.0,0.0,0.0,0.0,0.0,0.0,0.0,0.0,0.0,0.0,0.0,0.0,0.0,0.0,0.0,0.0,0.0,0.0,2.6689,2.6924,2.6905,2.752,2.7661,2.7183,2.7348,2.7256,2.6839,2.6726,2.6682,2.6682,2.6682,2.6682,2.6682,2.6419,2.6301,2.6286,2.5712,2.5307,2.5037,2.42,2.3315,2.2429,2.2128,0.0,0.0,0.0,0.0,0.0,0.0,0.0,0.0,0.0,0.0,0.0,0.0,0.0,0.0,0.0,0.0,0.0,0.0,0.0,0.0,0.0,0.0,0.0,0.0,0.0,0.0,0.0,0.0,0.0,0.0,0.0,0.0,0.0,0.0,0.0,0.0,0.0,0.0,0.0,2.3078,2.2815,2.2868,2.2178,2.1538,0.0,0.0,0.0,0.0,0.0,0.0,0.0,0.0,0.0,2.2572,2.3051,2.3354,2.3413,2.377,2.373,2.3393,2.3269,2.3275,2.3511,2.3087,2.3008,2.3181,2.3274,2.3084,2.2741,2.2132,2.1677,2.1321,0.0,0.0,0.0,0.0,0.0,2.1663,0.0,0.0,0.0,0.0,0.0,0.0,0.0,0.0,0.0,0.0,0.0,0.0,2.7783,2.8477,2.8963,2.8945,2.9515,2.9644,2.9081,2.9046,2.8743,2.8068,2.7943,2.7875,2.778,2.7875,2.7901,2.7875,2.7689,2.7576,2.7434,2.7303,2.7052,2.6704,2.6704,2.5579,2.3744,2.3535,2.3511,0.0,0.0,0.0,0.0,0.0,0.0,0.0,0.0,0.0,0.0,0.0,0.0,0.0,0.0,0.0,0.0,0.0,0.0,0.0,0.0,0.0,0.0,0.0,0.0,0.0,0.0,0.0,0.0,0.0,0.0,0.0,0.0,0.0,0.0,0.0,0.0,0.0,0.0,2.4263,2.4014,2.4066,2.3591,2.299,0.0,0.0,0.0,0.0,0.0,0.0,2.328,2.3487,2.3979,2.4856,2.526,2.5486,2.5592,2.5592,2.5363,2.4941,2.4798,2.4875,2.5155,2.4622,2.453,2.4745,2.4309,2.4066,2.3893,2.3216,2.2589,2.2081,2.2007,2.1932,2.1932,2.2285,2.25,2.2802,0.0,0.0,0.0,0.0,0.0,0.0,0.0,0.0,0.0,0.0,0.0,2.8893,2.882,2.9523,2.9994,2.9924,3.0547,3.0903,3.0868,3.1446,3.1612,3.1202,3.1164,3.1026,3.0714,3.0987,3.1125,3.106,3.0432,2.9894,2.9428,2.8856,2.8576,2.8576,2.8576,2.7618,2.6,2.5142,2.5138,2.5588,0.0,0.0,0.0,0.0,0.0,0.0,0.0,0.0,0.0,0.0,0.0,0.0,0.0,0.0,0.0,0.0,0.0,0.0,0.0,0.0,0.0,0.0,0.0,0.0,0.0,0.0,0.0,0.0,0.0,0.0,0.0,0.0,0.0,0.0,0.0,0.0,0.0,0.0,0.0,2.7244,2.6828,0.0,0.0,0.0,0.0,2.4666,2.4888,2.5012,2.5094,2.5683,2.6037,2.6119,2.6119,2.6158,2.613,2.613,2.6115,2.614,2.5592,2.5357,2.5394,2.5282,2.5257,2.526,2.5415,2.5268,2.4878,2.3951,2.3187,2.2649,2.2649,2.2515,2.2412,2.2936,2.3603,2.4256,0.0,0.0,0.0,0.0,0.0,0.0,0.0,0.0,2.8858,2.9344,2.9696,3.002,3.0351,3.1257,3.1756,3.156,3.2241,3.257,3.2384,3.2441,3.235,3.1933,3.1825,3.175,3.162,3.1714,3.177,3.175,3.1497,3.1329,3.1138,3.0664,3.0252,2.9854,2.9613,2.9007,2.8045,2.7534,2.726,2.7115,2.6724,2.6505,0.0,0.0,0.0,0.0,0.0,0.0,0.0,0.0,0.0,0.0,0.0,0.0,0.0,0.0,0.0,0.0,0.0,0.0,0.0,0.0,0.0,0.0,0.0,0.0,0.0,0.0,0.0,0.0,0.0,0.0,0.0,0.0,0.0,0.0,0.0,0.0,0.0,2.7333,2.7419,0.0,2.6625,2.6318,2.6289,2.6538,2.6328,2.6342,2.6643,2.6909,2.7041,2.7041,2.7414,2.7645,2.7645,2.7645,2.7645,2.7595,2.7405,2.73,2.7171,2.672,2.664,2.6796,2.6476,2.6146,2.579,2.5482,2.4751,2.3779,2.3806,2.3903,2.4107,2.4368,2.4665,2.4918,0.0,0.0,0.0,0.0,0.0,0.0,0.0,0.0,2.9913,3.0389,3.1009,3.15,3.1802,3.2717,3.3247,3.3091,3.3519,3.3725,3.3447,3.3284,3.2996,3.2515,3.2002,3.1777,3.1913,3.1879,3.1968,3.2248,3.2248,3.2179,3.1986,3.1733,3.1401,3.1004,3.0778,3.0385,2.9859,2.9669,2.9087,2.8207,2.8094,2.7864,2.7515,0.0,0.0,0.0,0.0,0.0,0.0,0.0,0.0,0.0,0.0,0.0,0.0,0.0,0.0,0.0,0.0,0.0,0.0,0.0,0.0,0.0,0.0,0.0,0.0,0.0,0.0,0.0,0.0,0.0,0.0,0.0,0.0,0.0,0.0,0.0,2.8545,2.789,2.813,2.8161,2.7505,2.75,2.763,2.7944,2.763,2.758,2.7944,2.7944,2.7944,2.7944,2.8332,2.8556,2.8556,2.8653,2.8748,2.8716,2.8826,2.8858,2.8701,2.8295,2.8213,2.8376,2.7853,2.7448,2.709,2.6726,2.6062,2.5258,2.4846,2.491,2.5259,2.5389,2.5503,2.5668,0.0,0.0,0.0,0.0,0.0,0.0,0.0,3.0505,3.1015,3.0904,3.2315,3.3269,3.3163,3.3848,3.4338,3.4364,3.4319,3.4204,3.4049,3.3975,3.3652,3.31,3.1884,3.143,3.1739,3.1696,3.2028,3.2749,3.2749,3.2519,3.2056,3.2039,3.2039,3.2039,3.2003,3.177,3.1435,3.1435,3.0476,2.8982,2.8795,2.8732,2.8685,0.0,0.0,0.0,0.0,0.0,0.0,0.0,0.0,0.0,0.0,0.0,0.0,0.0,0.0,0.0,0.0,0.0,0.0,0.0,0.0,0.0,0.0,0.0,0.0,0.0,0.0,0.0,0.0,0.0,0.0,0.0,0.0,0.0,2.9424,2.923,2.9275,2.923,2.9387,2.9239,2.8716,2.8748,2.8842,2.8842,2.8842,2.8842,2.8842,2.8842,2.8842,2.8842,2.8842,2.8842,2.8842,2.9212,2.9377,2.9335,2.9717,2.9876,2.9793,2.9793,2.9793,2.9805,2.9543,2.9214,2.8753,2.7646,2.7189,2.6998,2.574,2.5449,2.5815,2.5832,2.6118,2.652,0.0,0.0,0.0,0.0,0.0,0.0,0.0,3.2022,3.2267,3.2821,3.3351,3.3828,3.4218,3.4603,3.4509,3.3746,3.3669,3.3362,3.2697,3.2596,3.2422,3.217,3.2373,0.0,3.2631,3.3247,3.3647,3.3843,3.3715,3.3524,3.3299,3.2921,3.2636,3.2486,3.2179,3.1968,3.1842,3.1842,3.1568,3.106,2.9946,2.9271,2.8888,0.0,0.0,0.0,0.0,0.0,0.0,0.0,0.0,0.0,0.0,0.0,0.0,0.0,0.0,0.0,0.0,0.0,0.0,0.0,0.0,0.0,0.0,0.0,0.0,0.0,0.0,0.0,0.0,0.0,0.0,0.0,0.0,3.1033,3.0243,3.0394,3.0476,3.0201,3.0192,3.0107,2.9859,2.9865,2.9837,2.9761,2.9761,2.9761,2.9761,2.9761,2.9761,2.9761,2.9761,2.9761,2.9761,2.9832,2.9919,2.9892,3.0005,3.0048,3.0005,3.0005,3.0192,3.0543,3.0466,3.0241,2.9947,2.96,2.8842,2.7688,2.6385,2.6104,2.647,2.6607,2.6808,2.692,0.0,0.0,0.0,0.0,0.0,0.0,0.0,3.3058,3.3379,3.3901,3.428,3.4649,3.5047,3.5181,3.5004,3.4378,3.3955,3.3475,3.2878,3.2335,3.2006,3.1923,0.0,3.2727,3.3082,3.3904,3.4521,3.4834,3.4729,3.4612,3.4525,3.3862,3.3468,3.3296,3.2973,3.2692,3.2466,3.2384,3.2265,3.2056,3.1116,3.0583,3.0261,3.0136,3.0093,3.0051,2.9982,2.9956,2.9956,2.9956,0.0,0.0,0.0,0.0,0.0,0.0,0.0,0.0,0.0,0.0,0.0,0.0,0.0,0.0,0.0,0.0,0.0,0.0,0.0,0.0,0.0,0.0,0.0,0.0,3.1771,3.1685,3.1647,3.1504,3.1355,3.1106,3.0868,3.084,3.1116,3.0966,3.0938,3.1176,3.1193,3.1193,3.1193,3.1193,3.1193,3.1193,3.1193,3.1193,3.1193,3.1082,3.0975,3.0916,3.0783,3.073,3.0707,3.0707,3.0845,0.0,3.11,3.0997,3.0871,3.0675,3.0075,0.0,0.0,0.0,0.0,0.0,2.7307,2.7435,0.0,0.0,0.0,0.0,0.0,0.0,0.0,3.3877,3.4383,3.4444,3.5074,3.554,3.5611,3.5621,3.5582,3.5485,3.4698,3.4075,3.3698,3.2661,3.2071,3.2072,3.2279,3.275,3.3445,3.4325,3.5149,3.5856,3.5829,3.5806,3.5764,3.4974,3.4563,3.4481,3.416,3.3753,3.3368,3.3093,3.2777,3.2451,3.2332,3.2179,3.1986,3.1986,3.2003,3.1967,3.1787,3.1714,3.1714,3.1714,0.0,0.0,0.0,0.0,0.0,0.0,0.0,0.0,0.0,0.0,0.0,0.0,0.0,0.0,0.0,0.0,0.0,0.0,0.0,0.0,0.0,0.0,0.0,0.0,3.2661,3.2668,3.3331,3.2717,3.2156,3.2069,3.1644,3.1664,3.2445,3.2152,3.2176,3.2854,3.2904,3.2904,3.2904,0.0,0.0,0.0,0.0,3.2861,3.2861,3.2613,3.2473,3.23,3.1927,3.1734,3.1675,3.1627,3.1576,3.1614,3.1634,3.1634,3.162,3.1255,3.1062,3.0817,2.8937,2.7772,2.7152,2.7396,2.7678,0.0,0.0,0.0,0.0,0.0,0.0,0.0,0.0,3.5302,3.5418,3.543,3.5566,3.5674,3.5685,3.5685,3.5413,3.4769,3.4559,3.3835,3.2376,3.2019,3.186,3.1862,3.3801,3.4936,3.5037,3.6526,3.7348,3.7458,3.7185,3.7024,3.6963,3.6577,3.6368,3.6278,3.5552,3.5181,3.5052,3.4271,3.3768,3.3487,3.3429,3.2854,3.2074,3.2021,3.2003,3.1986,3.1967,3.1932,3.1932,3.1932,3.1932,3.1896,3.1932,0.0,0.0,0.0,0.0,0.0,0.0,0.0,0.0,0.0,0.0,0.0,0.0,0.0,0.0,0.0,0.0,0.0,0.0,0.0,0.0,3.5169,3.4845,3.4639,3.4781,3.4339,3.3748,3.3047,3.285,3.3124,3.3921,3.3913,3.3926,3.4064,3.4064,3.4064,3.4064,3.4064,0.0,3.4064,3.4064,3.4024,3.3928,3.3847,3.3778,3.3716,0.0,0.0,3.2641,3.2298,3.2162,3.2231,3.2435,3.2568,3.2598,3.2506,3.2111,3.1444,2.968,2.8541,2.788,2.7964,2.8147,2.837,0.0,0.0,0.0,0.0,0.0,0.0,0.0,3.5703,3.5717,3.58,3.58,3.5811,3.5846,3.5846,3.5685,3.5281,3.4411,3.3492,3.2567,3.2085,3.2391,3.3644,3.4923,3.5999,3.6828,3.8078,3.8685,3.8645,3.845,3.8333,3.828,3.768,3.7375,3.7296,3.6691,3.6412,3.6306,3.5754,3.5405,3.5286,3.5195,3.4816,3.4232,3.3112,3.2702,3.2755,3.3029,3.3153,3.3224,3.3613,3.3704,3.367,3.3721,3.36,3.3458,0.0,0.0,0.0,0.0,0.0,0.0,0.0,0.0,0.0,0.0,0.0,0.0,0.0,0.0,3.6579,3.6164,0.0,3.6394,3.6461,3.596,3.5724,3.6038,3.557,3.487,3.3962,3.3816,3.4187,3.5144,3.5252,3.5467,3.6004,3.6059,3.6059,3.6059,3.6059,3.6059,3.6059,3.6059,3.6022,3.5968,3.5596,3.5366,3.5329,3.4588,3.42,3.4182,3.3523,3.325,3.3298,3.3001,3.2916,3.2947,3.3087,3.2814,3.2229,3.1329,3.0196,2.9042,2.9042,2.8978,2.8839,0.0,0.0,0.0,0.0,0.0,0.0,0.0,3.5738,3.5792,3.5887,3.5907,3.5932,3.5989,3.6009,3.6005,3.6005,3.4518,3.3536,3.342,3.296,3.3575,3.5574,3.6145,3.707,3.849,3.9296,3.968,3.9688,3.9605,3.9554,3.9554,3.8768,3.8405,3.8306,3.7889,3.7621,3.748,3.714,3.6953,3.6883,3.6739,3.6665,3.6459,3.4697,3.3975,3.3978,3.4473,3.4627,3.4691,3.5339,3.5475,3.5426,3.5522,3.5287,3.503,3.5137,3.5012,0.0,0.0,0.0,0.0,0.0,0.0,0.0,0.0,0.0,3.712,3.7307,3.7898,3.8186,3.754,3.7491,3.7551,3.7551,3.6978,3.6735,3.7265,3.6796,3.6082,3.5332,3.5025,3.531,3.6381,3.6488,3.6845,3.7718,3.7789,3.7789,3.7789,3.7789,3.7789,3.7789,3.7789,3.7754,3.7754,3.7158,3.6852,3.68,3.6059,3.5732,3.5696,3.4754,3.4333,3.4279,3.3533,3.3201,3.3248,3.3561,3.3478,3.3147,3.3217,3.2196,3.0664,3.027,2.9867,2.9468,0.0,0.0,0.0,0.0,0.0,0.0,0.0,0.0,3.5957,3.5915,3.5957,3.5993,3.5991,3.5991,3.5991,3.5991,3.5105,3.4535,3.451,3.5168,3.5642,3.5856,3.8101,3.9418,3.9624,4.0356,4.0735,4.0731,4.0552,4.0449,4.0449,4.0364,4.0284,4.0251,3.9432,3.9046,3.8901,3.8051,3.7509,3.723,3.7103,3.6948,3.6745,3.6359,3.6076,3.582,3.5864,3.5788,3.5661,3.5752,3.5738,3.5756,3.577,3.5738,3.58,3.6319,0.0,3.679,3.7131,3.7469,3.7827,3.8104,3.818,3.823,0.0,0.0,3.8132,3.8164,3.8456,3.8722,3.863,3.8897,3.9144,3.9144,3.8776,3.8519,3.8593,3.8279,3.8004,3.7907,3.7109,3.6952,3.7783,3.7873,3.7925,3.805,3.805,3.805,3.805,3.805,3.805,3.805,3.805,3.7998,3.7893,3.7803,3.768,3.7557,3.6818,3.6492,3.6438,3.5278,3.4772,3.4786,3.4226,3.3979,3.4005,3.4265,3.4408,3.4419,3.4661,3.4149,3.307,3.1274,3.057,3.0443,0.0,0.0,0.0,0.0,0.0,0.0,0.0,0.0,0.0,3.5845,3.5877,3.589,3.5876,3.5882,3.5884,3.5888,3.5089,3.4819,3.5369,3.5252,3.5859,3.7341,3.8456,3.953,4.0521,4.087,4.1022,4.1013,4.0887,4.0829,4.0829,4.0759,4.0723,4.0703,4.0256,4.0053,3.9976,3.9503,3.9214,3.9088,3.8934,3.8809,3.8704,3.8573,3.8359,3.8048,3.7304,3.6985,0.0,0.0,3.7601,3.7601,3.7601,3.7601,3.7656,3.7893,3.8028,0.0,3.8305,3.8469,3.8632,0.0,3.877,3.8812,3.8924,3.8887,3.8876,3.9036,3.9165,3.9264,3.9264,3.9406,3.952,0.0,3.938,3.9264,3.921,3.9101,3.897,3.8942,3.857,3.8409,3.848,3.8517,3.8579,3.8844,3.8873,3.8873,3.8873,3.8873,3.8873,3.8873,3.8873,3.8826,3.8778,3.8778,3.873,3.8681,3.8379,3.8214,3.8206,3.7281,3.6427,3.5615,3.4913,3.4634,3.4634,3.4735,3.4794,3.4832,3.4962,3.4788,3.4276,3.2938,3.2145,3.1709,0.0,0.0,0.0,0.0,0.0,0.0,0.0,0.0,0.0,0.0,3.5749,3.5788,3.5805,3.5797,3.5792,3.5797,3.5217,0.0,0.0,3.5516,3.6245,3.8383,3.87,3.9522,4.1045,4.1094,4.1108,4.1108,4.1023,4.1013,4.1022,4.0914,4.0866,4.0839,4.0749,4.0687,4.0649,4.0535,4.0496,4.0438,4.0306,4.0215,4.0177,4.0039,3.9892,3.9595,3.86,3.8182,0.0,0.0,3.897,3.897,3.896,3.8931,3.8931,3.8892,3.8899,3.8918,3.9054,3.9032,0.0,3.9073,3.9073,3.9133,3.9283,3.9301,3.938,3.9552,3.9602,3.9602,3.9602,3.9602,3.9602,3.9602,3.9602,3.9577,3.9546,3.952,3.952,3.9469,3.9469,3.9354,3.9036,3.898,3.9101,3.9391,3.9391,3.9391,3.9391,3.9391,3.9391,3.9391,3.9391,3.9425,3.9464,3.9464,3.9471,3.9545,3.9545,3.9545,3.9508,3.8814,3.7658,3.6175,3.5586,3.5224,3.4996,3.5047,3.51,3.5117,3.5165,3.52,3.5124,3.4485,3.3674,3.2882,0.0,0.0,0.0,0.0,0.0,0.0,0.0,0.0,0.0,0.0,0.0,0.0,0.0,3.5805,3.5791,3.5791,3.5788,0.0,0.0,3.6571,3.7437,3.837,3.9208,4.0076,4.0974,4.1064,4.1108,4.1108,4.1035,4.1033,4.1097,4.1023,4.0994,4.0987,4.0987,4.0918,4.0791,4.0791,4.0703,4.0588,4.0588,4.05,4.0389,4.0306,4.0196,4.0036,3.9675,0.0,0.0,0.0,3.9178,3.9152,3.9036,3.898,0.0,3.8902,3.8914,3.8988,3.9462,0.0,3.9229,3.9514,3.9577,3.9577,3.9577,3.9577,3.9577,3.9602,3.9602,3.9602,3.9602,3.9602,3.9602,3.9602,3.9602,3.9602,3.9596,3.9596,3.9596,3.9577,3.9577,3.9577,0.0,3.9451,3.9391,3.9391,3.9391,3.9391,3.9391,3.9391,3.9391,3.9391,3.9391,3.9446,3.9599,3.9599,3.9694,3.9868,3.9868,3.9868,3.9849,3.9051,3.7776,3.6194,3.6175,3.5718,3.5009,3.5205,3.5331,3.5405,3.5608,3.5673,3.5673,3.5648,3.4916,3.3853,0.0,0.0,0.0,0.0,0.0,0.0,0.0,0.0,0.0,0.0,0.0,0.0,0.0,0.0,0.0,0.0,0.0,0.0,0.0,3.6017,3.6577,3.7493,3.8325,3.9176,4.0052,4.0696,4.1031,4.1031,4.1064,4.1073,4.1094,4.1033,4.1009,4.1004,4.0996,4.0964,4.0941,4.0882,4.0801,4.0715,4.0636,4.0577,4.053,4.05,4.0469,4.0406,0.0,0.0,0.0,3.9675,3.9675,3.9651,3.9604,3.9604,3.958,3.9575,3.9577,3.9583,3.976,0.0,3.9556,3.9765,3.9695,3.962,3.9658,3.9639,3.9602,3.9602,3.9602,3.9602,3.9602,3.9602,3.9602,3.9602,3.9602,3.965,3.9777,3.98,3.9848,3.9979,4.0,0.0,0.0,0.0,0.0,3.9712,3.9851,3.9937,3.9937,3.9937,3.9937,3.9937,3.9937,3.996,4.0002,4.0002,4.0023,4.0101,4.0101,4.0157,4.0262,3.9418,3.8792,3.8353,3.7795,3.7063,3.6331,3.64,3.6107,3.5607,3.5669,3.5698,3.5698,3.5689,3.5465,3.5102,0.0,0.0,0.0,0.0,0.0,0.0,0.0,0.0,0.0,0.0,0.0,0.0,0.0,0.0,0.0,0.0,0.0,0.0,0.0,0.0,3.6373,3.7301,3.8136,3.8991,3.9863,4.0557,4.0879,4.0879,4.0978,4.1035,4.1052,4.1021,4.1011,4.1035,4.1032,4.1038,4.1023,4.0998,4.094,4.0857,4.0791,4.0729,4.0699,4.0699,4.0687,0.0,0.0,0.0,0.0,4.0078,4.0036,4.0036,3.9994,3.9933,3.9889,3.9889,3.9908,3.9886,3.9902,3.9841,3.9796,3.9876,3.9797,3.9702,3.9764,3.9736,3.9693,3.9656,3.9631,3.9631,3.9602,3.9656,3.9684,3.9602,3.9731,3.9829,3.9876,3.996,4.0061,4.0175,4.0193,4.0212,0.0,0.0,0.0,4.002,4.0139,4.0196,4.0196,4.0195,4.0213,4.0213,4.0212,4.0229,4.0317,4.0317,4.0351,4.0415,4.0415,4.0481,4.0582,4.0028,3.9696,3.9491,3.893,3.8225,3.7441,3.7132,3.6658,3.6135,3.5842,3.5743,3.5743,3.5764,3.5779,3.5772,0.0,0.0,0.0,0.0,0.0,0.0,0.0,0.0,0.0,0.0,0.0,0.0,0.0,0.0,0.0,0.0,0.0,0.0,0.0,0.0,0.0,3.7696,3.8616,3.9488,4.0315,4.0565,4.0692,4.0692,4.0819,4.0921,4.0992,4.0992,4.1027,4.1105,4.1105,4.1094,4.1101,4.1099,4.1055,4.1013,4.1013,4.0967,4.0913,4.0913,0.0,0.0,0.0,0.0,0.0,4.0377,4.0329,4.0291,4.0176,4.0038,3.9954,3.9954,3.9939,3.9943,3.9935,3.9926,3.9928,3.9939,3.9933,3.991,3.9916,3.9905,3.9879,3.9739,3.9739,3.9693,0.0,0.0,3.9857,3.9679,3.9941,4.0138,3.9963,4.0101,4.0227,0.0,0.0,0.0,0.0,0.0,0.0,4.025,0.0,4.0232,4.0232,4.023,4.0227,4.0227,4.0224,4.0319,4.0505,4.0524,4.061,4.0807,4.0807,4.0807,4.0807,4.0807,4.0391,3.9684,3.9684,3.918,3.8307,3.7473,3.7114,3.7007,3.6195,3.5872,3.5859,3.5888,3.5903,3.5896,0.0,0.0,0.0,0.0,0.0,0.0,0.0,0.0,0.0,0.0,0.0,0.0,0.0,0.0,0.0,0.0,0.0,0.0,0.0,0.0,0.0,0.0,0.0,0.0,0.0,0.0,0.0,4.063,4.0703,4.081,4.0932,4.0984,4.1013,4.1039,4.109,4.1099,4.1093,4.1092,4.1094,4.1061,0.0,4.1025,4.0974,0.0,0.0,0.0,0.0,0.0,0.0,0.0,0.0,0.0,0.0,4.0454,4.0419,4.0419,4.0425,4.0413,4.0415,4.0345,4.0292,4.0404,4.0272,4.0158,4.0253,4.0196,4.0101,4.0082,4.0063,4.0063,0.0,0.0,0.0,4.0063,4.0136,0.0,4.0323,4.0389,0.0,4.0623,0.0,4.0655,4.0642,4.0699,0.0,0.0,4.0649,4.0649,4.0649,4.0662,4.0642,4.0642,4.0655,4.0667,4.0723,4.0723,4.0754,4.0807,4.0807,4.0807,4.0807,4.0807,4.0713,4.0574,4.0574,4.0096,3.9335,3.9107,3.8663,3.8034,3.7184,3.6836,3.6762,3.613,3.5901,3.5903,0.0,0.0,0.0,0.0,0.0,0.0,0.0,0.0,0.0,0.0,0.0,0.0,0.0,0.0,0.0,0.0,0.0,0.0,0.0,0.0,0.0,0.0,0.0,0.0,0.0,0.0,0.0,0.0,0.0,0.0,4.0776,4.0907,4.098,4.0996,4.1064,4.1097,4.1107,4.1093,0.0,0.0,0.0,0.0,0.0,0.0,0.0,0.0,0.0,0.0,0.0,0.0,0.0,4.0642,4.0604,4.061,4.0602,4.0598,0.0,4.0607,4.0607,4.055,4.0502,4.0573,4.0487,4.04,4.0463,4.0425,4.0345,4.0287,4.03,0.0,4.0213,0.0,0.0,0.0,0.0,0.0,4.0538,4.063,4.0846,0.0,4.1412,0.0,4.1914,4.1964,4.1964,0.0,4.1225,4.0807,4.0807,4.1186,4.141,4.141,4.1401,4.1237,4.0849,4.0849,4.0869,4.0887,4.0887,4.0902,4.0882,4.0882,4.0695,4.0398,0.0,4.0461,3.9705,3.9708,3.9437,3.8934,3.8102,3.7772,3.7655,3.6796,3.6463,3.6423,0.0,0.0,0.0,0.0,0.0,0.0,0.0,0.0,0.0,0.0,0.0,0.0,0.0,0.0,0.0,0.0,0.0,0.0,0.0,0.0,0.0,0.0,0.0,0.0,0.0,0.0,0.0,0.0,0.0,0.0,0.0,0.0,0.0,0.0,0.0,0.0,0.0,0.0,0.0,0.0,0.0,0.0,0.0,0.0,0.0,0.0,0.0,0.0,0.0,0.0,4.0898,4.0731,4.0676,4.0648,4.0649,4.0651,4.0646,4.0648,4.0629,4.0648,4.0662,4.0635,4.0635,4.0635,4.0642,4.0629,4.061,4.0494,0.0,4.0604,4.0501,4.0673,4.0731,4.0492,0.0,4.0837,4.0655,4.0784,4.1208,4.2092,4.2189,4.251,4.3324,4.3471,4.3481,4.3422,4.2014,4.117,4.1147,4.1925,4.2373,4.2374,4.2374,4.2004,4.1263,4.1146,4.1108,4.1167,4.105,4.1003,4.1001,4.1001,4.0596,3.9917,0.0,0.0,3.988,3.9882,3.9882,3.9804,3.8998,3.8678,3.8578,3.7691,3.7366,3.7269,0.0,0.0,0.0,0.0,0.0,0.0,0.0,0.0,0.0,0.0,3.5493,3.5493,0.0,0.0,0.0,0.0,0.0,0.0,0.0,0.0,0.0,0.0,0.0,0.0,0.0,0.0,0.0,0.0,0.0,0.0,0.0,0.0,0.0,0.0,0.0,0.0,0.0,0.0,0.0,0.0,0.0,0.0,0.0,0.0,0.0,0.0,0.0,0.0,0.0,0.0,4.1022,4.096,4.0937,4.0921,4.0924,4.0937,4.0936,4.0927,4.0868,4.0888,4.0917,4.0859,4.0849,4.084,4.0859,4.0849,0.0,0.0,4.1382,4.1876,4.1856,4.1895,4.1903,4.1856,0.0,0.0,0.0,0.0,4.1218,0.0,0.0,0.0,0.0,0.0,0.0,0.0,0.0,4.3097,4.3034,4.3189,4.3267,4.3272,4.3272,4.3239,4.3138,4.2412,4.2067,4.2078,4.1333,4.1004,4.1008,4.1008,4.0916,4.0779,0.0,0.0,4.0863,4.0863,4.0863,4.0766,3.9919,3.9564,3.9466,3.861,3.8268,3.8249,0.0,0.0,0.0,0.0,0.0,0.0,0.0,3.5493,3.5493,3.5493,3.5493,3.5493,3.5493,3.5493,3.5446,0.0,0.0,0.0,0.0,0.0,0.0,0.0,0.0,0.0,0.0,0.0,0.0,0.0,0.0,0.0,0.0,0.0,0.0,0.0,0.0,0.0,0.0,0.0,0.0,0.0,0.0,0.0,0.0,0.0,0.0,0.0,0.0,0.0,0.0,0.0,4.1078,4.1052,4.1045,4.105,4.105,4.1002,4.1315,4.1673,4.1643,4.1976,4.2228,4.1749,4.1634,4.1519,4.1063,0.0,0.0,0.0,4.1578,4.2199,4.2208,0.0,0.0,0.0,0.0,0.0,0.0,0.0,0.0,0.0,0.0,0.0,0.0,0.0,0.0,0.0,0.0,4.4504,4.3596,4.3947,4.4178,4.4181,4.4181,4.4,4.3608,4.3196,4.2986,4.2968,4.209,4.1697,4.1707,4.1258,4.0801,4.0411,4.0855,0.0,4.0471,4.0914,4.1089,4.105,4.0647,4.0491,4.0368,3.9505,3.9143,3.9065,0.0,0.0,0.0,0.0,0.0,0.0,0.0,3.5493,3.5493,3.5493,3.5493,3.5493,3.5493,3.5493,3.5493,0.0,0.0,0.0,0.0,0.0,0.0,0.0,0.0,0.0,0.0,0.0,0.0,0.0,0.0,0.0,0.0,0.0,0.0,0.0,0.0,0.0,0.0,0.0,0.0,0.0,0.0,0.0,0.0,0.0,0.0,0.0,0.0,0.0,0.0,0.0,4.1108,4.1104,4.11,4.1094,4.1136,4.1259,4.1793,4.2362,4.2529,4.3097,4.3444,4.2746,4.2588,4.2399,4.1707,4.1555,0.0,0.0,4.216,4.2753,4.2761,0.0,4.3549,0.0,0.0,0.0,0.0,0.0,0.0,0.0,0.0,0.0,0.0,0.0,0.0,0.0,0.0,0.0,4.421,4.4739,4.5094,4.5096,4.5096,4.4804,4.416,4.3964,4.3883,4.3866,4.2988,4.262,4.2629,4.1752,4.0986,4.037,4.0877,0.0,0.0,4.0818,4.1085,4.1078,4.1078,4.1071,4.0967,4.0285,3.9999,3.9871,0.0,0.0,0.0,0.0,0.0,0.0,0.0,3.5493,3.5493,3.5493,3.5493,3.5493,3.5493,3.5493,3.5493,0.0,0.0,0.0,0.0,0.0,0.0,0.0,0.0,0.0,0.0,0.0,0.0,0.0,0.0,0.0,0.0,0.0,0.0,0.0,0.0,0.0,0.0,0.0,0.0,0.0,0.0,0.0,0.0,0.0,0.0,0.0,0.0,0.0,0.0,0.0,0.0,4.1108,4.1108,4.1108,4.1244,4.2034,0.0,0.0,4.328,4.3582,4.3665,4.3524,4.3473,4.3465,4.3377,0.0,0.0,4.3268,4.3957,4.4559,4.4568,4.4626,0.0,0.0,0.0,4.2264,0.0,0.0,0.0,0.0,0.0,0.0,0.0,0.0,0.0,0.0,0.0,0.0,4.5873,4.593,4.6015,4.607,4.6069,4.6039,4.5967,4.5187,4.4791,4.4767,4.391,4.3475,4.3468,4.2591,4.2143,4.2026,0.0,0.0,0.0,4.1071,4.1052,4.1023,4.1023,4.098,4.0897,4.082,4.0781,4.0771,0.0,0.0,0.0,0.0,0.0,0.0,3.5493,3.5493,3.5493,3.5493,3.5493,3.5493,3.5493,3.5493,3.5493,3.5493,0.0,0.0,0.0,0.0,0.0,0.0,0.0,0.0,0.0,0.0,0.0,0.0,0.0,0.0,0.0,0.0,0.0,0.0,0.0,0.0,0.0,0.0,0.0,0.0,0.0,0.0,0.0,0.0,0.0,0.0,0.0,0.0,0.0,0.0,0.0,0.0,4.1108,4.1108,0.0,0.0,4.2357,4.3251,4.3572,4.4458,4.5125,4.4586,4.445,4.4313,4.3778,0.0,4.3598,4.3578,4.4258,4.4853,4.4865,4.5285,4.5468,0.0,0.0,0.0,0.0,0.0,0.0,0.0,0.0,0.0,0.0,0.0,0.0,0.0,0.0,0.0,4.6163,4.6163,4.6175,4.6197,4.6197,4.6201,4.6209,4.5818,4.5628,4.5613,4.4692,4.4267,4.4228,4.3411,4.3013,4.2994,0.0,0.0,0.0,4.1758,4.1438,4.0935,4.0935,4.0926,4.0878,4.0809,4.0746,4.0711,0.0,0.0,0.0,0.0,0.0,3.5493,3.5493,3.5493,3.5493,3.5493,3.5493,3.5493,3.5493,3.5493,3.5493,3.5493,3.5488,0.0,0.0,0.0,0.0,0.0,0.0,0.0,0.0,0.0,0.0,0.0,0.0,0.0,0.0,0.0,0.0,0.0,0.0,0.0,0.0,0.0,0.0,0.0,0.0,0.0,0.0,0.0,0.0,0.0,0.0,0.0,0.0,0.0,0.0,0.0,0.0,0.0,0.0,0.0,4.2533,4.3762,4.4013,4.5168,4.6144,4.5539,4.5382,4.5223,0.0,0.0,4.4426,4.4382,4.4869,4.5274,4.528,4.5777,4.5967,4.5348,0.0,4.4494,4.3303,0.0,0.0,0.0,0.0,0.0,0.0,0.0,0.0,0.0,0.0,0.0,0.0,4.6146,4.6146,4.6162,4.6146,4.6146,4.6146,4.6093,4.6075,4.6056,4.5395,4.5084,4.5064,4.4219,4.385,4.383,0.0,0.0,0.0,4.2587,4.2208,4.1635,4.1635,4.1595,4.1501,4.117,4.0977,4.0838,0.0,0.0,0.0,0.0,0.0,0.0,3.5493,3.5493,3.5493,3.5493,3.5493,3.5493,3.5493,3.5493,3.5493,3.5493,3.5509,0.0,0.0,0.0,0.0,0.0,0.0,0.0,0.0,0.0,0.0,4.09,4.0964,0.0,0.0,0.0,0.0,0.0,0.0,0.0,0.0,0.0,0.0,0.0,0.0,0.0,0.0,0.0,0.0,0.0,0.0,0.0,0.0,0.0,0.0,0.0,0.0,4.1108,4.1264,0.0,4.3004,4.3883,4.4758,4.5636,4.63,4.628,4.628,4.628,0.0,0.0,4.6163,4.6163,4.6187,4.6196,4.6196,4.6141,4.6093,4.6085,4.5428,0.0,4.4871,0.0,0.0,0.0,0.0,0.0,0.0,0.0,0.0,0.0,0.0,0.0,0.0,4.6007,4.6027,4.6093,4.6047,4.6007,4.6007,4.5997,4.5997,4.5997,4.5977,4.5977,4.5958,4.5084,4.4695,0.0,0.0,0.0,0.0,4.35,4.3449,4.3373,4.3373,4.3253,4.2961,4.211,4.1703,4.1416,0.0,0.0,0.0,0.0,0.0,0.0,0.0,3.5493,3.5493,3.5493,3.5493,3.5493,3.5493,3.5493,3.5493,3.5493,3.5509,0.0,0.0,0.0,0.0,0.0,0.0,0.0,0.0,0.0,4.0974,4.0964,4.0992,4.101,4.1047,0.0,0.0,0.0,0.0,0.0,0.0,0.0,0.0,0.0,0.0,0.0,0.0,0.0,0.0,0.0,0.0,0.0,0.0,0.0,0.0,0.0,0.0,0.0,0.0,4.1426,4.2552,4.3766,4.4036,4.5187,4.63,4.63,4.63,4.63,4.63,0.0,4.6268,4.6211,4.6191,4.6209,4.6191,4.6189,4.6165,4.6166,4.5948,0.0,0.0,0.0,0.0,0.0,0.0,0.0,0.0,0.0,0.0,0.0,0.0,0.0,0.0,4.5964,4.5964,4.6027,4.6007,4.5997,4.5997,4.5944,4.5922,4.5941,4.5893,4.5848,4.5848,4.5577,0.0,0.0,0.0,0.0,0.0,4.409,4.3719,4.3188,4.3038,4.2956,4.2848,4.2488,4.2317,4.2199,0.0,0.0,0.0,0.0,0.0,0.0,0.0,3.5581,3.5581,3.5581,3.5581,3.5581,3.5581,3.5593,3.5574,3.5574,3.5599,0.0,0.0,0.0,0.0,0.0,0.0,0.0,0.0,4.1013,4.1016,4.1045,4.1048,4.1053,4.1091,4.1108,4.1103,0.0,0.0,0.0,0.0,0.0,0.0,0.0,0.0,0.0,4.1094,0.0,0.0,0.0,0.0,0.0,0.0,0.0,0.0,0.0,0.0,0.0,0.0,0.0,4.2301,4.3665,4.369,4.4967,4.6303,4.63,4.6282,4.6264,0.0,0.0,4.6231,4.6186,4.6167,4.6167,4.6163,4.614,4.6132,4.6167,4.6138,0.0,0.0,0.0,0.0,0.0,0.0,0.0,0.0,0.0,0.0,0.0,0.0,0.0,0.0,4.5873,4.5873,4.591,4.591,4.591,4.591,4.5873,4.5848,4.5848,4.5827,4.5645,4.5355,4.5293,0.0,0.0,0.0,0.0,0.0,4.383,4.3436,4.294,4.2813,4.2699,4.256,4.2153,4.2161,4.2299,0.0,0.0,0.0,0.0,0.0,0.0,0.0,3.5693,3.5693,3.5702,3.5702,3.5702,3.5702,3.5706,3.5702,3.5702,0.0,0.0,0.0,0.0,0.0,0.0,0.0,0.0,0.0,4.1041,4.1033,4.1107,4.1101,4.1099,4.1099,4.1091,4.1094,4.1099,4.1091,0.0,0.0,0.0,0.0,0.0,4.1097,4.1099,0.0,0.0,0.0,0.0,0.0,0.0,0.0,0.0,0.0,0.0,0.0,0.0,0.0,0.0,0.0,0.0,0.0,4.4979,4.6282,4.6287,4.6245,4.6182,4.6189,0.0,0.0,4.6118,4.6086,4.6098,4.6093,4.6047,4.6018,4.6073,4.6035,0.0,0.0,0.0,0.0,0.0,0.0,0.0,0.0,0.0,0.0,0.0,0.0,0.0,0.0,4.5786,4.5766,4.5766,4.5766,4.5786,4.58,4.58,4.5761,4.5703,4.5689,4.5264,4.4476,4.4334,0.0,0.0,0.0,0.0,0.0,4.2869,4.2795,4.266,4.266,4.2514,4.2167,4.1373,4.1461,4.1886,0.0,0.0,0.0,0.0,0.0,0.0,0.0,0.0,0.0,0.0,3.5706,3.5694,3.5709,3.5696,3.5696,0.0,0.0,0.0,0.0,0.0,0.0,0.0,0.0,0.0,0.0,4.1113,4.1073,4.1107,4.1101,4.1099,4.1099,4.1091,4.1094,4.1099,4.1091,4.1108,0.0,0.0,0.0,0.0,4.1099,4.1101,0.0,0.0,0.0,0.0,4.1151,4.1171,0.0,0.0,0.0,0.0,0.0,0.0,0.0,0.0,4.222,4.3609,4.3611,0.0,4.6211,4.6162,4.6138,4.6111,0.0,0.0,0.0,0.0,0.0,4.6017,4.6007,4.6008,4.6018,4.6027,4.5998,4.5997,0.0,0.0,0.0,0.0,0.0,0.0,0.0,0.0,0.0,0.0,0.0,0.0,0.0,4.5545,4.5493,4.5493,4.5493,4.5596,4.58,4.5692,4.5337,4.4735,4.4564,4.4088,4.3299,4.3265,0.0,0.0,0.0,0.0,4.2581,4.2493,4.2405,4.2382,4.2219,4.2115,4.2065,4.1832,4.1863,4.1961,0.0,0.0,0.0,0.0,0.0,0.0,0.0,0.0,0.0,0.0,0.0,3.5841,3.5845,3.5849,0.0,0.0,0.0,0.0,0.0,0.0,0.0,0.0,0.0,0.0,4.1172,4.1131,4.1108,4.1107,4.1099,4.1094,4.1094,4.1091,4.1091,4.1094,4.1091,4.1091,0.0,0.0,0.0,0.0,4.1105,0.0,0.0,0.0,0.0,0.0,4.1191,4.1171,0.0,4.1147,4.1065,4.0941,0.0,0.0,0.0,0.0,4.2467,4.3611,4.4,4.5085,4.6105,4.6054,4.6047,4.6035,4.5997,0.0,0.0,0.0,0.0,4.5944,4.5944,4.5941,4.5929,4.5953,4.5941,0.0,0.0,0.0,0.0,0.0,0.0,0.0,0.0,0.0,0.0,0.0,0.0,0.0,0.0,4.5285,4.5184,4.5184,4.5184,4.5304,4.5613,4.5141,4.4666,4.415,4.3694,4.2986,4.2126,4.2048,0.0,0.0,0.0,0.0,4.1116,4.1062,4.0985,4.0917,4.0809,4.0705,4.067,4.067,4.0913,4.1268,0.0,0.0,0.0,0.0,0.0,0.0,0.0,0.0,0.0,0.0,0.0,0.0,0.0,0.0,0.0,0.0,0.0,0.0,0.0,0.0,0.0,0.0,0.0,4.0449,4.1172,4.113,4.1107,4.1107,4.1097,4.1091,4.1091,4.1091,4.1091,4.1108,4.1091,4.1094,0.0,0.0,0.0,0.0,4.1091,0.0,0.0,0.0,0.0,0.0,0.0,0.0,0.0,4.1081,4.1,4.0907,4.0907,0.0,0.0,0.0,0.0,0.0,4.4473,4.5312,4.5977,4.5977,4.5969,4.5975,4.5975,0.0,0.0,0.0,0.0,0.0,0.0,0.0,0.0,0.0,0.0,0.0,0.0,0.0,0.0,0.0,0.0,0.0,0.0,0.0,0.0,0.0,0.0,0.0,0.0,4.4998,4.4839,4.4839,4.4839,4.4992,4.5262,4.4536,4.4,4.3632,4.2924,4.2004,4.0929,4.0814,4.0363,0.0,0.0,0.0,3.9452,3.9452,3.9376,3.9272,3.9272,3.9192,3.9101,3.9101,3.9565,4.0215,0.0,0.0,0.0,0.0,0.0,0.0,0.0,0.0,0.0,0.0,0.0,0.0,0.0,0.0,0.0,0.0,0.0,0.0,0.0,0.0,0.0,0.0,4.0996,4.1035,4.1112,4.111,4.1107,4.1107,4.1101,4.1097,4.1097,4.1097,4.1094,4.1108,4.1094,4.1097,4.1099,0.0,0.0,4.1091,4.1091,0.0,0.0,0.0,0.0,0.0,0.0,0.0,0.0,4.1022,4.0953,4.0907,4.0907,0.0,0.0,0.0,0.0,0.0,4.4469,4.5258,4.5829,4.5829,4.5835,4.5841,4.5841,0.0,0.0,0.0,0.0,0.0,0.0,0.0,0.0,0.0,0.0,0.0,0.0,0.0,0.0,0.0,0.0,0.0,0.0,0.0,0.0,0.0,0.0,0.0,0.0,0.0,4.456,4.456,4.456,4.4587,4.464,4.4632,4.3891,4.2446,4.2227,4.128,3.975,3.9744,3.9614,0.0,0.0,3.9272,3.9156,3.9156,3.9156,3.9129,3.9129,3.9129,3.9101,3.9101,3.9175,3.9398,0.0,0.0,0.0,0.0,0.0,0.0,0.0,0.0,0.0,0.0,0.0,0.0,0.0,0.0,0.0,0.0,0.0,0.0,0.0,0.0,0.0,4.1152,4.1191,4.1172,4.1092,4.1091,4.1108,4.1107,4.1105,4.1103,4.1103,4.1103,4.1103,4.1101,4.1103,4.1105,4.1107,4.1108,4.1112,4.1152,0.0,0.0,0.0,0.0,0.0,0.0,0.0,0.0,0.0,0.0,4.0907,4.0846,4.0846,0.0,0.0,0.0,0.0,0.0,4.5079,4.5544,4.58,4.5805,4.5791,4.5791,4.5791,0.0,0.0,0.0,0.0,0.0,0.0,0.0,0.0,0.0,0.0,0.0,0.0,0.0,0.0,0.0,0.0,0.0,0.0,0.0,0.0,0.0,0.0,0.0,0.0,0.0,4.377,4.4218,4.4218,4.4218,4.4218,4.4298,4.3746,4.2626,4.2133,4.1445,4.0616,4.0168,3.9954,3.9881,0.0,3.9156,3.9101,3.9101,3.9101,3.9101,3.9101,3.9101,3.9101,3.9045,3.9064,3.9091,0.0,0.0,0.0,0.0,0.0,0.0,0.0,0.0,0.0,0.0,0.0,0.0,0.0,0.0,0.0,0.0,0.0,0.0,0.0,0.0,4.0508,4.1172,4.1191,4.1172,4.1092,4.1092,4.1091,4.1108,4.1108,4.1108,4.1108,4.1107,4.1107,4.1107,4.1108,4.111,4.1092,4.1112,4.1152,4.1191,0.0,0.0,0.0,0.0,0.0,0.0,0.0,0.0,0.0,0.0,0.0,0.0,0.0,0.0,0.0,4.3034,4.3924,4.4775,4.5568,4.58,4.58,4.5795,0.0,4.58,4.5781,0.0,0.0,0.0,0.0,0.0,0.0,0.0,0.0,0.0,0.0,0.0,0.0,0.0,0.0,0.0,0.0,0.0,0.0,0.0,0.0,0.0,0.0,0.0,0.0,0.0,4.3355,4.3986,4.4005,4.4005,4.4005,4.4005,4.3639,4.2938,4.2323,4.1874,4.1571,4.0958,4.068,4.0624,3.9974,3.9695,3.9695,3.9695,3.9695,3.9695,3.9695,3.9695,3.9667,3.9581,3.9523,3.9523,0.0,0.0,0.0,0.0,0.0,0.0,0.0,0.0,0.0,0.0,0.0,0.0,0.0,0.0,0.0,0.0,0.0,0.0,0.0,0.0,4.1133,4.1191,4.1191,4.1172,4.1092,4.1092,4.1091,4.1091,4.1091,4.1091,4.1091,4.1108,4.1107,4.1107,4.109,4.1091,4.1092,4.1172,4.1191,4.1191,4.1191,0.0,0.0,0.0,0.0,0.0,0.0,0.0,0.0,0.0,0.0,0.0,0.0,0.0,4.2164,4.3034,4.3924,4.4775,4.5568,4.58,4.58,4.5795,4.58,0.0,4.5715,4.5715,0.0,0.0,0.0,0.0,0.0,0.0,0.0,0.0,0.0,0.0,0.0,0.0,0.0,0.0,0.0,0.0,0.0,0.0,0.0,0.0,0.0,0.0,0.0,0.0,0.0,4.4005,4.4005,4.4005,4.4005,4.4005,4.3596,4.2828,4.2772,4.2314,4.159,4.1534,4.1497,4.1497,4.1441,4.1423,4.1423,4.1423,4.1423,4.1423,4.1423,4.1393,4.1322,4.1194,4.1145,4.1114,0.0,0.0,0.0,0.0,0.0,0.0,0.0,0.0,0.0,0.0,0.0,0.0,0.0,0.0,0.0,0.0,0.0,0.0,0.0,0.0,4.1191,4.1191,4.1191,4.1191,4.1152,4.1152,4.1132,4.1092,4.1132,4.1152,4.1152,4.1151,4.1151,4.1151,4.1152,4.1152,4.1152,4.1191,4.1191,4.1191,4.1191,4.117,0.0,0.0,0.0,0.0,0.0,0.0,0.0,0.0,4.079,4.0887,4.139,4.2125,4.2976,4.3846,4.4703,4.5423,4.5713,4.5776,4.5746,4.5738,4.5742,0.0,0.0,0.0,0.0,0.0,0.0,0.0,0.0,0.0,0.0,0.0,0.0,0.0,0.0,0.0,0.0,0.0,0.0,0.0,0.0,0.0,0.0,0.0,0.0,0.0,0.0,0.0,0.0,4.3986,4.4005,4.4005,4.4005,4.4005,4.3856,4.3559,4.3559,4.3392,4.3076,4.2575,4.2322,4.2242,4.1772,4.1471,4.1422,4.1422,4.1422,4.1422,4.1422,4.141,4.1379,4.1267,4.1235,4.1235,0.0,0.0,0.0,0.0,0.0,0.0,0.0,0.0,0.0,0.0,0.0,0.0,0.0,0.0,0.0,0.0,0.0,0.0,4.1094,4.1191,4.1191,4.1191,4.1191,4.1191,4.1191,4.1191,4.1172,4.1132,4.1172,4.1191,4.1191,4.1191,4.1191,4.1191,4.1191,4.1191,4.1191,4.1191,4.1191,4.1169,4.1169,4.1121,0.0,0.0,0.0,0.0,0.0,0.0,0.0,0.0,4.0965,4.1274,4.1835,4.2783,4.3827,4.4413,4.5138,4.58,4.5765,4.5731,4.57,0.0,0.0,0.0,0.0,0.0,0.0,0.0,0.0,0.0,0.0,0.0,0.0,0.0,0.0,0.0,0.0,0.0,0.0,0.0,0.0,0.0,0.0,0.0,0.0,0.0,0.0,0.0,0.0,0.0,0.0,0.0,0.0,4.4005,4.4005,4.4005,4.4005,4.3974,4.3974,4.3974,4.3986,4.3429,4.3157,4.3076,4.2508,4.2218,4.2137,4.2105,4.2073,4.2073,4.2023,4.2023,4.2023,4.1958,4.186,4.1727,0.0,0.0,0.0,0.0,0.0,0.0,0.0,0.0,0.0,0.0,0.0,0.0,0.0,0.0,0.0,0.0,0.0,0.0,4.1094,4.1191,4.1191,4.1191,4.1191,4.1191,4.1191,4.1191,4.1191,4.1191,4.1191,4.1191,4.1191,4.1191,4.1191,4.1191,4.1191,4.1191,4.1191,4.1191,4.1168,4.1108,4.1108,4.1066,4.0981,0.0,0.0,0.0,0.0,0.0,0.0,0.0,4.1332,4.2009,4.2009,4.3208,4.4587,4.4525,4.5124,4.5781,4.5715,4.57,4.57,0.0,0.0,0.0,0.0,0.0,0.0,0.0,0.0,0.0,0.0,0.0,0.0,0.0,0.0,0.0,0.0,0.0,0.0,0.0,0.0,0.0,0.0,0.0,0.0,0.0,0.0,0.0,0.0,0.0,0.0,0.0,0.0,0.0,4.4005,4.4005,4.3974,4.3897,4.3897,4.3929,4.4005,4.4005,4.4005,4.4005,4.3929,4.3915,4.3897,4.3818,4.3804,4.3771,4.3667,4.3582,4.3582,4.3513,4.3232,4.2882,0.0,0.0,0.0,0.0,0.0,0.0,0.0,0.0,0.0,0.0,0.0,0.0,0.0,0.0,0.0,0.0,0.0,0.0,4.1094,4.1191,4.1191,4.1191,4.1191,4.1191,4.1191,4.1191,4.1191,4.1191,4.1191,4.1191,4.1191,4.1191,4.1191,4.1191,4.1191,4.117,4.1121,4.1121,4.1085,4.1022,4.1022,4.0981,4.0924,0.0,0.0,0.0,0.0,0.0,0.0,0.0,0.0,0.0,4.2642,4.3588,4.4592,4.5156,4.5526,4.5742,4.5706,4.5673,0.0,4.564,0.0,0.0,0.0,0.0,0.0,0.0,0.0,0.0,0.0,0.0,0.0,0.0,0.0,0.0,0.0,0.0,0.0,0.0,0.0,0.0,0.0,0.0,0.0,0.0,0.0,0.0,0.0,0.0,0.0,0.0,0.0,0.0,4.3851,4.3851,4.3851,4.3837,4.3837,4.3818,4.3851,4.3851,4.38,4.3716,4.3682,4.3649,4.3634,4.36,4.36,4.3566,4.3566,4.3513,4.3479,4.3178,4.2995,4.2844,0.0,0.0,0.0,0.0,0.0,0.0,0.0,0.0,0.0,0.0,3.6009,3.5991,0.0,0.0,0.0,3.8457,3.8594,0.0,4.1094,4.1191,4.1191,4.1191,4.1191,4.1191,4.1191,4.1191,4.1191,4.1191,4.1191,4.1191,4.1191,4.1191,4.1191,4.1191,4.117,4.1142,4.1108,4.1074,4.1011,4.0964,4.0964,4.0915,4.0867,0.0,0.0,0.0,0.0,0.0,0.0,0.0,0.0,0.0,4.3404,4.4253,4.5025,4.5549,4.5706,4.5693,4.5676,4.555,0.0,4.5438,4.5243,0.0,0.0,0.0,0.0,0.0,0.0,0.0,0.0,0.0,0.0,0.0,0.0,0.0,0.0,0.0,0.0,0.0,0.0,0.0,0.0,0.0,0.0,0.0,0.0,0.0,0.0,0.0,0.0,0.0,0.0,0.0,4.3804,4.3804,4.3753,4.3719,4.3719,4.3719,4.3686,4.3771,4.3771,4.3667,4.3615,4.3548,4.3497,4.3497,4.3497,4.3497,4.3497,4.3497,4.3534,4.3597,4.3391,4.3041,0.0,0.0,3.5991,3.5991,0.0,0.0,0.0,0.0,0.0,3.6111,3.6122,3.6147,0.0,0.0,0.0,3.8574,3.8711,3.9414,4.1094,4.1191,4.1191,4.1191,4.1191,4.1191,4.1191,4.1191,4.1191,4.1191,4.1191,4.1191,4.1191,4.1191,4.1191,4.1191,4.114,4.1108,4.1081,4.1011,4.0945,4.0878,4.0878,4.0846,4.0778,4.0713,0.0,0.0,0.0,0.0,0.0,0.0,0.0,0.0,4.416,4.499,4.5684,4.569,4.5657,4.564,4.5586,0.0,0.0,4.5161,4.4943,0.0,0.0,0.0,0.0,0.0,0.0,0.0,0.0,0.0,0.0,0.0,0.0,0.0,0.0,0.0,0.0,0.0,0.0,0.0,0.0,0.0,0.0,0.0,0.0,0.0,0.0,0.0,0.0,0.0,0.0,0.0,4.3771,4.3771,4.3719,0.0,4.3582,4.3548,4.3497,4.3686,4.3771,4.3771,4.3634,4.3548,4.3497,4.3497,4.3497,4.3497,4.3497,4.3534,4.3646,4.4308,4.4038,4.3426,0.0,0.0,3.5991,3.5991,0.0,0.0,0.0,0.0,3.625,3.6938,3.7021,3.7276,3.7964,3.8045,0.0,3.953,3.9629,4.0078,4.1133,4.1191,4.1191,4.1191,4.1191,4.1191,4.1191,4.1191,4.1191,4.1191,4.1191,4.1191,4.1191,4.1191,4.117,4.1119,4.1111,4.1074,4.1031,4.0957,4.0878,4.0829,4.075,4.0707,4.0635,4.0621,4.0621,0.0,0.0,0.0,0.0,0.0,0.0,0.0,4.4273,4.4927,4.562,4.5603,4.5457,4.5302,4.5302,4.5096,0.0,0.0,4.4676,0.0,0.0,0.0,0.0,0.0,0.0,0.0,0.0,0.0,0.0,0.0,0.0,0.0,0.0,0.0,0.0,0.0,0.0,0.0,0.0,0.0,0.0,0.0,0.0,0.0,0.0,0.0,0.0,0.0,0.0,4.3566,4.3566,4.3566,4.3566,0.0,4.3513,4.3513,4.3497,4.3532,4.3566,4.3566,4.3513,4.3513,4.3497,4.3497,4.3497,4.3497,4.3497,4.3669,4.3883,4.3674,4.3622,4.3669,0.0,0.0,0.0,0.0,0.0,0.0,0.0,0.0,3.6933,3.7819,3.7921,3.8098,3.8551,3.8593,0.0,0.0,3.9902,4.0273,4.1133,4.1191,4.1191,4.1191,4.1191,4.1191,4.1191,4.1191,4.1191,4.1191,4.1191,4.1191,0.0,0.0,4.1123,4.1108,4.107,4.1006,4.0902,4.0869,4.0779,4.0699,4.0662,4.0621,4.0607,4.0612,0.0,0.0,0.0,0.0,0.0,0.0,0.0,0.0,0.0,0.0,4.5586,4.5586,4.5419,4.5201,4.5201,0.0,0.0,4.4457,0.0,0.0,0.0,0.0,0.0,0.0,0.0,0.0,0.0,0.0,0.0,0.0,0.0,0.0,0.0,0.0,0.0,0.0,0.0,0.0,0.0,0.0,0.0,0.0,0.0,0.0,0.0,4.36,4.3548,0.0,4.3532,4.3497,4.3497,4.3497,4.3497,4.3497,4.3497,4.3497,4.3497,4.3497,4.3497,4.3497,4.3497,4.3497,4.3497,4.3497,4.3497,4.3479,4.3304,4.356,4.3999,4.3895,4.4058,4.4353,0.0,0.0,0.0,0.0,0.0,0.0,0.0,0.0,0.0,3.8717,3.8819,3.8882,3.9022,3.9043,3.9336,0.0,0.0,0.0,4.1152,4.1191,4.1191,4.1191,4.1191,4.1191,4.1191,4.1191,4.1191,4.1191,0.0,0.0,0.0,0.0,0.0,4.1066,4.1,4.0902,4.08,4.0779,4.0711,4.0615,4.0588,4.067,4.0824,0.0,0.0,0.0,0.0,4.2585,4.3412,4.4085,0.0,0.0,0.0,0.0,4.5531,4.5531,4.5322,4.5074,4.5074,0.0,4.4279,4.4048,4.4005,0.0,0.0,0.0,0.0,0.0,0.0,0.0,0.0,0.0,0.0,0.0,0.0,0.0,0.0,0.0,0.0,0.0,0.0,0.0,0.0,0.0,0.0,0.0,0.0,0.0,4.3497,4.3497,4.3497,4.3497,4.3497,4.3497,4.3497,4.3497,4.3497,4.3497,4.3497,4.3497,4.3497,4.3497,4.3497,4.3497,4.3497,4.3497,4.3479,4.3428,4.341,4.3358,4.3102,4.3397,4.3994,4.4428,4.4763,4.5096,0.0,0.0,0.0,0.0,0.0,0.0,0.0,0.0,0.0,0.0,3.9737,3.9995,4.0681,4.082,4.0898,4.1016,4.1035,4.1074,4.1191,0.0,0.0,4.1191,4.1191,4.1191,4.1191,4.1191,4.1191,4.1191,0.0,0.0,0.0,0.0,0.0,4.0924,0.0,0.0,4.08,4.0694,4.0649,4.0667,4.0626,4.1016,0.0,0.0,0.0,0.0,0.0,0.0,0.0,4.4259,4.4797,0.0,0.0,0.0,4.5243,4.5243,4.4896,4.4519,0.0,0.0,4.4048,0.0,4.4005,4.3974,0.0,0.0,0.0,0.0,0.0,0.0,0.0,0.0,0.0,0.0,0.0,0.0,0.0,0.0,0.0,0.0,0.0,0.0,0.0,0.0,0.0,0.0,0.0,0.0,4.3497,4.3497,4.3497,4.3497,4.3497,4.3497,4.3497,4.3497,4.3497,4.3497,4.3497,4.3497,4.3497,4.3497,4.3497,4.3497,4.3497,4.3497,4.3479,4.3105,4.2957,4.2992,4.3194,4.3464,4.392,4.4583,4.505,4.5373,0.0,0.0,0.0,0.0,0.0,0.0,0.0,0.0,0.0,0.0,0.0,4.0718,4.1052,4.1152,4.1191,4.1191,4.1191,4.1191,4.1191,4.1191,4.1191,4.1191,4.1191,4.1191,4.1191,4.1168,4.1144,0.0,0.0,0.0,0.0,4.0978,4.0955,0.0,0.0,0.0,0.0,0.0,4.0913,4.1321,4.1266,4.1774,0.0,0.0,0.0,0.0,0.0,0.0,0.0,0.0,0.0,4.5568,4.5419,0.0,0.0,0.0,4.4701,0.0,4.4181,4.4017,4.3929,0.0,4.3883,4.3883,0.0,0.0,0.0,0.0,0.0,0.0,0.0,0.0,0.0,0.0,0.0,0.0,0.0,0.0,0.0,0.0,0.0,0.0,0.0,0.0,0.0,0.0,0.0,4.3497,4.3497,4.3497,4.3497,4.3497,4.3497,4.3497,4.3497,4.3497,4.3497,4.3497,4.3497,4.3497,4.3497,4.3497,4.3375,4.3142,4.3142,4.3014,4.277,4.2577,4.2749,4.3099,4.2995,4.355,4.4441,4.4498,4.4939,4.5423,0.0,0.0,0.0,0.0,0.0,0.0,0.0,0.0,0.0,0.0,0.0,4.1108,4.1091,0.0,0.0,0.0,4.1191,4.1191,4.1191,4.1191,4.1191,4.1191,4.1191,4.1191,4.1191,4.1123,0.0,0.0,0.0,0.0,4.0846,4.0829,4.0818,0.0,4.074,0.0,0.0,0.0,0.0,0.0,0.0,0.0,0.0,0.0,0.0,0.0,0.0,0.0,0.0,0.0,0.0,0.0,0.0,0.0,0.0,0.0,0.0,0.0,0.0,0.0,4.3865,4.3837,4.3804,4.3804,0.0,0.0,0.0,0.0,0.0,0.0,0.0,0.0,0.0,0.0,0.0,0.0,0.0,0.0,0.0,0.0,0.0,0.0,0.0,0.0,0.0,0.0,0.0,4.3497,4.3497,4.3497,4.3497,4.3497,4.3497,4.3497,4.3497,4.3497,4.3497,4.3497,4.3497,4.3497,4.3497,4.3497,4.3214,4.2711,4.2844,4.2634,4.2198,4.2074,4.2452,4.3137,4.2938,4.3598,4.4736,4.4629,4.4941,4.5423,0.0,0.0,0.0,0.0,0.0,0.0,0.0,0.0,0.0,0.0,0.0,4.1107,4.1107,4.1151,4.1191,4.1191,4.1191,4.1191,4.1191,4.1191,4.1191,4.1191,4.1191,0.0,4.1191,4.1123,0.0,0.0,0.0,0.0,4.0983,4.0726,4.0648,4.0703,4.0635,4.1065,4.184,0.0,0.0,0.0,0.0,4.3528,0.0,0.0,0.0,0.0,0.0,0.0,0.0,0.0,0.0,0.0,0.0,0.0,0.0,0.0,0.0,0.0,0.0,4.3897,0.0,4.3837,0.0,0.0,0.0,0.0,0.0,0.0,0.0,0.0,0.0,0.0,0.0,0.0,0.0,0.0,0.0,0.0,0.0,0.0,0.0,0.0,0.0,0.0,0.0,0.0,0.0,4.3497,4.3497,4.3497,4.3497,4.3497,4.3497,4.3497,4.3497,4.3497,4.3497,4.3497,4.3497,4.3497,4.3497,4.3497,4.305,4.2239,4.2711,4.2634,4.2157,4.1735,4.199,4.2752,4.3048,4.3629,4.4406,4.5096,4.5389,4.5423,0.0,0.0,0.0,0.0,0.0,0.0,0.0,0.0,0.0,0.0,0.0,0.0,0.0,4.1151,4.1191,4.1191,4.1191,4.1191,4.1191,4.1191,4.1191,4.1191,4.1191,4.1191,4.1191,0.0,0.0,0.0,0.0,4.082,4.0749,4.0687,4.0919,4.1388,4.1382,4.1543,4.187,4.2412,0.0,0.0,4.3874,4.4374,0.0,0.0,0.0,0.0,0.0,0.0,0.0,0.0,0.0,0.0,0.0,0.0,0.0,0.0,0.0,0.0,0.0,0.0,0.0,4.3634,4.3618,0.0,0.0,0.0,0.0,0.0,0.0,0.0,0.0,0.0,0.0,0.0,0.0,0.0,0.0,0.0,0.0,0.0,0.0,0.0,0.0,0.0,0.0,0.0,0.0,0.0,4.3497,4.3497,4.3497,4.3497,4.3497,4.3497,4.3497,4.3497,4.3497,4.3497,4.3497,4.3375,4.3105,4.3105,4.2616,4.1778,4.1948,4.1753,4.1328,4.1163,4.1881,4.3013,4.316,4.3923,4.5044,4.532,4.5423,4.5423,0.0,0.0,0.0,0.0,0.0,0.0,0.0,0.0,0.0,0.0,0.0,0.0,0.0,0.0,4.1191,4.1191,4.1191,4.1191,4.1191,4.1191,4.1191,4.1191,4.1191,4.1191,4.1172,0.0,0.0,0.0,0.0,0.0,0.0,4.0932,4.1321,4.1816,4.2393,4.2643,0.0,0.0,0.0,4.4739,0.0,4.5066,4.5586,0.0,0.0,0.0,0.0,0.0,0.0,0.0,0.0,0.0,0.0,0.0,0.0,0.0,0.0,0.0,0.0,0.0,0.0,0.0,0.0,0.0,0.0,0.0,0.0,0.0,0.0,0.0,0.0,0.0,0.0,0.0,0.0,0.0,0.0,0.0,0.0,0.0,0.0,0.0,0.0,0.0,0.0,0.0,0.0,0.0,4.3901,4.3644,4.3497,4.3497,4.3497,4.3497,4.3497,4.3497,4.3497,4.3497,4.3375,4.316,4.2882,4.2729,4.2257,4.1472,4.1472,4.1283,4.0888,4.0888,4.163,4.2802,4.3111,4.394,4.5061,4.5337,4.5371,4.53,0.0,0.0,0.0,0.0,0.0,0.0,0.0,0.0,0.0,0.0,0.0,0.0,0.0,0.0,0.0,4.1191,4.1191,4.1191,4.1191,4.1191,4.1191,4.1191,4.1191,4.1172,4.1092,0.0,0.0,0.0,0.0,0.0,0.0,0.0,4.1835,4.195,4.3566,4.4316,4.4335,0.0,4.4816,4.5586,0.0,4.5586,4.5586,0.0,0.0,0.0,4.5282,4.518,0.0,0.0,0.0,0.0,0.0,0.0,0.0,0.0,0.0,0.0,0.0,0.0,0.0,0.0,0.0,0.0,4.3497,0.0,0.0,0.0,0.0,0.0,0.0,0.0,0.0,0.0,0.0,0.0,0.0,0.0,0.0,0.0,0.0,0.0,0.0,0.0,0.0,0.0,0.0,4.4745,4.4745,4.3975,4.3516,4.3497,4.3497,4.3497,4.3497,4.3497,4.3479,4.3497,4.3087,4.2882,4.2844,4.2378,4.1924,4.1507,4.1507,4.129,4.094,4.0922,4.1354,4.2112,4.2938,4.3698,4.4406,4.5147,4.53,4.5177,0.0,0.0,0.0,0.0,0.0,0.0,0.0,0.0,0.0,0.0,0.0,0.0,0.0,0.0,4.1191,4.1191,4.1191,4.1191,4.1191,4.1191,4.1191,4.1191,4.1152,4.1112,4.1092,0.0,0.0,0.0,0.0,0.0,0.0,0.0,0.0,0.0,4.4085,4.4643,4.524,4.524,0.0,0.0,4.5586,4.5586,0.0,0.0,0.0,0.0,0.0,4.4599,0.0,0.0,4.4079,4.3942,0.0,0.0,0.0,0.0,0.0,0.0,4.3532,0.0,0.0,0.0,0.0,0.0,4.3497,4.3497,0.0,0.0,0.0,0.0,0.0,0.0,0.0,0.0,0.0,0.0,0.0,0.0,0.0,0.0,0.0,0.0,0.0,0.0,0.0,0.0,4.5681,4.5571,4.5571,4.4819,4.4103,4.3516,4.3497,4.3497,4.3497,4.3497,4.3339,4.3069,4.2957,4.2537,4.1864,4.1735,4.1743,4.1838,4.1838,4.2137,4.2492,4.1923,4.2147,4.2973,4.3682,4.444,4.513,4.5232,4.523,4.5194,0.0,0.0,4.0519,4.0602,0.0,0.0,4.0602,0.0,0.0,0.0,0.0,0.0,0.0,0.0,0.0,4.1191,4.1191,4.1191,4.1191,4.1191,4.1191,4.1152,4.1112,4.1091,4.1107,0.0,0.0,0.0,0.0,0.0,0.0,0.0,0.0,0.0,4.4682,0.0,0.0,0.0,0.0,0.0,4.5586,0.0,0.0,4.5222,4.5096,0.0,0.0,0.0,4.4221,4.3961,4.3786,0.0,0.0,0.0,0.0,0.0,0.0,0.0,0.0,0.0,0.0,0.0,0.0,0.0,4.3497,4.3497,4.3497,0.0,0.0,0.0,0.0,0.0,0.0,0.0,0.0,0.0,0.0,0.0,0.0,0.0,0.0,0.0,0.0,0.0,0.0,4.6911,4.6599,4.625,4.592,4.5149,4.4488,4.4011,4.3663,4.3497,4.3497,4.3339,4.3105,4.29,4.2498,4.221,4.1981,4.1799,4.2002,4.2475,4.2475,4.28,4.3147,4.2959,4.2976,4.3301,4.3992,4.4544,4.4992,4.5197,4.5247,4.5177,0.0,0.0,4.0489,4.0489,4.0489,4.0489,0.0,0.0,0.0,0.0,0.0,0.0,0.0,0.0,0.0,0.0,4.1191,4.1191,4.1191,4.1191,4.1152,4.1092,4.1091,4.1107,4.1094,4.1111,0.0,0.0,0.0,0.0,0.0,0.0,0.0,0.0,4.524,4.5586,0.0,0.0,0.0,4.5586,4.5568,4.54,0.0,0.0,4.4849,0.0,4.4279,4.4151,4.4091,4.3832,4.3686,0.0,0.0,0.0,0.0,0.0,4.3497,0.0,0.0,0.0,0.0,0.0,0.0,0.0,4.3497,4.3497,4.3497,0.0,0.0,0.0,0.0,0.0,0.0,0.0,0.0,0.0,0.0,0.0,0.0,0.0,0.0,0.0,0.0,4.8306,4.8306,4.8306,4.7645,4.6893,4.6085,4.5369,4.4947,4.4856,4.4013,4.3593,4.3684,4.3195,4.2969,4.2982,4.2172,4.2121,4.273,4.2306,4.2543,4.3302,4.3285,4.3337,4.3424,4.3993,4.3821,4.3371,4.4113,4.4354,4.444,4.5129,4.5264,4.5123,4.0489,4.0489,4.0489,4.0489,4.0489,4.0489,4.0489,0.0,0.0,0.0,0.0,0.0,0.0,0.0,0.0,0.0,4.1191,4.1191,4.1191,4.1152,4.1112,4.1092,4.1107,4.1072,4.1013,4.1595,4.182,0.0,0.0,0.0,0.0,0.0,0.0,0.0,4.5509,4.5586,0.0,0.0,0.0,4.5495,4.5283,0.0,4.5074,4.4572,4.4346,4.425,4.3974,4.38,4.3697,0.0,4.3532,4.3513,0.0,0.0,0.0,0.0,0.0,0.0,0.0,0.0,0.0,0.0,0.0,0.0,4.3497,4.3497,4.3497,0.0,0.0,0.0,0.0,0.0,0.0,0.0,0.0,0.0,0.0,0.0,0.0,0.0,0.0,0.0,0.0,4.8306,4.8306,4.8306,4.8159,4.7719,4.6929,4.6728,4.6342,4.5681,4.4582,4.4284,4.4862,4.3778,4.3362,4.3623,4.3441,4.3266,4.3071,4.2856,4.3168,4.3924,4.382,4.411,4.4675,4.4759,4.4489,4.3993,4.4643,4.4864,4.4881,4.4872,4.4886,4.4886,4.0593,4.0588,4.0615,4.0642,4.0655,4.079,4.1228,0.0,0.0,0.0,0.0,0.0,0.0,0.0,0.0,0.0,0.0,0.0,0.0,0.0,4.2401,4.2399,4.2394,4.2354,4.2253,4.2574,4.2671,0.0,0.0,0.0,0.0,0.0,0.0,0.0,0.0,0.0,0.0,0.0,4.5568,4.5476,4.5201,0.0,4.48,4.428,4.4042,4.3873,4.3701,4.36,4.3548,4.3532,4.3497,0.0,0.0,4.3497,4.3497,0.0,4.3497,4.3497,0.0,0.0,0.0,4.3497,0.0,0.0,0.0,4.3497,4.3497,4.3497,0.0,0.0,0.0,0.0,0.0,0.0,0.0,0.0,0.0,0.0,0.0,0.0,0.0,0.0,0.0,4.8306,4.8306,4.8306,4.8306,4.8122,4.7737,4.7124,4.6588,4.6168,4.4953,4.4474,4.4869,4.3987,4.3631,4.3804,4.3602,4.3586,4.3767,4.3648,4.401,4.475,4.4697,4.4868,4.5194,4.514,4.4864,4.4573,4.4895,4.4978,4.4978,4.4923,4.4886,4.4886,4.0746,4.0829,4.0974,4.1044,4.1179,4.1538,4.2238,0.0,0.0,0.0,0.0,0.0,0.0,0.0,0.0,0.0,0.0,0.0,0.0,0.0,4.3709,4.3704,4.3679,4.3591,4.3486,4.3569,4.3548,4.3405,0.0,0.0,0.0,0.0,0.0,0.0,0.0,0.0,0.0,0.0,0.0,4.5457,0.0,4.4872,4.4519,4.4076,4.3791,4.3582,4.3513,4.3497,4.3497,4.3497,0.0,4.3497,4.3497,4.3497,0.0,0.0,0.0,0.0,0.0,0.0,0.0,0.0,0.0,4.3497,0.0,0.0,0.0,4.3497,0.0,0.0,0.0,0.0,0.0,0.0,0.0,0.0,0.0,0.0,0.0,0.0,0.0,0.0,0.0,4.8306,4.8306,4.8306,4.8306,4.8306,4.8306,4.7256,4.6649,4.6649,4.5326,4.468,4.484,4.4197,4.3978,4.4117,4.3779,4.3923,4.4492,4.4492,4.4785,4.5371,4.5318,4.5318,4.5264,4.514,4.5032,4.494,4.4923,4.494,4.4923,4.4923,4.4923,4.4923,4.0984,4.1325,4.1865,4.1947,4.2588,4.3141,4.3238,0.0,0.0,0.0,0.0,0.0,0.0,0.0,0.0,0.0,0.0,0.0,4.3691,0.0,0.0,4.3704,4.3582,4.3486,4.3413,4.4039,4.4312,4.4177,0.0,0.0,0.0,0.0,0.0,0.0,4.5586,0.0,0.0,0.0,4.5513,0.0,4.5074,4.4751,0.0,4.3791,4.3548,4.3532,4.3479,4.3497,4.3497,0.0,4.3497,4.3497,0.0,4.3497,0.0,0.0,0.0,0.0,0.0,0.0,0.0,0.0,4.3497,0.0,0.0,0.0,4.3497,4.3497,0.0,0.0,0.0,0.0,0.0,0.0,0.0,0.0,0.0,0.0,0.0,0.0,0.0,0.0,0.0,0.0,4.8306,4.8306,4.8306,4.8306,4.8306,4.7765,4.7446,4.7446,4.5828,4.5299,4.6002,4.4813,4.4578,4.5217,4.5165,4.5216,4.5303,4.5163,4.5161,4.5247,4.5086,4.4995,4.4886,4.4831,4.4793,4.4626,4.4793,4.4737,4.4626,4.4626,4.4626,4.4626,4.1729,4.2277,4.2952,4.3013,4.3331,4.3746,0.0,0.0,0.0,0.0,0.0,0.0,0.0,0.0,0.0,0.0,0.0,4.5214,0.0,0.0,0.0,0.0,4.5085,4.4966,4.4851,4.5112,4.5205,4.5047,4.5413,0.0,0.0,0.0,0.0,0.0,4.5568,0.0,4.5586,0.0,0.0,0.0,0.0,0.0,0.0,4.3968,4.3682,4.3497,4.3497,4.3497,4.3497,0.0,4.3497,0.0,0.0,0.0,0.0,0.0,0.0,0.0,0.0,0.0,0.0,0.0,0.0,0.0,0.0,0.0,4.3626,0.0,0.0,0.0,0.0,0.0,0.0,0.0,0.0,0.0,0.0,0.0,0.0,0.0,0.0,0.0,0.0,0.0,0.0,0.0,0.0,4.8306,4.8306,4.7609,4.7204,4.7204,4.5932,4.5371,4.5752,4.52,4.5113,4.5423,4.5423,4.5371,4.53,4.5247,4.5177,4.5086,4.5032,4.4978,4.494,4.494,4.4831,4.4737,4.4776,4.4737,4.4587,4.4587,4.4587,4.4587,4.2974,0.0,0.0,0.0,0.0,0.0,0.0,0.0,0.0,0.0,0.0,0.0,4.6308,4.6308,0.0,0.0,4.6307,4.6307,0.0,0.0,4.6276,0.0,0.0,0.0,0.0,4.5775,4.57,4.5586,4.5586,0.0,0.0,0.0,0.0,0.0,0.0,4.5549,4.5586,0.0,0.0,4.54,4.5115,4.4751,4.4374,4.3999,4.3716,4.3497,4.3497,4.3497,4.3497,4.3497,4.3497,0.0,4.3497,0.0,0.0,0.0,0.0,0.0,4.3497,0.0,0.0,0.0,0.0,0.0,0.0,0.0,0.0,0.0,0.0,0.0,0.0,0.0,0.0,0.0,0.0,0.0,0.0,0.0,0.0,0.0,0.0,0.0,0.0,0.0,0.0,0.0,0.0,0.0,4.8286,4.7353,4.6863,4.6863,4.5887,4.5371,4.5371,4.5371,4.5318,4.5318,4.5318,4.5247,4.514,4.514,4.5086,4.4978,4.4978,4.4978,4.494,4.494,4.4886,4.4737,4.4737,4.4682,4.4587,4.4587,4.4587,4.4587,4.4865,4.4734,0.0,0.0,0.0,0.0,0.0,0.0,0.0,0.0,0.0,0.0,0.0,0.0,0.0,0.0,0.0,4.6303,4.6307,0.0,4.6249,0.0,0.0,4.5875,0.0,0.0,4.5603,4.5586,0.0,0.0,0.0,0.0,0.0,0.0,0.0,4.5586,4.5586,4.5476,4.5438,4.5476,4.5339,4.4929,4.4346,0.0,4.3532,4.3497,4.3497,0.0,0.0,4.3497,4.3497,0.0,0.0,0.0,0.0,0.0,0.0,0.0,0.0,0.0,0.0,4.3497,0.0,0.0,0.0,0.0,4.4892,0.0,0.0,0.0,0.0,0.0,0.0,0.0,0.0,0.0,0.0,0.0,0.0,0.0,0.0,0.0,0.0,0.0,0.0,0.0,0.0,0.0,4.8187,4.7266,4.6707,4.6707,4.5837,4.5371,4.5194,4.5194,4.514,4.5032,4.5032,4.5032,4.4978,4.4978,4.4978,4.4978,4.4978,4.494,4.4776,4.4776,4.4737,4.4643,4.4643,4.457,4.4587,4.4587,4.4587,4.4587,4.5715,0.0,0.0,0.0,0.0,0.0,0.0,4.6307,0.0,0.0,0.0,0.0,0.0,4.6308,4.6308,0.0,0.0,4.6301,4.6303,4.621,0.0,0.0,0.0,4.5815,0.0,0.0,0.0,0.0,0.0,0.0,0.0,0.0,0.0,0.0,0.0,4.5495,0.0,0.0,0.0,0.0,0.0,4.4591,4.4374,0.0,0.0,4.3497,4.3497,4.3497,0.0,4.3497,4.3497,4.3497,4.3497,4.3497,4.3497,4.3497,4.3497,0.0,0.0,0.0,4.3497,4.3497,0.0,0.0,0.0,0.0,0.0,0.0,0.0,0.0,0.0,0.0,0.0,0.0,0.0,0.0,0.0,0.0,0.0,0.0,0.0,0.0,0.0,0.0,0.0,0.0,0.0,0.0,0.0,4.7089,4.6566,4.6165,4.5563,4.5194,4.5086,4.5086,4.5032,4.4978,4.4978,4.4923,4.4886,4.4886,4.4831,4.4737,4.4737,4.4737,4.4682,4.4682,4.4626,4.4587,4.4587,4.4587,4.4587,4.4587,4.4587,4.4587,4.6167,0.0,0.0,0.0,0.0,0.0,0.0,0.0,0.0,0.0,4.6308,0.0,4.6308,0.0,4.6308,0.0,4.6303,4.6276,4.6225,4.6156,0.0,4.5996,4.5879,0.0,0.0,0.0,0.0,0.0,0.0,4.5586,0.0,0.0,0.0,0.0,0.0,0.0,4.5495,0.0,4.5359,0.0,0.0,4.4493,0.0,0.0,4.3949,4.3497,0.0,4.3497,4.3497,4.3497,4.3497,4.3497,4.3497,4.3497,4.3497,4.3497,4.3497,4.3497,4.3497,4.3699,0.0,4.392,4.4525,0.0,4.5498,0.0,0.0,0.0,0.0,0.0,0.0,0.0,0.0,0.0,0.0,0.0,0.0,4.8306,0.0,0.0,0.0,0.0,0.0,0.0,0.0,0.0,0.0,0.0,0.0,0.0,4.6231,4.5885,4.5407,4.5123,4.494,4.494,4.4869,4.4886,4.4886,4.4886,4.4776,4.4776,4.472,4.4682,4.4626,4.4587,4.4587,4.4587,4.4587,4.4587,4.4587,4.4587,4.4587,4.4587,4.4587,4.4587,4.6265,4.6305,0.0,0.0,4.6306,0.0,0.0,0.0,4.6308,0.0,4.6308,4.6308,4.6308,4.6308,4.6307,4.6307,4.63,0.0,4.6111,4.6086,0.0,0.0,4.58,4.5727,4.5603,0.0,0.0,0.0,0.0,0.0,0.0,0.0,0.0,0.0,4.5513,0.0,4.5495,4.5419,4.5398,4.5338,4.4934,4.4624,4.4346,4.4079,0.0,4.3497,4.3497,4.3497,4.3497,4.3497,4.3497,4.3497,4.3497,4.3497,4.3497,4.3497,4.3497,4.3497,4.3534,4.4121,4.4727,4.4764,0.0,0.0,0.0,0.0,4.7388,0.0,0.0,0.0,0.0,0.0,0.0,0.0,0.0,0.0,0.0,0.0,0.0,0.0,0.0,0.0,0.0,0.0,0.0,0.0,0.0,0.0,0.0,0.0,4.5786,4.5735,4.5389,4.5032,4.4776,4.4776,4.4737,4.4626,4.4737,4.4776,4.4776,4.4776,4.4776,4.4776,4.4626,4.4587,4.4587,4.4587,4.4587,4.4587,4.4587,4.4587,4.4587,4.4587,4.4587,4.4587,4.6286,4.6307,4.6308,0.0,4.6308,4.6308,0.0,0.0,0.0,0.0,4.6308,4.6308,4.6308,4.6308,4.6306,4.6303,4.6218,0.0,0.0,0.0,0.0,4.5814,4.5696,4.5637,4.5586,4.5586,0.0,4.5586,0.0,0.0,4.5586,0.0,0.0,0.0,0.0,0.0,4.5419,4.536,4.5194,4.4934,4.4624,4.4346,0.0,0.0,4.3582,4.3497,4.3497,4.3497,4.3497,4.3497,4.3497,4.3497,4.3497,4.3497,4.3497,4.3497,4.3497,4.3626,4.4232,4.4544,4.4856,4.5443,4.6214,4.6856,0.0,0.0,0.0,0.0,0.0,0.0,0.0,0.0,0.0,0.0,0.0,0.0,0.0,0.0,0.0,0.0,0.0,0.0,0.0,0.0,0.0,0.0,0.0,0.0,0.0,0.0,0.0,4.5086,4.494,4.4831,4.4626,4.4626,4.4682,4.4737,4.4682,4.4682,4.4793,4.4682,4.4626,4.4626,4.4626,4.4587,4.4587,4.4587,4.4587,4.4587,4.4587,4.4587,4.4587,4.4587,4.4587,4.4587,4.6308,4.6308,0.0,4.6308,0.0,0.0,4.6308,0.0,0.0,4.6308,4.6308,0.0,4.6308,4.6243,4.6209,4.6202,4.6079,0.0,4.5969,0.0,0.0,4.5731,4.5654,4.5586,4.5586,4.5586,0.0,4.5586,0.0,0.0,4.5586,0.0,0.0,0.0,0.0,4.5419,0.0,4.5339,4.5194,4.4981,4.4565,0.0,0.0,4.3664,4.3497,4.3497,4.3497,4.3497,4.3497,4.3497,4.3497,4.3497,4.3497,4.3497,4.3552,4.392,4.4011,4.4195,4.5021,4.548,4.5865,4.6324,4.704,4.7627,4.7627,4.7976,4.8306,0.0,0.0,0.0,0.0,0.0,0.0,0.0,0.0,0.0,0.0,0.0,0.0,0.0,0.0,0.0,0.0,0.0,0.0,0.0,0.0,0.0,0.0,0.0,0.0,4.4831,4.4776,4.4737,4.4587,4.4587,4.4626,4.4737,4.4682,4.4737,4.4793,4.4737,4.4682,4.4682,4.4643,4.4587,4.4587,4.4587,4.4384,4.4045,4.3707,4.3572,4.3572,4.3572,4.3792,4.4028,4.6308,0.0,0.0,0.0,0.0,0.0,0.0,4.6289,0.0,4.6308,0.0,4.6268,4.6265,4.6156,4.6072,4.6073,0.0,4.5852,4.5794,4.5786,4.5712,4.5622,4.5586,4.5586,4.5586,4.5586,0.0,0.0,0.0,0.0,0.0,0.0,0.0,0.0,0.0,0.0,0.0,4.5454,4.5449,0.0,4.49,4.4693,4.4607,4.4026,4.3809,4.3809,4.3809,4.3663,4.3497,4.3497,4.3552,4.3644,4.3644,4.3718,4.3938,4.4654,4.4874,4.5039,4.5847,4.6581,4.715,4.7241,4.7792,4.8306,4.8306,4.8306,4.8306,4.8306,4.8306,4.8306,0.0,0.0,0.0,0.0,0.0,0.0,0.0,0.0,0.0,0.0,0.0,0.0,0.0,0.0,0.0,0.0,0.0,0.0,0.0,0.0,0.0,4.4776,4.4776,0.0,4.4587,0.0,4.4626,4.4643,4.4737,4.4776,4.4776,4.4776,4.4776,4.4793,4.4626,4.4519,4.4418,4.4418,4.3961,4.32,4.254,4.2286,4.2286,4.2185,4.2557,4.3047,0.0,0.0,0.0,0.0,0.0,4.6288,4.6234,4.6265,4.6308,4.6308,4.62,4.614,4.614,4.6027,4.5938,4.5948,4.5863,0.0,0.0,0.0,0.0,4.5586,4.5586,4.5586,4.5586,4.5586,4.5586,0.0,0.0,0.0,0.0,0.0,0.0,0.0,0.0,0.0,4.5437,4.6106,0.0,4.5987,4.6308,4.63,4.602,4.5639,4.548,4.548,4.548,4.4617,4.3497,4.3497,4.3938,4.4488,4.4488,4.4947,4.5498,4.5645,4.5681,4.5865,4.6673,4.7003,4.7278,4.7921,4.8214,4.8306,4.8306,4.8306,4.8306,4.8306,4.8306,4.8306,4.8306,0.0,0.0,0.0,0.0,0.0,0.0,0.0,0.0,0.0,0.0,0.0,0.0,0.0,0.0,0.0,0.0,0.0,0.0,0.0,0.0,0.0,0.0,0.0,0.0,0.0,0.0,4.4776,4.4682,4.4682,4.4793,4.4682,4.4626,4.4626,4.4626,4.4215,4.3623,4.3623,4.3183,4.2472,4.2337,4.2286,4.2219,4.1627,4.1474,4.166,0.0,0.0,0.0,0.0,0.0,0.0,0.0,4.6189,0.0,4.6156,4.6089,4.604,4.6001,4.592,4.5844,4.5852,4.5766,4.57,4.57,4.6061,4.6278,4.6278,4.6663,0.0,4.6894,4.6894,4.6894,4.6894,0.0,0.0,0.0,0.0,0.0,0.0,0.0,4.6398,0.0,0.0,0.0,4.7006,4.711,4.7052,4.688,4.6544,4.6415,4.6415,4.6234,4.5666,4.4986,4.4798,4.5002,4.5333,4.5333,4.559,4.5975,4.6416,4.6526,4.6709,4.7517,4.7737,4.7829,4.8214,4.8306,4.8306,4.8306,4.8306,4.8306,4.8306,4.8306,4.8306,4.8306,4.8306,0.0,0.0,0.0,0.0,0.0,0.0,0.0,0.0,0.0,0.0,0.0,0.0,0.0,0.0,0.0,0.0,0.0,0.0,0.0,0.0,0.0,0.0,0.0,0.0,0.0,4.4682,4.4626,4.4626,4.4682,4.4626,4.4587,4.4553,4.4147,4.3775,4.3352,4.2591,4.2049,4.1677,4.1288,4.1153,4.1153,4.1187,4.1204,4.1204,0.0,4.6738,0.0,0.0,4.679,0.0,4.6723,4.6638,4.645,4.6072,4.5974,4.5939,4.5871,4.5815,4.5824,4.6027,4.594,4.5951,4.6124,4.6778,4.7163,4.7163,4.7759,4.8105,4.8105,4.8105,4.8105,0.0,0.0,0.0,0.0,0.0,0.0,0.0,0.0,0.0,0.0,0.0,4.8133,4.8063,4.796,4.7915,4.7863,4.7446,4.7278,4.7267,4.6917,4.6802,4.6768,4.6507,4.6305,4.6159,4.6159,4.6269,4.6526,4.7186,4.737,4.7498,4.8141,4.8306,4.8306,4.8306,4.8306,4.8306,4.8306,4.8306,4.8306,4.8306,4.8306,4.8306,4.8306,4.8306,0.0,0.0,0.0,0.0,0.0,0.0,0.0,0.0,0.0,0.0,0.0,0.0,0.0,0.0,0.0,0.0,0.0,0.0,0.0,0.0,0.0,4.4587,4.4587,0.0,4.4587,0.0,4.4587,4.4587,4.4587,4.4587,4.4485,4.4299,4.369,4.3234,4.2844,4.1508,4.0967,4.0916,4.0493,4.0307,4.0409,4.1153,4.1441,4.1356,0.0,0.0,0.0,0.0,0.0,0.0,0.0,4.828,4.7678,4.6261,4.592,4.5822,4.5803,4.5692,4.5948,4.6719,4.6778,4.7086,4.7817,4.7952,4.799,4.799,4.8067,4.8105,4.8105,4.8105,4.8105,0.0,0.0,0.0,0.0,0.0,0.0,0.0,0.0,0.0,0.0,4.8711,4.8993,4.8999,4.9397,4.9576,4.9503,4.8875,4.8609,4.8593,4.8237,4.8105,4.8105,4.8086,4.759,4.7003,4.7003,4.7498,4.8104,4.8177,4.8196,4.8214,4.8288,4.8306,4.8306,4.8306,4.8306,4.8306,4.8306,4.8306,4.8306,4.8306,4.8306,4.8306,4.8306,4.8306,4.8306,0.0,0.0,0.0,0.0,0.0,0.0,0.0,0.0,0.0,0.0,0.0,0.0,0.0,0.0,0.0,0.0,0.0,0.0,4.4587,0.0,4.4587,4.4587,4.4587,0.0,4.4587,4.4587,4.4587,4.4587,4.4587,4.4198,4.3521,4.3453,4.2658,4.1339,4.0527,4.0189,4.024,4.0865,4.1102,4.1187,4.1914,4.2185,4.2185,0.0,0.0,0.0,0.0,0.0,0.0,0.0,4.8393,4.8121,4.7509,4.7332,4.7237,4.7185,4.712,4.724,4.7586,4.7625,4.7759,4.8086,4.8586,4.8875,4.8875,4.9375,4.9663,4.9663,4.9663,4.9663,0.0,0.0,0.0,0.0,0.0,0.0,0.0,0.0,4.9106,4.9564,4.9869,4.9939,4.9866,4.9873,4.983,4.973,4.9271,4.9113,4.9048,4.8711,4.8586,4.855,4.8364,4.8104,4.7829,4.7829,4.8049,4.8306,4.8306,4.8306,4.8306,4.8306,4.8306,4.8306,4.8306,4.8306,4.8306,4.8306,4.8306,4.8306,4.8306,4.8306,4.8306,4.8306,4.8306,4.8306,0.0,0.0,0.0,0.0,0.0,0.0,0.0,0.0,0.0,0.0,0.0,0.0,0.0,0.0,0.0,0.0,0.0,0.0,4.4587,0.0,4.4587,4.4587,4.4587,4.4587,4.4587,4.4587,4.4587,4.4553,4.4096,4.3234,4.2083,4.2083,4.1491,4.0544,4.0696,4.0747,4.0832,4.1559,4.1863,4.1948,4.2692,4.2963,4.3031,4.9098,0.0,4.9352,0.0,4.9198,4.9186,4.9146,4.9053,4.9006,4.901,4.8964,4.8719,4.8163,4.8105,4.8202,4.8471,4.849,4.8586,4.8856,4.9433,4.9779,4.9779,5.0356,0.0,5.0702,5.0702,5.0702,5.0702,5.0067,0.0,0.0,0.0,0.0,0.0,4.976,5.0067,5.0603,5.0582,5.0438,5.0217,5.0006,4.9784,4.9618,4.9271,4.9145,4.9113,4.8763,4.8658,4.8623,4.8364,4.8306,4.8306,4.8306,4.8306,4.8306,4.8306,4.8306,4.8306,4.8306,4.8306,4.8306,4.8306,4.8306,4.8306,4.8306,4.8306,4.8306,4.8306,4.8306,4.8306,4.8306,4.8306,4.8306,4.8306,0.0,0.0,0.0,0.0,0.0,0.0,0.0,4.6472,4.5734,0.0,0.0,0.0,0.0,0.0,0.0,0.0,0.0,0.0,0.0,0.0,0.0,4.4587,4.4587,4.4587,4.4587,4.4587,4.4553,4.3538,4.2523,4.1508,4.1288,4.1018,4.0781,4.1305,4.1525,4.1593,4.2337,4.2625,4.2726,4.347,4.3758,4.3876,4.9972,5.0568,5.1045,5.0975,5.0908,5.0855,5.0863,5.0756,5.0683,5.0683,5.0664,5.001,4.8298,4.8105,4.8452,4.9317,4.9375,4.974,5.0606,5.0664,5.0683,0.0,0.0,5.0702,5.0702,5.0702,5.0702,5.0702,0.0,0.0,5.0683,0.0,5.0664,5.0683,5.0623,5.0584,5.0603,5.0521,5.0264,4.991,4.991,4.9655,4.9252,4.8934,4.8816,4.8746,4.8439,4.8306,4.8306,4.8306,4.8306,4.8306,4.8306,4.8306,4.8306,4.8306,4.8306,4.8306,4.8306,4.8306,4.8306,4.8306,4.8306,4.8306,4.8306,4.8306,4.8306,4.8306,4.8306,4.8306,4.8306,4.8306,4.8306,4.8306,0.0,0.0,0.0,0.0,0.0,0.0,4.6548,4.5985,4.5069,0.0,0.0,0.0,0.0,0.0,0.0,0.0,0.0,4.4587,4.4587,0.0,4.4587,4.4587,4.4587,4.4587,4.4587,4.4587,4.4536,4.2997,4.2286,4.2236,4.1525,4.161,4.2252,4.2269,4.2286,4.2354,4.3115,4.3403,4.3504,4.4282,4.457,4.4671,5.0656,5.0814,5.092,5.0816,5.0791,5.0757,5.0776,5.074,5.0702,5.0702,5.0702,5.0491,4.9933,4.9875,4.9971,0.0,5.0279,5.0394,0.0,5.0702,5.0702,5.0702,5.0702,5.0702,5.0702,5.0702,5.0702,5.0702,0.0,0.0,0.0,5.0702,5.0702,5.0702,5.0682,5.0544,5.0313,5.0268,5.0012,4.9665,4.9345,4.9126,4.8934,4.8586,4.8458,4.8439,4.8344,4.8306,4.8306,4.8306,4.8306,4.8306,4.8306,4.8306,4.8306,4.8306,4.8306,4.8306,4.8306,4.8306,4.8306,4.8306,4.8306,4.8306,4.8306,4.8306,4.8306,4.8306,4.8306,4.8306,4.8306,4.8306,4.8306,4.8306,4.8306,0.0,0.0,0.0,0.0,0.0,0.0,4.6707,0.0,4.5407,0.0,0.0,0.0,0.0,0.0,0.0,0.0,0.0,4.4587,0.0,4.4587,4.4587,4.4587,4.4587,4.4587,4.4299,4.3775,4.3284,4.2777,4.2286,4.2049,4.2066,4.2337,4.2844,4.3064,4.3132,4.391,4.4519,4.501,4.5263,4.5669,4.6126,5.0927,5.0855,5.0803,5.0702,5.0702,5.0702,5.0702,5.0702,5.0702,5.0702,5.0702,5.0702,5.0702,5.0702,0.0,5.0702,5.0702,5.0702,5.0702,5.0702,5.0702,5.0702,5.0702,5.0702,5.0702,0.0,0.0,5.0702,5.0702,5.0702,5.0702,5.0702,5.0702,5.0683,5.0565,5.0399,5.0183,4.9999,4.9711,4.937,4.9048,4.8779,4.8586,4.8364,4.8306,4.8306,4.8306,4.8306,4.8306,4.8306,4.8306,4.8306,4.8306,4.8306,4.8306,4.8306,4.8306,4.8306,4.8306,4.8306,4.8306,4.8306,4.8306,4.8306,4.8306,4.8306,4.8306,4.8306,4.8306,4.8306,4.8306,4.8306,4.8306,4.8306,4.8306,4.8306,4.8306,0.0,0.0,0.0,0.0,0.0,0.0,4.5563,0.0,0.0,0.0,0.0,0.0,0.0,0.0,4.4587,4.4587,0.0,4.4587,4.4587,4.4587,4.4587,4.4587,4.4181,4.342,4.342,4.3166,4.2709,4.2709,4.3047,4.3606,4.4079,4.4434,4.4739,4.5213,4.5703,4.6109,4.6109,4.6397,4.6836,5.0879,5.0805,0.0,0.0,5.0702,0.0,5.0702,5.0702,5.0721,5.0779,5.0779,5.0798,5.0856,5.0856,5.0856,5.0856,0.0,0.0,0.0,5.0702,5.0702,5.0702,5.0702,5.0721,5.0779,5.0779,5.0798,5.0856,5.0856,5.0856,5.0856,5.0836,5.0836,5.0836,5.0486,5.0312,5.0264,4.9898,4.9544,4.9206,4.9083,4.8806,4.8471,4.8471,4.8453,4.8398,4.8398,4.8361,4.8306,4.8306,4.8306,4.8306,4.8306,4.8306,4.8306,4.8306,4.8306,4.8306,4.8306,4.8306,4.8306,4.8306,4.8306,4.8306,4.8306,4.8306,4.8306,4.8306,4.8306,4.8306,4.8306,4.8306,4.8306,4.8306,4.8306,4.8306,4.8306,0.0,0.0,0.0,0.0,0.0,0.0,4.5302,4.4831,0.0,0.0,0.0,0.0,0.0,4.4587,4.4587,4.4587,4.4587,4.4587,4.4587,4.4587,4.4587,4.4621,4.4265,4.3572,4.3623,4.3656,4.3656,4.3656,4.4468,4.5788,4.5788,4.6177,4.6786,4.6786,4.6819,4.687,4.687,4.6904,4.7039,0.0,0.0,5.0683,5.0702,5.0702,5.0702,5.0702,5.0702,5.0914,5.1548,5.1625,5.1875,5.2549,5.2606,5.2606,5.2606,5.1433,5.0702,5.0702,5.0702,5.0702,5.0702,5.0702,5.0991,5.1606,5.1625,5.1952,5.2606,5.2606,5.2606,5.2606,5.2357,5.2226,5.2226,5.187,5.1556,5.1256,5.1096,5.0815,5.0471,5.0356,5.0296,5.0215,5.0215,4.9829,4.9279,4.9279,4.8857,4.8306,4.8306,4.8306,4.8306,4.8306,4.8306,4.8306,4.8306,4.8306,4.8306,4.8306,4.8306,4.8306,4.8306,4.8306,4.8306,4.8306,4.8306,4.8306,4.8306,4.8306,4.8306,4.8306,4.8306,4.8306,4.8306,4.8306,4.8306,4.8306,4.8306,0.0,0.0,4.7645,4.7107,4.6548,4.5852,4.523,0.0,0.0,0.0,0.0,4.4587,4.4587,4.4587,4.4587,4.4587,4.4587,4.4587,4.4587,4.4587,4.5162,4.5348,4.5179,4.5737,4.5991,4.5991,4.5991,4.6194,4.6532,4.6532,4.6633,4.6786,4.6786,4.7141,4.7648,4.7648,4.8003,4.8511,5.1818,5.1857,5.1857,5.1837,5.1837,5.1837,5.1837,5.1837,5.1991,5.2452,5.2491,5.2683,5.3145,5.3203,5.3203,5.3203,5.2375,5.1837,5.1837,5.1837,5.1837,5.1837,5.1837,5.2049,5.2491,5.2491,5.2741,5.3203,5.3203,5.3203,5.3203,5.3018,5.2931,5.2909,5.2387,5.2024,5.1807,5.1393,5.1101,5.0885,5.0842,5.0802,5.0802,5.0802,5.0527,5.0141,5.0141,4.9829,4.9444,4.9444,4.9205,4.8893,4.8893,4.8618,4.8306,4.8306,4.8306,4.8306,4.8306,4.8306,4.8306,4.8306,4.8306,4.8306,4.8306,4.8306,4.8306,4.8306,4.8306,4.8306,4.8306,4.8636,4.8893,4.8893,4.9205,4.9444,4.9444,4.9444,0.0,4.893,4.823,4.7501,4.6788,4.5852,4.5177,4.4831,0.0,0.0,4.5094,4.5399,4.528,4.4604,4.4587,4.4739,4.5094,4.5432,4.5585,4.5602,4.6007,4.6194,4.621,4.6616,4.6786,4.6786,4.6786,4.6989,4.731,4.731,4.7496,4.78,4.78,4.8054,4.8409,4.8409,4.8663,4.9001,5.3128,5.3243,5.3203,5.3203,5.3203,5.3203,5.3203,5.3203,5.326,5.3376,5.3395,5.3433,5.3568,5.3587,5.3587,5.3587,5.3587,5.3472,5.3222,5.3203,5.3203,5.3203,5.3203,5.326,5.3395,5.353,5.3587,5.3587,5.3587,5.3587,5.3587,5.3526,5.3464,5.3379,5.2693,5.2371,5.2247,5.1547,5.1253,5.1253,5.121,5.1169,5.1169,5.1169,5.1096,5.0986,5.0986,5.0894,5.0802,5.0802,5.0343,4.9774,4.9774,4.926,4.8691,4.8691,4.8691,4.8636,4.8379,4.8306,4.8306,4.8306,4.8306,4.8306,4.8306,4.8306,4.8306,4.8306,4.8398,4.8508,4.8508,4.9187,4.9774,4.9774,5.0343,5.0802,5.0802,0.0,5.0505,4.975,4.8854,4.7914,4.7021,4.5944,4.5265,4.5171,4.5614,4.5872,0.0,4.6447,4.621,4.4959,4.4908,4.5213,4.5872,4.6481,4.6786,4.6786,4.6904,4.6972,4.6972,4.7073,4.7124,4.7124,4.7124,4.7496,4.8088,4.8088,4.8443,4.9001,4.9001,4.9001,4.9001,4.9001,4.9001,4.9001,5.3204,5.3203,5.3203,5.3203,5.3203,5.3203,5.3203,5.3203,5.3472,5.4203,5.4299,5.4549,5.5241,5.5299,5.5299,5.5299,5.5299,5.4703,5.3299,5.3203,5.3203,5.3203,5.3203,5.3549,5.428,5.4953,5.5299,5.5299,5.5299,5.5299,5.5318,5.5078,5.4771,5.4381,5.3959,5.3551,5.3135,5.2954,5.2867,5.2821,5.2839,5.2839,5.2839,5.2839,5.2417,5.1811,5.1811,5.1371,5.0802,5.0802,5.0729,5.0618,5.0618,5.0527,5.0417,5.0417,5.0417,5.0105,4.8691,4.8306,4.8306,4.8306,4.8306,4.8306,4.8306,4.8306,4.8306,4.8306,4.8893,4.9389,4.9389,5.005,5.0618,5.0618,5.0729,5.0802,5.0802,0.0,5.0566,5.0003,4.9377,4.8786,4.8184,4.7378,4.6874,4.6817,4.6707,4.6616,4.6616,4.6735,4.6684,4.6464,4.6447,4.6498,4.6616,4.6735,4.6786,4.6802,4.7445,4.775,4.7767,4.8376,4.8663,4.8663,4.8663,4.8731,4.8832,4.8832,4.89,4.9001,4.9001,4.9001,4.9001,4.9001,4.9001,4.9001,5.4453,5.4549,5.4549,5.4549,5.4549,5.4549,5.4549,5.4549,5.4684,5.5088,5.5145,5.528,5.5665,5.5703,5.5703,5.5703,5.5703,5.5376,5.4607,5.4549,5.4549,5.4549,5.4549,5.4722,5.5145,5.5511,5.5703,5.5703,5.5703,5.5599,5.5356,5.5231,5.4971,5.4516,5.4118,5.3777,5.3565,5.3359,5.323,5.3206,5.3206,5.3206,5.3206,5.3206,5.2968,5.2656,5.2656,5.2417,5.2105,5.2105,5.1793,5.1444,5.1444,5.1151,5.0802,5.0802,5.0802,5.0637,4.9866,4.9646,4.9646,4.9646,4.9646,4.9646,4.9646,4.9646,4.9646,4.9646,4.9976,5.0251,5.0251,5.0894,5.1444,5.1444,5.1811,0.0,0.0,5.184,5.1399,5.0723,4.9852,4.9027,4.826,4.752,4.706,4.7003,4.7217,4.7394,4.7394,4.7767,4.7986,4.7986,4.7597,4.7394,4.7394,4.7784,4.7986,4.7986,4.8342,4.8494,4.8511,4.8849,4.9001,4.9001,4.9001,4.9001,4.9001,4.9001,4.9001,4.9001,4.9001,4.9001,4.9001,4.9001,4.9001,4.9001,5.5568,5.5703,5.5703,5.5703,5.5703,5.5703,5.5703,5.5703,5.5703,5.5703,5.5703,5.5703,5.5703,5.5703,5.5703,5.5703,5.5703,5.5703,5.5703,5.5703,5.5703,5.5703,5.5703,5.5703,5.5703,5.5703,5.5662,5.5618,5.5618,5.5418,5.5026,5.5026,5.4809,5.4373,5.3996,5.3796,5.3624,5.3336,5.3206,5.3206,5.3206,5.3206,5.3206,5.3206,5.3206,5.3206,5.3206,5.3206,5.3206,5.3206,5.2803,5.227,5.227,5.1867,5.1371,5.1371,5.1371,5.1279,5.0912,5.0802,5.0802,5.0802,5.0802,5.0802,5.0802,5.0802,5.0802,5.0802,5.0949,5.1077,5.1077,5.1738,5.227,5.227,0.0,0.0,0.0,5.2672,5.208,5.1214,5.0272,4.9306,4.8459,4.7826,4.7471,4.7352,4.7834,4.8173,4.8173,4.8697,4.9001,4.9001,4.846,4.8173,4.8173,4.8731,4.9001,4.9001,4.9001,4.9001,4.9001,4.9001,4.9001,4.9001,4.9001,4.9001,4.9001,4.9001,4.9001,4.9001,4.9001,4.9001,4.9001,4.9001,4.9001,4.9001,5.5684,5.5703,5.5703,5.5703,5.5703,5.5703,5.5703,5.5703,5.5703,5.5703,5.5703,5.5703,5.5703,5.5703,5.5703,5.5703,5.5703,5.5703,5.5703,5.5703,5.5703,5.5703,5.5703,5.5703,5.5703,5.5703,5.5573,5.5339,5.5339,5.5164,5.4836,5.4836,5.4541,5.4033,5.3997,5.37,5.323,5.3206,5.3206,5.3206,5.3206,5.3206,5.3206,5.3206,5.3206,5.3206,5.3206,5.3206,5.3206,5.3206,5.317,5.3115,5.3115,5.3078,5.3023,5.3023,5.3023,5.2711,5.1206,5.0802,5.0802,5.0802,5.0802,5.0802,5.0802,5.0802,5.0802,5.0802,5.1389,5.1903,5.1903,5.2564,5.3115,5.3115,0.0,0.0,5.2518,5.2408,5.1994,5.0929,5.0572,5.0206,4.9653,4.924,4.9059,4.8999,4.8944,4.8934,4.8934,4.8968,4.9001,4.9001,4.8951,4.8934,4.8934,4.8984,4.9001,4.9001,4.9001,4.9001,4.9001,4.9001,4.9001,4.9001,4.9001,4.9001,4.9001,4.9001,4.9001,4.9001,4.9001,4.9001,4.9001,4.9001,4.9001,4.9001,5.5703,5.5703,5.5703,5.5703,5.5703,5.5703,5.5703,5.5703,5.5703,5.5703,5.5703,5.5703,5.5703,5.5703,5.5703,5.5703,5.5703,5.5703,5.5703,5.5703,5.5703,5.5703,5.5703,5.5703,5.5703,5.5551,5.5389,5.5288,5.5083,5.4787,5.4373,5.4326,5.4033,5.3545,5.3524,5.3378,5.3206,5.3206,5.3206,5.3206,5.3206,5.3206,5.3206,5.3206,5.3206,5.3206,5.3206,5.3206,5.3206,5.3206,5.3206,5.3206,5.3206,5.3206,5.3206,5.3206,5.3206,5.3078,5.2454,5.2307,5.2307,5.2307,5.2307,5.2307,5.2307,5.2307,5.2307,5.2307,5.2546,5.2747,5.2747,5.3004,5.3206,5.3206,0.0,5.2608,5.2408,5.1817,5.1192,5.0714,5.0159,4.9732,4.9394,4.9168,4.9063,4.9063,4.9001,4.9001,4.9001,4.9001,4.9001,4.9001,4.9001,4.9001,4.9001,4.9001,4.9001,4.9001,4.9001,4.9001,4.9001,4.9001,4.9001,4.9001,4.9001,4.9001,4.9001,4.9001,4.9001,4.9001,4.9001,4.9001,4.9001,4.9001,4.9001,4.9001,5.5703,5.5703,5.5703,5.5703,5.5703,5.5703,5.5703,5.5703,5.5703,5.5703,5.5703,5.5703,5.5703,5.5703,5.5703,5.5703,5.5703,5.5703,5.5703,5.5703,5.5703,5.5703,5.5703,5.5662,5.5573,5.5389,5.5191,5.4981,5.4746,5.4411,5.3997,5.3962,5.3719,5.3359,5.3254,5.3248,5.3206,5.3206,5.3206,5.3206,5.3206,5.3206,5.3206,5.3206,5.3206,5.3206,5.3206,5.3206,5.3206,5.3206,5.3206,5.3206,5.3206,5.3206,5.3206,5.3206,5.3206,5.3206,5.3206,5.3206,5.3206,5.3206,5.3206,5.3206,5.3206,5.3206,5.3206,5.3206,5.3206,5.3206,5.3206,5.3206,5.3206,5.3206,5.2761,5.2361,5.2155,5.1365,5.0694,5.0401,4.9849,4.9428,4.929,4.9124,4.9001,4.9001,4.9001,4.9001,4.9001,4.9001,4.9001,4.9001,4.9001,4.9001,4.9001,4.9001,4.9001,4.9001,4.9001,4.9001,4.9001,4.9001,4.9001,4.9001,4.9001,4.9001,4.9001,4.9001,4.9001,4.9001,4.9001,4.9001,4.9001,4.9001,4.9001,4.9001,5.5703,5.5703,5.5703,5.5703,5.5703,5.5703,5.5703,5.5703,5.5703,5.5703,5.5703,5.5703,5.5703,5.5703,5.5703,5.5703,5.5703,5.5703,5.5703,5.5703,5.5703,5.5703,5.5703,5.5573,5.5314,5.5288,5.4981,5.4315,5.4315,5.4106,5.3813,5.3734,5.3616,5.3499,5.3359,5.3254,5.3206,5.3206,5.3206,5.3206,5.3206,5.3206,5.3206,5.3206,5.3206,5.3206,5.3206,5.3206,5.3206,5.3206,5.3206,5.3206,5.3206,5.3206,5.3206,5.3206,5.3206,5.3206,5.3206,5.3206,5.3206,5.3206,5.3206,5.3206,5.3206,5.3206,5.3206,5.3206,5.3206,5.3206,5.3206,5.3206,5.3206,5.3206,5.2761,5.2203,5.1651,5.1158,5.0602,5.0051,4.9742,4.9488,4.9488,4.9185,4.9001,4.9001,4.9001,4.9001,4.9001,4.9001,4.9001,4.9001,4.9001,4.9001,4.9001,4.9001,4.9001,4.9001,4.9001,4.9001,4.9001,4.9001,4.9001,4.9001,4.9001,4.9001,4.9001,4.9001,4.9001,4.9001,4.9001,4.9001,4.9001,4.9001,4.9001,4.9001,5.5703,5.5703,5.5703,5.5703,5.5703,5.5703,5.5703,5.5703,5.5703,5.5703,5.5703,5.5703,5.5703,5.5703,5.5703,5.5703,5.5703,5.5703,5.5703,5.5703,5.5618,5.5413,5.5413,5.5389,5.5314,5.4836,5.4425,5.4156,5.3981,5.3774,5.3579,5.3481,5.34,5.3359,5.3254,5.3206,5.3206,5.3206,5.3206,5.3206,5.3206,5.3206,5.3206,5.3206,5.3206,5.3206,5.3206,5.3206,5.3206,5.3206,5.3206,5.3206,5.3206,5.3206,5.3206,5.3206,5.3206,5.3206,5.3206,5.3206,5.3206,5.3206,5.3206,5.3206,5.3206,5.3206,5.3206,5.3206,5.3206,5.3206,5.3206,5.3206,5.3206,5.3206,5.2761,5.2361,5.2155,5.1719,5.1244,5.0947,5.0515,5.0142,5.0085,4.9496,4.9107,4.9107,4.9063,4.9001,4.9001,4.9001,4.9001,4.9001,4.9001,4.9001,4.9001,4.9001,4.9001,4.9001,4.9001,4.9001,4.9001,4.9001,4.9001,4.9001,4.9001,4.9001,4.9001,4.9001,4.9001,4.9001,4.9001,4.9001,4.9001,4.9001,4.9001,4.9001,5.5703,5.5703,5.5703,5.5703,5.5703,5.5703,5.5703,5.5703,5.5703,5.5703,5.5703,5.5703,5.5703,5.5703,5.5703,5.5703,5.5703,5.5703,5.5703,5.5596,5.5461,5.5314,5.5037,5.4905,5.4905,5.4476,5.4104,5.3944,5.3736,5.3598,5.3499,5.3359,5.33,5.3318,5.323,5.3206,5.3206,5.3206,5.3206,5.3206,5.3206,5.3206,5.3206,5.3206,5.3206,5.3206,5.3206,5.3206,5.3206,5.3206,5.3206,5.3206,5.3206,5.3206,5.3206,5.3206,5.3206,5.3206,5.3206,5.3206,5.3206,5.3206,5.3206,5.3206,5.3206,5.3206,5.3206,5.3206,5.3206,5.3206,5.3206,5.3206,5.3206,5.3206,5.2761,5.2408,5.2408,5.1964,5.15,5.1157,5.0733,5.0404,5.0102,4.9615,4.929,4.929,4.9229,4.9185,4.9046,4.9185,4.9124,4.9001,4.9063,4.9063,4.9001,4.9001,4.9001,4.9001,4.9001,4.9001,4.9001,4.9001,4.9001,4.9001,4.9001,4.9001,4.9001,4.9001,4.9001,4.9001,4.9001,4.9001,4.9001,4.9001,4.9001,4.9001,5.5703,5.5703,5.5703,5.5703,5.5703,5.5703,5.5703,5.5703,5.5703,5.5703,5.5703,5.5703,5.5703,5.5703,5.5703,5.5703,5.5703,5.5703,5.5682,5.5437,5.5288,5.5217,5.4623,5.4281,5.4246,5.4139,5.3944,5.3656,5.3558,5.3499,5.3459,5.3359,5.3277,5.3277,5.323,5.3206,5.3206,5.3206,5.3206,5.3206,5.3206,5.3206,5.3206,5.3206,5.3206,5.3206,5.3206,5.3206,5.3206,5.3206,5.3206,5.3206,5.3206,5.3206,5.3206,5.3206,5.3206,5.3206,5.3206,5.3206,5.3206,5.3206,5.3206,5.3206,5.3206,5.3206,5.3206,5.3206,5.3206,5.3206,5.3206,5.3206,5.3206,5.3206,5.2806,5.2454,5.2454,5.206,5.1551,5.1017,5.075,5.0366,4.9866,4.9649,4.953,4.9488,4.9488,4.9411,4.9229,4.9428,4.9367,4.9063,4.9168,4.9168,4.9001,4.9001,4.9001,4.9001,4.9001,4.9001,4.9001,4.9001,4.9001,4.9001,4.9001,4.9001,4.9001,4.9001,4.9001,4.9001,4.9001,4.9001,4.9001,4.9001,4.9001,4.9001,5.5703,5.5703,5.5703,5.5703,5.5703,5.5703,5.5703,5.5703,5.5703,5.5703,5.5703,5.5703,5.5703,5.5703,5.5703,5.5703,5.5703,5.5618,5.5389,5.5339,5.5083,5.456,5.4364,5.4161,5.3831,5.3813,5.3697,5.3539,5.34,5.3336,5.3272,5.3248,5.323,5.323,5.3206,5.3206,5.3206,5.3206,5.3206,5.3206,5.3206,5.3206,5.3206,5.3206,5.3206,5.3206,5.3206,5.3206,5.3206,5.3206,5.3206,5.3206,5.3206,5.3206,5.3206,5.3206,5.3206,5.3206,5.3206,5.3206,5.3206,5.3206,5.3206,5.3206,5.3206,5.3206,5.3206,5.3206,5.3206,5.3206,5.3206,5.3206,5.3206,5.3206,5.3103,5.3017,5.3017,5.2912,5.2654,5.2108,5.1651,5.114,5.064,5.004,4.959,4.9488,4.9488,4.9488,4.9428,4.9488,4.9488,4.9367,4.9428,4.9367,4.9168,4.9168,4.9107,4.9001,4.9001,4.9001,4.9001,4.9001,4.9001,4.9001,4.9001,4.9001,4.9001,4.9001,4.9001,4.9001,4.9001,4.9001,4.9001,4.9001,4.9001,4.9001,5.5703,5.5703,5.5703,5.5703,5.5703,5.5703,5.5703,5.5703,5.5703,5.5703,5.5703,5.5703,5.5703,5.5703,5.564,5.5508,5.5527,5.5369,5.5083,5.4924,5.4685,5.4315,5.4125,5.3926,5.3695,5.3558,5.3459,5.34,5.3295,5.323,5.3206,5.3206,5.3206,5.3206,5.3206,5.3206,5.3206,5.3206,5.3206,5.3206,5.3206,5.3206,5.3206,5.3206,5.3206,5.3206,5.3206,5.3206,5.3206,5.3206,5.3206,5.3206,5.3206,5.3206,5.3206,5.3206,5.3206,5.3206,5.3206,5.3206,5.3206,5.3206,5.3206,5.3206,5.3206,5.3206,5.3206,5.3206,5.3206,5.3206,5.3206,5.3206,5.3206,5.3206,5.3206,5.3206,5.3206,5.2974,5.2608,5.206,5.1551,5.1017,5.0453,5.0074,4.9801,4.9742,4.9742,4.9683,4.959,4.9683,4.9683,4.9488,4.953,4.953,4.935,4.935,4.9307,4.9246,4.9063,4.9001,4.9001,4.9001,4.9001,4.9001,4.9001,4.9168,4.9394,4.9107,4.9168,4.9394,4.9107,4.9001,4.9001,4.9001,4.9001,4.9001,5.5703,5.5703,5.5703,5.5703,5.5703,5.5703,5.5703,5.5703,5.5703,5.5703,5.5703,5.5703,5.5703,5.5662,5.5531,5.5314,5.5262,5.5083,5.4746,5.4463,5.4281,5.4177,5.3888,5.3674,5.3616,5.34,5.33,5.33,5.323,5.3206,5.3206,5.3206,5.3206,5.3206,5.3206,5.3206,5.3206,5.3206,5.3206,5.3206,5.3206,5.3206,5.3206,5.3206,5.3206,5.3206,5.3206,5.3206,5.3206,5.3206,5.3206,5.3206,5.3206,5.3206,5.3206,5.3206,5.3206,5.3206,5.3206,5.3206,5.3206,5.3206,5.3206,5.3206,5.3206,5.3206,5.3206,5.3206,5.3206,5.3206,5.3206,5.3206,5.3206,5.3206,5.3206,5.3206,5.3206,5.2761,5.2203,5.1817,5.1158,5.0602,5.0149,5.0051,5.0011,5.0011,5.0011,4.9935,4.9784,4.9935,4.9877,4.9607,4.9666,4.9649,4.9547,4.953,4.953,4.9488,4.9246,4.9063,4.9063,4.9001,4.9001,4.9001,4.9107,4.9453,4.989,4.9333,4.9496,4.9988,4.9273,4.9063,4.9107,4.9063,4.9001,4.9001,5.5703,5.5703,5.5703,5.5703,5.5703,5.5703,5.5703,5.5703,5.5703,5.5703,5.5703,5.5703,5.5703,5.5485,5.5339,5.5314,5.5037,5.4716,5.4397,5.4349,5.4161,5.3793,5.3734,5.3598,5.3359,5.3318,5.33,5.33,5.323,5.3206,5.3206,5.3206,5.3206,5.3206,5.3206,5.3206,5.3206,5.3206,5.3206,5.3206,5.3206,5.3206,5.3206,5.3206,5.3206,5.3206,5.3206,5.3206,5.3206,5.3206,5.3206,5.3206,5.3206,5.3206,5.3206,5.3206,5.3206,5.3206,5.3206,5.3206,5.3206,5.3206,5.3206,5.3206,5.3206,5.3206,5.3206,5.3206,5.3206,5.3206,5.3206,5.3206,5.3206,5.3206,5.3206,5.3206,5.3206,5.2761,5.2361,5.2315,5.1416,5.0749,5.0712,5.0246,5.0011,5.0011,5.0011,5.0011,4.9935,5.0011,5.0011,4.9935,4.9935,4.986,4.9649,4.9649,4.959,4.9488,4.9488,4.935,4.9168,4.9063,4.9001,4.9001,4.9555,4.9832,4.989,4.9832,5.0085,5.0497,4.9436,4.9333,4.9732,4.9168,4.9001,4.9001,5.5703,5.5703,5.5703,5.5703,5.5703,5.5703,5.5703,5.5703,5.5703,5.5703,5.5703,5.5703,5.5703,5.5461,5.5138,5.4758,5.4623,5.4364,5.3981,5.3981,5.3832,5.3598,5.3518,5.3418,5.33,5.3254,5.3254,5.3254,5.3206,5.3206,5.3206,5.3206,5.3206,5.3206,5.3206,5.3206,5.3206,5.3206,5.3206,5.3206,5.3206,5.3206,5.3206,5.3206,5.3206,5.3206,5.3206,5.3206,5.3206,5.3206,5.3206,5.3206,5.3206,5.3206,5.3206,5.3206,5.3206,5.3206,5.3206,5.3206,5.3206,5.3206,5.3206,5.3206,5.3206,5.3206,5.3206,5.3206,5.3206,5.3206,5.3206,5.3206,5.3206,5.3206,5.3206,5.3206,5.3206,5.2761,5.2315,5.2012,5.1262,5.091,5.121,5.0766,5.0547,5.0857,5.0602,5.0564,5.0857,5.0602,5.0547,5.091,5.091,5.0839,5.0768,5.0768,5.0714,5.0659,5.057,5.0085,4.935,4.9307,4.9246,4.9168,4.9774,5.0005,4.9948,5.0237,5.0497,5.0643,4.9815,4.9436,4.9394,4.9513,4.977,5.0189]}]]